[[{"header":{"parameterUnit":"m.s-1","parameterCategory":1,"la1":31.0,"la2":29.5877,"lo1":-88.7671,"lo2":-86.6584,"dy":0.0162,"dx":0.0185,"nx":115,"ny":88,"refTime":"2023-05-27T12:00:00:Z","depth":0,"parameterNumber":2,"parameterNumberName":"U-component_of_WINDS"},"data":[0.0,0.0,0.0,0.0,0.0,0.0,0.0,0.0,0.0,0.0,0.0,0.0,0.0,0.0,0.0,0.0,0.0,0.0,0.0,0.0,0.0,0.0,0.0,0.0,0.0,0.0,0.0,0.0,0.0,0.0,0.0,0.0,0.0,0.0,0.0,0.0,0.0,0.0,0.0,0.0,0.0,0.0,0.0,0.0,0.0,0.0,0.0,0.0,0.0,0.0,0.0,0.0,0.0,0.0,0.0,0.0,0.0,0.0,0.0,0.0,0.0,0.0,0.0,0.0,0.0,0.0,0.0,0.0,0.0,0.0,0.0,0.0,0.0,0.0,0.0,0.0,0.0,0.0,0.0,0.0,0.0,0.0,0.0,0.0,0.0,0.0,0.0,0.0,0.0,0.0,0.0,0.0,0.0,0.0,0.0,0.0,0.0,0.0,0.0,0.0,0.0,0.0,0.0,0.0,0.0,0.0,0.0,0.0,0.0,0.0,0.0,0.0,0.0,0.0,0.0,0.0,0.0,0.0,0.0,0.0,0.0,0.0,0.0,0.0,0.0,0.0,0.0,0.0,0.0,0.0,0.0,0.0,0.0,0.0,0.0,0.0,0.0,0.0,0.0,0.0,0.0,0.0,0.0,0.0,0.0,0.0,0.0,0.0,0.0,0.0,0.0,0.0,0.0,0.0,0.0,0.0,0.0,0.0,0.0,0.0,0.0,0.0,0.0,0.0,0.0,0.0,0.0,0.0,0.0,0.0,0.0,0.0,0.0,0.0,0.0,0.0,0.0,0.0,0.0,0.0,0.0,0.0,0.0,0.0,0.0,0.0,0.0,0.0,0.0,0.0,0.0,0.0,0.0,0.0,0.0,0.0,0.0,0.0,0.0,0.0,0.0,0.0,0.0,0.0,0.0,0.0,0.0,0.0,0.0,0.0,0.0,0.0,0.0,0.0,0.0,0.0,0.0,0.0,0.0,0.0,0.0,0.0,0.0,0.0,0.0,0.0,0.0,0.0,0.0,0.0,0.0,0.0,0.0,0.0,0.0,0.0,0.0,0.0,0.0,0.0,0.0,0.0,0.0,0.0,0.0,0.0,0.0,0.0,0.0,0.0,0.0,0.0,0.0,0.0,0.0,0.0,0.0,0.0,0.0,0.0,0.0,0.0,0.0,0.0,0.0,0.0,0.0,0.0,0.0,0.0,0.0,0.0,0.0,0.0,0.0,0.0,0.0,0.0,0.0,0.0,0.0,0.0,0.0,0.0,0.0,0.0,0.0,0.0,0.0,0.0,0.0,0.0,0.0,0.0,0.0,0.0,0.0,0.0,0.0,0.0,0.0,0.0,0.0,0.0,0.0,0.0,0.0,0.0,0.0,0.0,0.0,0.0,0.0,0.0,0.0,0.0,0.0,0.0,0.0,0.0,0.0,0.0,0.0,0.0,0.0,0.0,0.0,0.0,0.0,0.0,0.0,0.0,0.0,0.0,0.0,0.0,0.0,0.0,0.0,0.0,0.0,0.0,0.0,0.0,0.0,0.0,0.0,0.0,0.0,0.0,0.0,0.0,0.0,0.0,0.0,0.0,0.0,0.0,0.0,0.0,0.0,0.0,0.0,0.0,0.0,0.0,0.0,0.0,0.0,0.0,0.0,0.0,0.0,0.0,0.0,0.0,0.0,0.0,0.0,0.0,0.0,0.0,0.0,0.0,0.0,0.0,0.0,0.0,0.0,0.0,0.0,0.0,0.0,0.0,0.0,0.0,0.0,0.0,0.0,0.0,0.0,0.0,0.0,0.0,0.0,0.0,0.0,0.0,0.0,0.0,0.0,0.0,0.0,0.0,0.0,0.0,0.0,0.0,0.0,0.0,0.0,0.0,0.0,0.0,0.0,0.0,0.0,0.0,0.0,0.0,0.0,0.0,0.0,0.0,0.0,0.0,0.0,0.0,0.0,0.0,0.0,0.0,0.0,0.0,0.0,0.0,0.0,0.0,0.0,0.0,0.0,0.0,0.0,0.0,0.0,0.0,0.0,0.0,0.0,0.0,0.0,0.0,0.0,0.0,0.0,0.0,0.0,0.0,0.0,0.0,0.0,0.0,0.0,0.0,0.0,0.0,0.0,0.0,0.0,0.0,0.0,0.0,0.0,0.0,0.0,0.0,0.0,0.0,0.0,0.0,0.0,0.0,0.0,0.0,0.0,0.0,0.0,0.0,0.0,0.0,0.0,0.0,0.0,0.0,0.0,0.0,0.0,0.0,0.0,0.0,0.0,0.0,0.0,0.0,0.0,0.0,0.0,0.0,0.0,0.0,0.0,0.0,0.0,0.0,0.0,0.0,0.0,0.0,0.0,0.0,0.0,0.0,0.0,0.0,0.0,0.0,0.0,0.0,0.0,0.0,0.0,0.0,0.0,0.0,0.0,0.0,0.0,0.0,0.0,0.0,0.0,0.0,0.0,0.0,0.0,0.0,0.0,0.0,0.0,0.0,0.0,0.0,0.0,0.0,0.0,0.0,0.0,0.0,0.0,0.0,0.0,0.0,0.0,0.0,0.0,0.0,0.0,0.0,0.0,0.0,0.0,0.0,0.0,0.0,0.0,0.0,0.0,0.0,0.0,0.0,0.0,0.0,0.0,0.0,0.0,0.0,0.0,0.0,0.0,0.0,0.0,0.0,0.0,0.0,0.0,0.0,0.0,0.0,0.0,0.0,0.0,0.0,0.0,0.0,0.0,0.0,0.0,0.0,0.0,0.0,0.0,0.0,0.0,0.0,0.0,0.0,0.0,0.0,0.0,0.0,0.0,0.0,0.0,0.0,0.0,0.0,0.0,0.0,0.0,0.0,0.0,0.0,0.0,0.0,0.0,0.0,0.0,0.0,0.0,0.0,0.0,0.0,0.0,0.0,0.0,0.0,0.0,0.0,0.0,0.0,0.0,0.0,0.0,0.0,0.0,0.0,0.0,0.0,0.0,0.0,0.0,0.0,0.0,0.0,0.0,0.0,0.0,0.0,0.0,0.0,0.0,0.0,0.0,0.0,0.0,0.0,0.0,0.0,0.0,0.0,0.0,0.0,0.0,0.0,0.0,0.0,0.0,0.0,0.0,0.0,0.0,0.0,0.0,0.0,0.0,0.0,0.0,0.0,0.0,0.0,0.0,0.0,0.0,0.0,0.0,0.0,0.0,0.0,0.0,0.0,0.0,0.0,0.0,0.0,0.0,0.0,0.0,0.0,0.0,0.0,0.0,0.0,0.0,0.0,0.0,0.0,0.0,0.0,0.0,0.0,0.0,0.0,0.0,0.0,0.0,0.0,0.0,0.0,0.0,0.0,0.0,0.0,0.0,0.0,0.0,0.0,0.0,0.0,0.0,0.0,0.0,0.0,0.0,0.0,0.0,0.0,0.0,0.0,0.0,0.0,0.0,0.0,0.0,0.0,0.0,0.0,0.0,0.0,0.0,0.0,0.0,0.0,0.0,0.0,0.0,0.0,0.0,0.0,0.0,0.0,0.0,0.0,0.0,0.0,0.0,0.0,0.0,0.0,0.0,0.0,0.0,0.0,0.0,0.0,0.0,0.0,0.0,0.0,0.0,0.0,0.0,0.0,0.0,0.0,0.0,0.0,0.0,0.0,0.0,0.0,0.0,0.0,0.0,0.0,0.0,0.0,0.0,0.0,0.0,0.0,0.0,0.0,0.0,0.0,0.0,0.0,0.0,0.0,0.0,0.0,0.0,0.0,0.0,0.0,0.0,0.0,0.0,0.0,0.0,0.0,0.0,0.0,0.0,0.0,0.0,0.0,0.0,0.0,0.0,0.0,0.0,0.0,0.0,0.0,0.0,0.0,0.0,0.0,0.0,0.0,0.0,0.0,0.0,0.0,0.0,0.0,0.0,0.0,0.0,0.0,0.0,0.0,0.0,0.0,0.0,0.0,0.0,0.0,0.0,0.0,0.0,0.0,0.0,0.0,0.0,0.0,0.0,0.0,0.0,0.0,0.0,0.0,0.0,0.0,0.0,0.0,0.0,0.0,0.0,0.0,0.0,0.0,0.0,0.0,0.0,0.0,0.0,0.0,0.0,0.0,0.0,0.0,0.0,0.0,0.0,0.0,0.0,0.0,0.0,0.0,0.0,0.0,0.0,0.0,0.0,0.0,0.0,0.0,0.0,0.0,0.0,0.0,0.0,0.0,0.0,0.0,0.0,0.0,0.0,0.0,0.0,0.0,0.0,0.0,0.0,0.0,0.0,0.0,0.0,0.0,0.0,0.0,0.0,0.0,0.0,0.0,-0.5353,0.0,0.0,0.0,0.0,0.0,0.0,0.0,0.0,0.0,0.0,0.0,0.0,0.0,0.0,0.0,0.0,0.0,0.0,0.0,0.0,0.0,0.0,0.0,0.0,0.0,0.0,0.0,0.0,0.0,0.0,0.0,0.0,0.0,0.0,0.0,0.0,0.0,0.0,0.0,0.0,0.0,0.0,0.0,0.0,0.0,0.0,0.0,0.0,0.0,0.0,0.0,0.0,0.0,0.0,0.0,0.0,0.0,0.0,0.0,0.0,0.0,0.0,0.0,0.0,0.0,0.0,0.0,0.0,0.0,0.0,0.0,0.0,0.0,0.0,0.0,0.0,0.0,0.0,0.0,0.0,0.0,0.0,0.0,0.0,0.0,0.0,0.0,0.0,0.0,0.0,0.0,0.0,0.0,0.0,0.0,0.0,0.0,0.0,0.0,0.0,0.0,0.0,0.0,0.0,0.0,0.0,0.0,0.0,0.0,0.0,-1.5067,-1.3673,-1.2193,-1.0297,-0.7921,0.0,0.0,0.0,0.0,0.0,0.0,0.0,0.0,0.0,0.0,0.0,0.0,0.0,0.0,0.0,0.0,0.0,0.0,0.0,0.0,0.0,0.0,0.0,0.0,0.0,0.0,0.0,0.0,0.0,0.0,0.0,0.0,0.0,0.0,0.0,0.0,0.0,0.0,0.0,0.0,0.0,0.0,0.0,0.0,0.0,0.0,0.0,0.0,0.0,0.0,0.0,0.0,0.0,0.0,0.0,0.0,0.0,0.0,0.0,0.0,0.0,0.0,0.0,0.0,0.0,0.0,0.0,0.0,0.0,0.0,0.0,0.0,0.0,0.0,0.0,0.0,0.0,0.0,0.0,0.0,0.0,0.0,0.0,0.0,0.0,0.0,0.0,0.0,0.0,0.0,0.0,0.0,0.0,0.0,0.0,0.0,0.0,0.0,0.0,0.0,0.0,0.0,0.0,0.0,0.0,0.0,0.0,0.0,0.0,0.0,0.0,0.0,-1.5237,-1.288,-0.9469,0.0,0.0,0.0,0.0,0.0,0.0,0.0,0.0,0.0,0.0,0.0,0.0,0.0,0.0,0.0,0.0,0.0,0.0,0.0,0.0,0.0,0.0,0.0,0.0,0.0,0.0,0.0,0.0,0.0,0.0,0.0,0.0,0.0,0.0,0.0,0.0,0.0,0.0,0.0,0.0,0.0,0.0,0.0,0.0,0.0,0.0,0.0,0.0,0.0,0.0,0.0,0.0,0.0,0.0,0.0,0.0,0.0,0.0,0.0,0.0,0.0,0.0,0.0,0.0,0.0,0.0,0.0,0.0,0.0,0.0,0.0,0.0,0.0,0.0,0.0,0.0,0.0,0.0,0.0,0.0,0.0,0.0,0.0,0.0,0.0,0.0,0.0,0.0,0.0,0.0,0.0,0.0,0.0,0.0,0.0,0.0,0.0,0.0,0.0,0.0,0.0,0.0,0.0,0.0,0.0,0.0,0.0,0.0,0.0,0.0,-2.0221,-1.8675,-1.7321,0.0,-0.9629,0.0,0.0,0.0,0.0,0.0,0.0,0.0,0.0,0.0,0.0,0.0,0.0,0.0,0.0,0.0,0.0,0.0,0.0,0.0,0.0,0.0,0.0,0.0,0.0,0.0,0.0,0.0,0.0,0.0,0.0,0.0,0.0,0.0,0.0,0.0,0.0,0.0,0.0,0.0,0.0,0.0,0.0,0.0,0.0,0.0,0.0,0.0,0.0,0.0,0.0,0.0,0.0,0.0,0.0,0.0,0.0,0.0,0.0,0.0,0.0,0.0,0.0,0.0,0.0,0.0,0.0,0.0,0.0,0.0,0.0,0.0,0.0,0.0,0.0,0.0,0.0,0.0,0.0,0.0,0.0,0.0,0.0,0.0,0.0,0.0,0.0,0.0,0.0,0.0,0.0,0.0,0.0,0.0,0.0,0.0,0.0,0.0,0.0,0.0,0.0,0.0,0.0,0.0,0.0,0.0,0.0,0.0,0.0,0.0,0.0,-2.2797,-2.1311,-1.89,-1.5839,0.0,0.0,0.0,0.0,0.0,0.0,0.0,0.0,0.0,0.0,0.0,0.0,0.0,0.0,0.0,0.0,0.0,0.0,0.0,0.0,0.0,0.0,0.0,0.0,0.0,0.0,0.0,0.0,0.0,0.0,0.0,0.0,0.0,0.0,0.0,0.0,0.0,0.0,0.0,0.0,0.0,0.0,0.0,0.0,0.0,0.0,0.0,0.0,0.0,0.0,0.0,0.0,0.0,0.0,0.0,0.0,0.0,0.0,0.0,0.0,0.0,0.0,0.0,0.0,0.0,0.0,0.0,0.0,0.0,0.0,0.0,0.0,0.0,0.0,0.0,0.0,0.0,0.0,0.0,0.0,0.0,0.0,0.0,0.0,0.0,0.0,0.0,0.0,0.0,0.0,0.0,0.0,0.0,0.0,0.0,0.0,0.0,0.0,0.0,0.0,0.0,0.0,0.0,0.0,0.0,0.0,0.0,0.0,0.0,0.0,-2.5622,-2.4649,-2.2791,-2.0022,-1.7341,-1.4801,0.0,0.0,0.0,0.0,0.0,0.0,0.0,0.0,0.0,0.0,0.0,0.0,0.0,0.0,0.0,0.0,0.0,0.0,0.0,0.0,0.0,0.0,0.0,0.0,0.0,0.0,0.0,0.0,0.0,0.0,0.0,0.0,0.0,0.0,0.0,0.0,0.0,0.0,0.0,0.0,0.0,0.0,0.0,0.0,0.0,0.0,0.0,0.0,0.0,0.0,0.0,0.0,0.0,0.0,0.0,0.0,0.0,0.0,0.0,0.0,0.0,0.0,0.0,0.0,0.0,0.0,0.0,0.0,0.0,0.0,0.0,0.0,0.0,0.0,0.0,0.0,0.0,0.0,0.0,0.0,0.0,0.0,0.0,0.0,0.0,0.0,0.0,0.0,0.0,0.0,0.0,0.0,0.0,0.0,0.0,0.0,0.0,0.0,0.0,0.0,0.0,0.0,0.0,0.0,0.0,0.0,0.0,0.0,-2.6735,-2.6598,-2.5267,-2.2666,-2.0655,-1.8817,0.0,0.0,0.0,0.0,0.0,0.0,0.0,0.0,0.0,0.0,0.0,0.0,0.0,0.0,0.0,0.0,0.0,0.0,0.0,0.0,0.0,0.0,0.0,0.0,0.0,0.0,0.0,0.0,0.0,0.0,0.0,0.0,0.0,0.0,0.0,0.0,0.0,0.0,0.0,0.0,0.0,0.0,0.0,0.0,0.0,0.0,0.0,0.0,0.0,0.0,0.0,0.0,0.0,0.0,0.0,0.0,0.0,0.0,0.0,0.0,0.0,0.0,0.0,0.0,0.0,0.0,0.0,0.0,0.0,0.0,0.0,0.0,0.0,0.0,0.0,0.0,0.0,0.0,0.0,0.0,0.0,0.0,0.0,0.0,0.0,0.0,0.0,0.0,0.0,0.0,0.0,0.0,0.0,0.0,0.0,0.0,0.0,0.0,0.0,0.0,0.0,0.0,0.0,0.0,0.0,0.0,0.0,0.0,0.0,-2.7588,-2.75,-2.6612,-2.487,-2.3739,-2.1967,0.0,0.0,0.0,0.0,0.0,0.0,0.0,0.0,0.0,0.0,0.0,0.0,0.0,0.0,0.0,0.0,0.0,0.0,0.0,0.0,0.0,0.0,0.0,0.0,0.0,0.0,0.0,0.0,0.0,0.0,0.0,0.0,0.0,0.0,0.0,0.0,0.0,0.0,0.0,0.0,0.0,0.0,0.0,0.0,0.0,0.0,0.0,0.0,0.0,0.0,0.0,0.0,0.0,0.0,0.0,0.0,0.0,0.0,0.0,0.0,0.0,0.0,0.0,0.0,0.0,0.0,0.0,0.0,0.0,0.0,0.0,0.0,0.0,0.0,0.0,0.0,0.0,0.0,0.0,0.0,0.0,0.0,0.0,0.0,0.0,0.0,0.0,0.0,0.0,0.0,0.0,0.0,0.0,0.0,0.0,0.0,0.0,0.0,0.0,0.0,0.0,0.0,0.0,0.0,0.0,0.0,0.0,0.0,0.0,-2.8404,0.0,-2.7817,-2.672,-2.6073,-2.4524,0.0,0.0,0.0,0.0,0.0,0.0,0.0,0.0,0.0,0.0,0.0,0.0,0.0,0.0,0.0,0.0,0.0,0.0,0.0,0.0,0.0,0.0,0.0,0.0,0.0,0.0,0.0,0.0,0.0,0.0,0.0,0.0,0.0,0.0,0.0,0.0,0.0,0.0,0.0,0.0,0.0,0.0,0.0,0.0,0.0,0.0,0.0,0.0,0.0,0.0,0.0,0.0,0.0,0.0,0.0,0.0,0.0,0.0,0.0,0.0,0.0,0.0,0.0,0.0,0.0,0.0,0.0,0.0,0.0,0.0,0.0,0.0,0.0,0.0,0.0,0.0,0.0,0.0,0.0,0.0,0.0,0.0,0.0,0.0,0.0,0.0,0.0,0.0,0.0,0.0,0.0,0.0,0.0,0.0,0.0,0.0,0.0,0.0,0.0,0.0,0.0,0.0,0.0,0.0,0.0,0.0,0.0,0.0,-2.9076,-2.912,-2.9259,-2.8886,-2.7941,-2.7351,-2.6227,0.0,0.0,0.0,0.0,0.0,0.0,0.0,0.0,0.0,0.0,0.0,0.0,0.0,0.0,0.0,0.0,0.0,0.0,0.0,0.0,0.0,0.0,0.0,0.0,0.0,0.0,0.0,0.0,0.0,0.0,0.0,0.0,0.0,0.0,0.0,0.0,0.0,0.0,0.0,0.0,0.0,0.0,0.0,0.0,0.0,0.0,0.0,0.0,0.0,0.0,0.0,0.0,0.0,0.0,0.0,0.0,0.0,0.0,0.0,0.0,0.0,0.0,0.0,0.0,0.0,0.0,0.0,0.0,0.0,0.0,0.0,0.0,0.0,0.0,0.0,0.0,0.0,0.0,0.0,0.0,0.0,0.0,0.0,0.0,0.0,0.0,0.0,0.0,0.0,0.0,0.0,0.0,0.0,0.0,0.0,0.0,0.0,0.0,0.0,0.0,0.0,0.0,0.0,0.0,0.0,0.0,0.0,0.0,0.0,-2.9787,-3.054,-3.0253,-2.8823,-2.9088,-2.8241,0.0,0.0,0.0,0.0,0.0,0.0,0.0,0.0,0.0,0.0,0.0,0.0,0.0,0.0,0.0,0.0,0.0,0.0,0.0,0.0,0.0,0.0,0.0,0.0,0.0,0.0,0.0,0.0,0.0,0.0,0.0,0.0,0.0,0.0,0.0,0.0,0.0,0.0,0.0,0.0,0.0,0.0,0.0,0.0,0.0,0.0,0.0,0.0,0.0,0.0,0.0,0.0,0.0,0.0,0.0,0.0,0.0,0.0,0.0,0.0,0.0,0.0,0.0,0.0,0.0,0.0,0.0,0.0,0.0,0.0,0.0,0.0,0.0,0.0,0.0,0.0,0.0,0.0,0.0,0.0,0.0,0.0,0.0,0.0,0.0,0.0,0.0,0.0,0.0,0.0,0.0,0.0,0.0,0.0,0.0,0.0,0.0,0.0,0.0,0.0,0.0,0.0,0.0,0.0,0.0,0.0,0.0,0.0,0.0,-3.1782,-3.2421,-3.2366,-3.1464,-3.1527,-3.0386,-2.7929,0.0,0.0,0.0,0.0,0.0,0.0,0.0,0.0,0.0,0.0,0.0,0.0,0.0,0.0,0.0,0.0,0.0,0.0,0.0,0.0,0.0,0.0,0.0,0.0,0.0,0.0,0.0,0.0,0.0,0.0,0.0,0.0,0.0,0.0,0.0,0.0,0.0,0.0,0.0,0.0,0.0,0.0,0.0,0.0,0.0,0.0,0.0,0.0,0.0,0.0,0.0,0.0,0.0,0.0,0.0,0.0,0.0,0.0,0.0,0.0,0.0,0.0,0.0,0.0,0.0,0.0,0.0,0.0,0.0,0.0,0.0,0.0,0.0,0.0,0.0,0.0,0.0,0.0,0.0,0.0,0.0,0.0,0.0,0.0,0.0,0.0,0.0,0.0,0.0,0.0,0.0,0.0,0.0,0.0,0.0,0.0,0.0,0.0,0.0,0.0,0.0,0.0,0.0,0.0,0.0,0.0,0.0,0.0,-3.4803,-3.4979,-3.5211,-3.5391,-3.4345,-3.2584,0.0,0.0,0.0,0.0,0.0,0.0,0.0,0.0,0.0,0.0,0.0,0.0,0.0,0.0,0.0,0.0,0.0,0.0,0.0,0.0,0.0,0.0,0.0,0.0,0.0,0.0,0.0,0.0,0.0,0.0,0.0,0.0,0.0,0.0,0.0,0.0,0.0,0.0,0.0,0.0,0.0,0.0,0.0,0.0,0.0,0.0,0.0,0.0,0.0,0.0,0.0,0.0,0.0,0.0,0.0,0.0,0.0,0.0,0.0,0.0,0.0,0.0,0.0,0.0,0.0,0.0,0.0,0.0,0.0,0.0,0.0,0.0,0.0,0.0,0.0,0.0,0.0,0.0,0.0,0.0,0.0,0.0,0.0,0.0,0.0,0.0,0.0,0.0,0.0,0.0,0.0,0.0,0.0,0.0,0.0,0.0,0.0,0.0,0.0,0.0,0.0,0.0,0.0,0.0,0.0,0.0,0.0,0.0,0.0,-3.7266,-3.9521,-3.9321,-3.64,-3.5379,-3.3968,0.0,0.0,0.0,0.0,0.0,0.0,0.0,0.0,0.0,0.0,0.0,0.0,0.0,0.0,0.0,0.0,0.0,0.0,0.0,0.0,0.0,0.0,0.0,0.0,0.0,0.0,0.0,0.0,0.0,0.0,0.0,0.0,0.0,0.0,0.0,0.0,0.0,0.0,0.0,0.0,0.0,0.0,0.0,0.0,0.0,0.0,0.0,0.0,0.0,0.0,0.0,0.0,0.0,0.0,0.0,0.0,0.0,0.0,0.0,0.0,0.0,0.0,0.0,0.0,0.0,0.0,0.0,0.0,0.0,0.0,0.0,0.0,0.0,0.0,0.0,0.0,0.0,0.0,0.0,0.0,0.0,0.0,0.0,0.0,0.0,0.0,0.0,0.0,0.0,0.0,0.0,0.0,0.0,0.0,0.0,0.0,0.0,0.0,0.0,0.0,0.0,0.0,0.0,0.0,0.0,0.0,0.0,0.0,-3.7524,-3.879,-4.1898,-4.2174,-3.9364,-3.7581,-3.5579,0.0,0.0,0.0,0.0,0.0,0.0,0.0,0.0,0.0,0.0,0.0,0.0,0.0,0.0,0.0,0.0,0.0,0.0,0.0,0.0,0.0,0.0,0.0,0.0,0.0,0.0,0.0,0.0,0.0,0.0,0.0,0.0,0.0,0.0,0.0,0.0,0.0,0.0,0.0,0.0,0.0,0.0,0.0,0.0,0.0,0.0,0.0,0.0,0.0,0.0,0.0,0.0,0.0,0.0,0.0,0.0,0.0,0.0,0.0,0.0,0.0,0.0,0.0,0.0,0.0,0.0,0.0,0.0,0.0,0.0,0.0,0.0,0.0,0.0,0.0,0.0,0.0,0.0,0.0,0.0,0.0,0.0,0.0,0.0,0.0,0.0,0.0,0.0,0.0,0.0,0.0,0.0,0.0,0.0,0.0,0.0,0.0,0.0,0.0,0.0,0.0,0.0,0.0,0.0,0.0,0.0,0.0,0.0,-3.8827,-3.9764,-4.2794,-4.3931,-4.2958,-3.9996,-3.7089,0.0,0.0,0.0,0.0,0.0,0.0,0.0,0.0,0.0,0.0,0.0,0.0,0.0,0.0,0.0,0.0,0.0,0.0,0.0,0.0,0.0,0.0,0.0,0.0,0.0,0.0,0.0,0.0,0.0,0.0,0.0,0.0,0.0,0.0,0.0,0.0,0.0,0.0,0.0,0.0,0.0,0.0,0.0,0.0,0.0,0.0,0.0,0.0,0.0,0.0,0.0,0.0,0.0,0.0,0.0,0.0,0.0,0.0,0.0,0.0,0.0,0.0,0.0,0.0,0.0,0.0,0.0,0.0,0.0,0.0,0.0,0.0,0.0,0.0,0.0,0.0,0.0,0.0,0.0,0.0,0.0,0.0,0.0,0.0,0.0,0.0,0.0,0.0,0.0,0.0,0.0,0.0,0.0,0.0,0.0,0.0,0.0,0.0,0.0,0.0,0.0,0.0,0.0,0.0,0.0,0.0,0.0,0.0,-3.9111,-4.0682,-4.3027,-4.3818,-4.2941,-3.9477,-3.6917,0.0,0.0,0.0,0.0,0.0,0.0,0.0,0.0,0.0,0.0,0.0,0.0,0.0,0.0,0.0,0.0,0.0,0.0,0.0,0.0,0.0,0.0,0.0,0.0,0.0,0.0,0.0,0.0,0.0,0.0,0.0,0.0,0.0,0.0,0.0,0.0,0.0,0.0,0.0,0.0,0.0,0.0,0.0,0.0,0.0,0.0,0.0,0.0,-2.723,0.0,0.0,0.0,0.0,0.0,0.0,0.0,0.0,0.0,0.0,0.0,0.0,0.0,0.0,0.0,0.0,0.0,0.0,0.0,0.0,0.0,0.0,0.0,0.0,0.0,0.0,0.0,0.0,0.0,0.0,0.0,0.0,0.0,0.0,0.0,0.0,0.0,0.0,0.0,0.0,0.0,0.0,0.0,0.0,0.0,0.0,0.0,0.0,0.0,0.0,0.0,0.0,0.0,0.0,0.0,0.0,0.0,0.0,0.0,-3.9301,-4.0997,-4.2726,-4.3582,-4.3397,-4.0113,-3.7673,0.0,0.0,0.0,0.0,0.0,0.0,0.0,0.0,0.0,0.0,0.0,0.0,0.0,0.0,0.0,0.0,0.0,0.0,0.0,0.0,0.0,0.0,0.0,0.0,0.0,0.0,0.0,0.0,0.0,0.0,0.0,0.0,0.0,0.0,0.0,0.0,0.0,0.0,0.0,0.0,0.0,0.0,0.0,0.0,0.0,0.0,0.0,0.0,0.0,0.0,0.0,0.0,0.0,0.0,0.0,0.0,0.0,0.0,0.0,0.0,0.0,0.0,0.0,0.0,0.0,0.0,0.0,0.0,0.0,0.0,0.0,0.0,0.0,0.0,0.0,0.0,0.0,0.0,0.0,0.0,0.0,0.0,0.0,0.0,0.0,0.0,0.0,0.0,0.0,0.0,0.0,0.0,0.0,0.0,0.0,0.0,0.0,0.0,0.0,0.0,0.0,0.0,0.0,0.0,0.0,0.0,0.0,-3.7517,-3.9487,-4.1142,-4.2327,-4.3272,-4.3925,-4.1071,-3.8773,-3.7246,0.0,0.0,0.0,0.0,0.0,0.0,0.0,0.0,0.0,0.0,0.0,0.0,0.0,0.0,0.0,0.0,0.0,0.0,0.0,0.0,0.0,0.0,0.0,0.0,0.0,0.0,0.0,0.0,0.0,0.0,0.0,0.0,0.0,0.0,0.0,0.0,0.0,0.0,-3.2214,-3.3212,0.0,0.0,0.0,0.0,0.0,0.0,0.0,0.0,-3.2439,0.0,0.0,0.0,0.0,0.0,0.0,0.0,0.0,0.0,0.0,0.0,0.0,0.0,0.0,0.0,0.0,0.0,0.0,0.0,0.0,0.0,0.0,0.0,0.0,0.0,0.0,0.0,0.0,0.0,0.0,0.0,0.0,0.0,0.0,0.0,0.0,0.0,0.0,0.0,0.0,0.0,0.0,0.0,0.0,0.0,0.0,0.0,0.0,0.0,0.0,0.0,0.0,0.0,0.0,0.0,0.0,-3.6246,-3.77,-3.9587,-4.1942,-4.2389,-4.2754,-4.3032,-4.129,-3.9669,-3.8239,0.0,0.0,0.0,0.0,0.0,0.0,0.0,0.0,0.0,0.0,0.0,0.0,0.0,0.0,0.0,0.0,0.0,0.0,0.0,0.0,0.0,0.0,0.0,0.0,0.0,0.0,0.0,0.0,0.0,0.0,0.0,0.0,0.0,0.0,0.0,0.0,0.0,0.0,0.0,-3.7293,-3.7571,0.0,0.0,0.0,0.0,0.0,0.0,0.0,0.0,-3.595,0.0,0.0,0.0,0.0,0.0,0.0,0.0,0.0,0.0,0.0,0.0,0.0,0.0,0.0,0.0,0.0,0.0,0.0,0.0,0.0,0.0,0.0,0.0,0.0,0.0,0.0,0.0,0.0,0.0,0.0,0.0,0.0,0.0,0.0,0.0,0.0,0.0,0.0,0.0,0.0,0.0,0.0,0.0,0.0,0.0,0.0,0.0,0.0,0.0,0.0,0.0,0.0,0.0,0.0,0.0,-3.7705,-3.8728,-4.0356,-4.261,-4.2549,-4.2711,-4.3204,-4.1323,-3.99,0.0,0.0,0.0,0.0,0.0,0.0,0.0,0.0,0.0,0.0,0.0,0.0,0.0,0.0,0.0,0.0,0.0,0.0,0.0,0.0,0.0,0.0,0.0,0.0,0.0,0.0,0.0,0.0,0.0,0.0,0.0,0.0,0.0,0.0,0.0,0.0,0.0,0.0,0.0,0.0,-3.9851,-4.0417,-4.1763,0.0,0.0,0.0,0.0,0.0,0.0,-3.8284,-3.797,0.0,0.0,0.0,0.0,0.0,0.0,0.0,0.0,0.0,0.0,0.0,0.0,0.0,0.0,0.0,0.0,0.0,0.0,0.0,0.0,0.0,0.0,0.0,0.0,0.0,0.0,0.0,0.0,0.0,0.0,0.0,0.0,0.0,0.0,0.0,0.0,0.0,0.0,0.0,0.0,0.0,0.0,0.0,0.0,0.0,0.0,0.0,0.0,0.0,0.0,0.0,0.0,0.0,0.0,0.0,-3.8883,-3.971,-4.1073,-4.2968,-4.2749,-4.2812,-4.331,-4.1104,-3.9708,0.0,0.0,0.0,0.0,0.0,0.0,0.0,0.0,0.0,0.0,0.0,0.0,0.0,0.0,0.0,0.0,0.0,0.0,0.0,0.0,0.0,0.0,0.0,0.0,0.0,0.0,0.0,0.0,0.0,0.0,0.0,0.0,0.0,0.0,0.0,0.0,0.0,0.0,0.0,0.0,0.0,-4.2813,-4.4772,-4.3465,0.0,0.0,0.0,0.0,-3.9864,-4.012,0.0,0.0,0.0,0.0,0.0,0.0,0.0,0.0,0.0,0.0,0.0,0.0,0.0,0.0,0.0,0.0,0.0,0.0,0.0,0.0,0.0,0.0,0.0,0.0,0.0,0.0,0.0,0.0,0.0,0.0,0.0,0.0,0.0,0.0,0.0,0.0,0.0,0.0,0.0,0.0,0.0,0.0,0.0,0.0,0.0,0.0,0.0,0.0,0.0,0.0,0.0,0.0,0.0,0.0,0.0,0.0,-3.8755,-3.9885,-4.1174,-4.269,-4.2962,-4.294,-4.2548,-4.0362,-3.901,0.0,0.0,0.0,0.0,0.0,0.0,0.0,0.0,0.0,0.0,0.0,0.0,0.0,0.0,0.0,0.0,0.0,0.0,0.0,0.0,0.0,0.0,0.0,0.0,0.0,0.0,0.0,0.0,0.0,0.0,0.0,0.0,0.0,0.0,0.0,0.0,0.0,0.0,0.0,0.0,0.0,-4.4419,-4.6052,-4.4965,-4.3568,0.0,0.0,-4.2697,-4.1538,-4.2824,0.0,0.0,0.0,0.0,0.0,0.0,0.0,0.0,0.0,0.0,0.0,0.0,0.0,0.0,0.0,0.0,0.0,0.0,0.0,0.0,0.0,0.0,0.0,0.0,0.0,0.0,0.0,0.0,0.0,0.0,0.0,0.0,0.0,0.0,0.0,0.0,0.0,0.0,0.0,0.0,0.0,0.0,0.0,0.0,0.0,0.0,0.0,0.0,0.0,0.0,0.0,0.0,0.0,0.0,0.0,-3.7566,-3.9451,-4.0673,-4.1905,-4.3033,-4.3066,-4.2732,-4.2032,-4.0031,-3.8768,0.0,0.0,0.0,0.0,0.0,0.0,0.0,0.0,0.0,0.0,0.0,0.0,0.0,0.0,0.0,0.0,0.0,0.0,0.0,0.0,0.0,0.0,0.0,0.0,0.0,0.0,0.0,0.0,0.0,0.0,0.0,0.0,0.0,0.0,0.0,0.0,0.0,0.0,0.0,0.0,0.0,0.0,-4.7537,-4.6725,0.0,0.0,0.0,-4.3978,-4.2714,0.0,0.0,0.0,0.0,0.0,0.0,0.0,0.0,0.0,0.0,0.0,0.0,0.0,0.0,0.0,0.0,0.0,0.0,0.0,0.0,0.0,0.0,0.0,0.0,0.0,0.0,0.0,0.0,0.0,0.0,0.0,0.0,0.0,0.0,0.0,0.0,0.0,0.0,0.0,0.0,0.0,0.0,0.0,0.0,0.0,0.0,0.0,0.0,0.0,0.0,0.0,0.0,0.0,0.0,0.0,0.0,0.0,-3.9669,-4.106,-4.2161,-4.3006,-4.296,-4.2501,-4.1639,-3.982,0.0,0.0,0.0,0.0,0.0,0.0,0.0,0.0,0.0,0.0,0.0,0.0,0.0,0.0,0.0,0.0,0.0,0.0,0.0,0.0,0.0,0.0,0.0,0.0,0.0,0.0,0.0,-3.5512,0.0,0.0,0.0,0.0,0.0,0.0,0.0,0.0,0.0,0.0,0.0,0.0,0.0,0.0,-4.834,-4.851,-4.8163,-4.7862,0.0,0.0,-4.4914,-4.3665,-4.4519,-4.4473,0.0,0.0,0.0,0.0,0.0,0.0,0.0,0.0,0.0,0.0,0.0,0.0,0.0,0.0,0.0,0.0,0.0,0.0,0.0,0.0,0.0,0.0,0.0,0.0,0.0,0.0,0.0,0.0,0.0,0.0,0.0,0.0,0.0,0.0,0.0,0.0,0.0,0.0,0.0,0.0,0.0,0.0,0.0,0.0,0.0,0.0,0.0,0.0,0.0,0.0,0.0,0.0,0.0,0.0,0.0,-3.8801,-4.0484,-4.1576,-4.2083,-4.2503,-4.2356,-4.1596,-3.9743,-3.8513,0.0,0.0,0.0,0.0,0.0,0.0,0.0,0.0,0.0,0.0,0.0,0.0,0.0,0.0,0.0,0.0,0.0,0.0,0.0,0.0,0.0,0.0,0.0,0.0,0.0,0.0,0.0,0.0,0.0,0.0,0.0,0.0,0.0,0.0,0.0,0.0,0.0,0.0,0.0,0.0,0.0,-4.8091,-4.8547,-4.897,-4.9161,0.0,0.0,-4.5544,-4.4483,-4.499,-4.4863,-4.2941,0.0,0.0,0.0,0.0,0.0,0.0,0.0,0.0,0.0,0.0,0.0,0.0,0.0,0.0,0.0,0.0,0.0,0.0,0.0,0.0,0.0,0.0,0.0,0.0,0.0,0.0,0.0,0.0,0.0,0.0,0.0,0.0,0.0,0.0,0.0,0.0,0.0,0.0,0.0,0.0,0.0,0.0,0.0,0.0,0.0,0.0,0.0,0.0,0.0,0.0,0.0,0.0,0.0,-3.8074,-3.9231,-4.008,-4.1137,-4.2394,-4.2021,-4.1693,-4.148,-4.0028,-3.9083,0.0,0.0,0.0,0.0,0.0,0.0,0.0,0.0,0.0,0.0,0.0,0.0,0.0,0.0,0.0,0.0,0.0,0.0,0.0,0.0,0.0,0.0,0.0,0.0,0.0,0.0,0.0,0.0,-3.7211,-3.7896,-3.8681,0.0,0.0,0.0,0.0,0.0,0.0,0.0,0.0,0.0,0.0,-4.8497,-4.8254,-4.8693,0.0,0.0,-4.6823,-4.6048,-4.53,-4.5777,-4.5833,-4.45,-4.4226,0.0,0.0,0.0,0.0,0.0,0.0,0.0,0.0,0.0,0.0,0.0,0.0,0.0,0.0,0.0,0.0,0.0,0.0,0.0,0.0,0.0,0.0,0.0,0.0,0.0,0.0,0.0,0.0,0.0,0.0,0.0,0.0,0.0,0.0,0.0,0.0,0.0,0.0,0.0,0.0,0.0,0.0,0.0,0.0,0.0,0.0,0.0,0.0,0.0,0.0,0.0,0.0,-3.8044,-3.9223,-3.9712,-4.0544,-4.1683,-4.1148,-4.093,-4.0998,-3.9876,-3.9073,0.0,0.0,0.0,0.0,0.0,0.0,0.0,0.0,0.0,0.0,0.0,0.0,0.0,0.0,0.0,0.0,0.0,0.0,0.0,0.0,0.0,0.0,0.0,0.0,0.0,0.0,0.0,0.0,-3.8755,-3.9423,-3.9995,0.0,0.0,0.0,0.0,0.0,0.0,0.0,0.0,0.0,0.0,-4.8433,-4.8176,-4.8671,-4.867,-4.7582,-4.7019,-4.6531,-4.6082,-4.621,-4.6037,-4.5094,0.0,0.0,0.0,0.0,0.0,0.0,0.0,0.0,0.0,0.0,0.0,0.0,0.0,0.0,0.0,0.0,0.0,0.0,0.0,0.0,0.0,0.0,0.0,0.0,0.0,0.0,0.0,0.0,0.0,0.0,-3.3532,0.0,0.0,0.0,0.0,0.0,0.0,0.0,0.0,0.0,0.0,0.0,0.0,0.0,0.0,0.0,0.0,0.0,0.0,0.0,0.0,0.0,0.0,-3.7752,-3.8441,-3.9415,-3.9692,-3.9391,-3.9839,-4.0148,-4.0185,-3.9047,-3.8235,-3.7844,0.0,0.0,0.0,0.0,0.0,0.0,0.0,0.0,0.0,0.0,0.0,0.0,0.0,0.0,0.0,0.0,0.0,0.0,0.0,0.0,0.0,0.0,0.0,0.0,0.0,0.0,-4.0972,-4.0474,-4.0013,0.0,0.0,0.0,0.0,0.0,0.0,0.0,0.0,0.0,0.0,-4.6885,-4.7736,-4.831,-4.9061,-4.9414,-4.9249,-4.8084,-4.7087,-4.6793,-4.6083,-4.5252,0.0,0.0,0.0,0.0,0.0,0.0,0.0,0.0,0.0,0.0,0.0,0.0,0.0,0.0,0.0,0.0,0.0,0.0,0.0,0.0,0.0,0.0,0.0,0.0,0.0,0.0,0.0,-3.4844,-3.4513,0.0,0.0,0.0,0.0,0.0,0.0,0.0,0.0,0.0,0.0,0.0,-3.6229,-3.6125,0.0,0.0,0.0,0.0,0.0,0.0,0.0,0.0,0.0,0.0,0.0,0.0,-3.789,-3.9043,-3.8971,-3.9213,-3.9823,-3.9365,-3.923,-3.9468,-3.9181,-3.855,-3.755,0.0,0.0,0.0,0.0,0.0,0.0,0.0,0.0,0.0,0.0,0.0,0.0,0.0,0.0,0.0,0.0,0.0,0.0,0.0,0.0,0.0,0.0,0.0,0.0,0.0,-4.0868,0.0,0.0,0.0,0.0,0.0,0.0,0.0,0.0,0.0,0.0,0.0,-4.5021,-4.6228,-4.7117,-4.7736,-4.808,-4.8309,-4.8176,0.0,0.0,0.0,0.0,0.0,0.0,0.0,0.0,0.0,0.0,0.0,0.0,0.0,0.0,-4.3973,-4.3625,-4.2358,-4.1429,-4.1862,0.0,0.0,0.0,0.0,0.0,0.0,0.0,0.0,0.0,0.0,0.0,0.0,0.0,0.0,-3.5625,0.0,-3.5302,0.0,0.0,0.0,0.0,0.0,0.0,0.0,0.0,-3.6159,-3.6546,-3.6869,-3.6786,-3.673,0.0,-3.6425,-3.6019,0.0,0.0,0.0,0.0,0.0,0.0,0.0,0.0,-3.7766,-3.8953,-3.8541,-3.8608,-3.9265,-3.8574,-3.8333,-3.8716,-3.8831,-3.8418,-3.7381,-3.7281,-3.7184,0.0,0.0,0.0,0.0,0.0,0.0,0.0,0.0,0.0,0.0,0.0,0.0,0.0,0.0,0.0,0.0,0.0,0.0,0.0,0.0,0.0,0.0,0.0,-4.1678,0.0,0.0,0.0,0.0,0.0,0.0,0.0,0.0,0.0,-4.4466,-4.4721,-4.5357,-4.6541,-4.6897,-4.7315,-4.8062,0.0,0.0,0.0,0.0,0.0,0.0,0.0,-4.7293,-4.6493,-4.6205,-4.5786,-4.5015,-4.4427,-4.4202,-4.446,0.0,0.0,-4.4378,-4.2985,-4.1903,-4.2429,-4.203,-4.1545,-4.1223,-4.1495,-4.1699,0.0,0.0,0.0,0.0,0.0,0.0,0.0,0.0,-3.7577,-3.6646,0.0,-3.5878,0.0,0.0,0.0,0.0,0.0,-3.5956,0.0,0.0,-3.7958,-3.8258,-3.7477,-3.7558,-3.75,-3.7272,-3.6534,-3.6407,-3.6821,-3.6291,0.0,0.0,0.0,0.0,0.0,0.0,-3.7385,-3.8146,-3.8099,-3.7948,-3.7739,-3.7411,-3.7514,-3.7976,-3.8036,-3.7855,-3.7336,-3.7229,-3.7059,-3.6661,-3.756,0.0,0.0,0.0,0.0,0.0,0.0,0.0,0.0,0.0,0.0,0.0,0.0,0.0,0.0,0.0,0.0,0.0,0.0,0.0,0.0,-4.2106,0.0,0.0,0.0,0.0,0.0,0.0,0.0,0.0,0.0,0.0,-4.4445,-4.499,-4.5873,-4.6799,0.0,0.0,0.0,0.0,-4.7065,-4.7983,-4.7959,-4.7765,-4.7548,-4.7327,-4.6749,-4.5703,0.0,0.0,-4.4378,-4.3898,-4.3586,-4.3569,-4.2881,-4.276,-4.471,-4.4139,-4.3484,-4.3644,-4.2873,-4.2499,-4.2552,-4.2381,-4.2415,-3.976,0.0,0.0,0.0,0.0,-3.8107,-3.8118,-3.8405,-3.7834,-3.7376,-3.7017,-3.7211,0.0,0.0,0.0,0.0,0.0,0.0,-3.6494,-3.7044,-3.7461,-3.7882,-3.834,-3.8167,-3.8004,-3.7856,-3.7388,-3.7112,-3.6946,-3.6659,-3.6366,-3.6099,0.0,0.0,0.0,0.0,-3.7135,-3.7653,-3.7442,-3.7424,-3.7685,-3.6896,-3.6755,-3.7352,-3.7263,-3.7313,-3.7402,-3.6584,-3.6413,-3.7033,-3.6099,0.0,0.0,0.0,0.0,0.0,0.0,0.0,0.0,0.0,0.0,0.0,0.0,0.0,0.0,0.0,0.0,0.0,0.0,0.0,-4.2105,-4.1304,-4.1264,0.0,0.0,0.0,0.0,0.0,0.0,0.0,0.0,0.0,-4.3952,-4.5319,-4.6522,0.0,0.0,-4.7425,-4.8384,-4.715,-4.6282,-4.6667,-4.5892,0.0,0.0,-4.5434,-4.5319,-4.476,-4.3993,-4.3511,-4.3563,-4.3045,-4.2715,-4.3048,-4.2877,-4.2946,-4.3477,-4.2688,-4.1952,-4.185,-4.1461,-4.1151,-4.1233,-4.1283,-4.13,-4.069,-4.0055,-3.9172,-3.8851,-3.8884,-3.8346,-3.839,-3.8796,-3.8403,-3.8072,-3.7831,-3.7794,-3.7411,-3.6726,-3.6274,0.0,0.0,0.0,-3.6644,-3.7671,-3.733,-3.7489,-3.799,-3.7585,-3.7261,-3.7045,-3.6719,-3.6556,-3.6496,-3.6218,-3.6007,-3.5893,0.0,0.0,-3.6155,-3.6422,-3.6705,-3.7007,-3.6632,-3.6672,-3.7149,-3.6622,-3.6446,-3.6713,-3.6904,-3.714,-3.7467,-3.6406,-3.6172,-3.7085,-3.5769,-3.564,0.0,0.0,0.0,0.0,0.0,0.0,0.0,0.0,0.0,0.0,0.0,-4.0285,-4.1544,0.0,0.0,0.0,-4.0884,-4.1669,-4.2501,-4.163,0.0,0.0,0.0,0.0,0.0,0.0,0.0,-4.4476,-4.3856,-4.3676,-4.4461,-4.5417,-4.6192,-4.644,-4.648,-4.6705,-4.7499,0.0,-4.544,-4.591,-4.5222,-4.465,-4.4731,-4.4839,-4.4668,-4.4135,-4.3602,-4.3113,-4.3029,-4.2467,-4.2159,-4.2397,-4.2274,-4.2117,-4.2396,-4.1722,-4.1203,-4.1426,-4.0981,-4.0666,-4.0745,-4.0793,-4.0793,-4.1194,-4.0328,-3.9379,-3.9036,-3.9101,-3.9073,-3.8989,-3.8892,-3.9101,-3.872,-3.7951,-3.7931,-3.7511,-3.6749,-3.5761,0.0,-3.7192,-3.6371,-3.6752,-3.8103,-3.7376,-3.6999,-3.6898,-3.6297,-3.581,-3.5508,-3.5168,-3.5243,-3.5691,-3.5279,-3.508,-3.5129,-3.5978,-3.6383,-3.6207,-3.6232,-3.6233,-3.6167,-3.5721,-3.5726,-3.6292,-3.6566,-3.6561,-3.6225,-3.6771,-3.7233,-3.7384,-3.6537,-3.6274,-3.6802,-3.6084,-3.5511,-3.5253,0.0,0.0,0.0,0.0,0.0,0.0,0.0,0.0,0.0,0.0,0.0,0.0,0.0,0.0,0.0,-4.001,0.0,-4.2552,-4.2397,0.0,0.0,0.0,-4.4262,-4.2773,-4.4023,-4.4729,-4.399,0.0,0.0,-4.5227,-4.514,-4.4965,-4.4837,-4.4826,-4.5164,-4.6041,-4.5205,-4.4654,-4.5515,-4.5437,-4.5228,-4.4849,-4.4741,-4.4346,-4.3645,-4.3664,-4.3258,-4.2616,-4.2003,-4.1722,-4.1595,-4.1142,-4.0775,-4.1041,-4.1041,-4.1198,-4.1626,-4.1254,-4.0793,-4.0888,-4.0849,-4.0797,-4.0381,-3.9544,-3.911,-3.895,-3.9007,-3.8921,-3.8833,-3.8851,-3.8989,-3.8998,-3.8947,-3.9018,-3.8525,-3.7646,-3.6647,-3.6316,-3.6515,-3.6204,-3.6285,-3.6673,-3.6509,-3.6358,-3.6298,-3.6103,-3.5859,-3.5551,-3.5238,-3.5084,-3.5101,-3.4869,-3.4942,-3.5331,-3.5716,-3.5473,-3.473,-3.5969,-3.621,-3.5321,-3.523,-3.5248,-3.5332,-3.6268,-3.6609,-3.6276,-3.6798,-3.7024,-3.6868,-3.6572,-3.646,-3.6563,-3.4757,-3.4565,-3.6476,-3.7076,0.0,0.0,0.0,0.0,0.0,0.0,0.0,0.0,0.0,-4.2454,-4.3952,0.0,-4.246,0.0,-3.9802,-3.9301,-4.0821,-4.0327,0.0,0.0,-4.2075,-4.2198,-4.1809,-4.1715,-4.1801,-4.2172,-4.1736,-4.1745,-4.2545,-4.259,-4.2523,-4.247,-4.4453,-4.5965,-4.6116,-4.5258,-4.4583,-4.4581,-4.4049,-4.348,-4.3286,-4.2987,-4.2714,-4.2526,-4.2113,-4.1649,-4.1198,-4.0774,-4.0353,-3.9886,-3.9713,-3.9861,-4.0269,-3.9948,-3.9905,-4.0405,-4.081,-4.1088,-4.1029,-4.0608,-4.0429,-4.0083,-3.9272,-3.9036,-3.8939,-3.8997,-3.891,-3.8803,-3.8803,-3.8989,-3.8951,-3.8686,-3.8434,-3.7792,-3.6863,-3.6274,-3.6122,-3.626,-3.5834,-3.5813,-3.6135,-3.5834,-3.5593,-3.5447,-3.5148,-3.4818,-3.4474,-3.4253,-3.4052,-3.3898,-3.4129,-3.4234,-3.4228,-3.5151,-3.5046,-3.4086,-3.553,-3.6138,-3.5864,-3.5972,-3.5884,-3.5599,-3.6376,-3.6821,-3.6876,-3.7071,-3.7369,-3.7743,-3.7351,-3.7294,-3.7594,-3.606,-3.574,-3.7033,-3.7681,-3.8478,0.0,0.0,0.0,0.0,0.0,0.0,0.0,0.0,0.0,0.0,0.0,-4.2687,-4.2146,-3.9937,-3.9314,-4.1237,-4.0651,-4.0529,-4.1449,-4.1582,-4.1371,-4.0774,-4.0739,-4.0778,-4.0783,-4.0484,-4.0428,-4.0782,-4.111,-4.1278,-4.1256,-4.2928,-4.4272,-4.4506,-4.4005,-4.3684,-4.3871,-4.3087,-4.223,-4.1715,-4.1432,-4.1217,-4.1055,-4.0789,-4.0521,-4.0116,-3.9961,-3.9736,-3.9375,-3.9364,-3.9445,-3.9678,-3.9468,-3.9336,-3.966,-4.0071,-4.0289,-4.0145,-3.977,-3.9648,-3.997,-3.929,-3.8989,-3.8939,-3.8997,-3.8939,-3.8881,-3.8833,-3.898,-3.8596,-3.7846,-3.7143,-3.6352,-3.5516,-3.5324,-3.5528,-3.5984,-3.5266,-3.5238,-3.5805,-3.5174,-3.4759,-3.4557,-3.3962,-3.3484,-3.3117,-3.3011,-3.2834,-3.269,-3.3346,-3.3395,-3.2934,-3.4465,-3.4818,-3.3972,-3.4992,-3.6004,-3.6892,-3.7153,-3.6997,-3.6486,-3.684,-3.729,-3.7736,-3.7579,-3.794,-3.8962,-3.8335,-3.828,-3.8895,-3.8173,-3.754,-3.71,-3.8402,-3.8848,0.0,-3.9357,0.0,0.0,0.0,0.0,0.0,0.0,0.0,0.0,-4.2323,-4.2146,-4.1875,-4.028,-4.0104,-4.2087,-4.1661,-4.1263,-4.1398,-4.1474,-4.1031,-3.9895,-4.041,-4.0632,-3.9857,-3.975,-3.9702,-3.9765,-4.0196,-4.0506,-4.0588,-4.0855,-4.1419,-4.2082,-4.2226,-4.2466,-4.3094,-4.2356,-4.1415,-4.0745,-4.04,-4.0177,-3.9889,-3.9904,-3.9743,-3.937,-3.9376,-3.9381,-3.9194,-3.8982,-3.9012,-3.9135,-3.8989,-3.8883,-3.9076,-3.9111,-3.901,-3.9025,-3.8868,-3.8712,-3.95,-3.9272,-3.8989,-3.8939,-3.8997,-3.8979,-3.8979,-3.8942,-3.8441,-3.7904,-3.7268,-3.6368,-3.5848,-3.5595,-3.4803,-3.4531,-3.4667,-3.4445,-3.4414,-3.4562,-3.426,-3.4045,-3.389,-3.3688,-3.3491,-3.3262,-3.3232,-3.3152,-3.3024,-3.3185,-3.3316,-3.3524,-3.3918,-3.4168,-3.4307,0.0,0.0,0.0,-3.7299,-3.7368,-3.7232,-3.8072,-3.8507,-3.8542,-3.8377,0.0,-3.859,-3.8459,-3.8368,-3.8349,-3.7737,0.0,0.0,0.0,0.0,0.0,0.0,0.0,0.0,0.0,0.0,0.0,-4.186,-4.2658,-4.2347,-4.2178,-4.1795,-4.1155,-4.0637,-4.0224,-4.0026,-3.996,-3.9885,-3.9911,-3.997,-3.989,-3.9639,-3.9825,-3.9873,-3.975,-3.9214,-3.9082,-3.9519,-3.927,-3.9118,-3.9447,-3.9115,-3.9061,-3.9714,-4.0744,-4.1411,-4.133,-4.0977,-4.0727,-4.0528,-4.033,-4.0057,-4.0065,-3.9932,-3.9551,-3.8866,-3.8624,-3.8394,-3.7842,-3.7188,-3.7223,-3.8263,-3.7531,-3.7069,-3.8232,-3.791,-3.7755,-3.8821,-3.8576,-3.8367,-3.8852,0.0,-3.8961,-3.8841,0.0,-3.8442,-3.8275,-3.7966,-3.8018,-3.7486,-3.649,-3.5533,-3.5109,-3.5067,-3.4521,-3.4245,-3.4197,-3.4216,-3.4173,-3.4099,-3.4023,-3.3895,-3.3698,-3.3698,-3.3567,-3.3274,-3.2877,-3.2835,-3.3081,-3.2799,-3.2929,-3.3512,-3.3606,-3.3725,-3.391,-3.3949,-3.4847,-3.6643,-3.679,-3.7088,-3.7512,-3.7546,-3.7879,-3.847,0.0,0.0,0.0,0.0,0.0,0.0,0.0,0.0,0.0,0.0,0.0,-3.7039,-3.7764,-3.8164,-3.8053,-3.8305,-3.8471,-3.8305,-3.9286,-4.0479,-4.1692,-4.082,-4.0228,-4.0209,-3.9727,-3.938,-3.9317,-3.938,-3.9469,-3.9495,-3.9552,-3.9564,-3.9588,-3.9364,-3.9165,-3.9075,-3.848,-3.8161,-3.8411,-3.8146,-3.7947,-3.8115,-3.7766,-3.7578,-3.8021,-3.9221,-4.0031,-3.9804,-3.9674,-3.9264,-3.8507,-3.864,-3.8808,-3.8669,-3.8887,-3.8708,-3.7864,-3.7613,-3.7254,-3.6452,-3.5864,-3.5899,-3.6412,-3.5966,-3.57,-3.6332,-3.6224,-3.6078,-3.6821,-3.7189,-3.7493,-3.8131,-3.8078,-3.8581,-3.8409,-3.7734,-3.7734,-3.7373,-3.6788,0.0,0.0,0.0,-3.4839,-3.4476,-3.4536,-3.434,-3.4245,-3.4148,-3.4173,-3.4148,-3.4049,-3.4074,-3.3947,-3.3707,-3.3606,-3.3414,-3.3099,-3.2322,-3.2238,-3.2757,-3.2288,-3.2335,-3.294,-3.3219,-3.3291,-3.3234,-3.3194,-3.4032,-3.5689,-3.5965,-3.6446,-3.7226,-3.6636,-3.6876,-3.7945,-3.7386,-3.7631,-3.8757,-3.8158,-3.7804,-3.78,-3.7815,-3.7412,-3.6592,-3.7178,-3.7169,-3.6272,-3.6996,-3.7037,-3.6107,-3.6526,-3.685,-3.6795,-3.6902,-3.8018,-4.0428,-3.9094,-3.8423,-3.9038,-3.8415,-3.8203,-3.8753,-3.8925,-3.902,-3.9096,-3.9113,-3.9124,-3.9209,-3.8754,-3.8367,-3.8291,-3.7671,-3.7218,-3.7284,-3.713,-3.7049,-3.7009,-3.6873,-3.6628,-3.6745,-3.771,-3.8467,-3.8339,-3.8267,-3.7717,-3.662,-3.665,-3.6947,-3.7003,-3.7424,-3.75,-3.6811,-3.6512,-3.6159,-3.5523,-3.5116,-3.5029,-3.496,-3.4889,-3.4783,-3.4836,-3.4835,-3.4799,-3.4849,-3.5671,-3.6396,-3.7414,-3.7325,-3.7309,-3.7237,-3.7125,-3.7125,-3.6752,-3.6158,-3.6077,-3.5634,-3.4938,-3.4573,-3.4473,-3.458,-3.4316,-3.4269,-3.4358,-3.4245,-3.4203,-3.4245,-3.4099,-3.3939,-3.3743,-3.2985,-3.2566,-3.2475,-3.171,-3.1435,-3.1605,-3.1539,-3.1583,-3.1759,-3.2371,-3.2692,-3.2538,-3.2446,-3.2824,-3.38,-3.4877,-3.5465,-3.5557,-3.6438,-3.6949,-3.7128,-3.699,-3.7033,-3.7293,-3.7137,-3.706,-3.7055,-3.71,-3.6569,-3.5373,-3.5479,-3.4995,-3.3771,-3.4082,-3.4283,-3.4128,-3.5213,-3.6269,-3.7077,-3.6578,-3.6661,-3.7724,-3.7521,-3.7333,-3.7418,-3.7296,-3.7162,-3.7243,-3.7416,-3.7573,-3.757,-3.7599,-3.7624,-3.7718,-3.765,-3.7558,-3.7478,-3.6838,-3.6632,-3.7048,-3.6707,-3.6534,-3.6882,-3.6418,-3.6013,-3.5912,-3.6284,-3.6703,-3.6823,-3.6683,-3.6439,-3.608,-3.6168,-3.6158,-3.5942,-3.6069,-3.62,-3.5822,-3.5702,-3.558,-3.5375,-3.4733,-3.4523,-3.4902,-3.4531,-3.4356,-3.4694,-3.4783,-3.473,-3.4659,-3.4995,-3.508,-3.6747,-3.6684,-3.7074,-3.6971,-3.6475,-3.6066,-3.5696,-3.5456,-3.5277,-3.5088,-3.4849,-3.4604,-3.4539,-3.4524,-3.3915,-3.3576,-3.3576,-3.3148,-3.2925,-3.2897,-3.2826,-3.2754,-3.2569,-3.2169,-3.1946,-3.1814,-3.1045,-3.0924,-3.1323,-3.1029,-3.1029,-3.1378,-3.1756,-3.1869,-3.178,-3.1247,-3.113,-3.1455,-3.2419,-3.3716,-3.5363,-3.5198,-3.5421,-3.6202,-3.5903,-3.5884,-3.6274,-3.5814,-3.5539,-3.5549,-3.5557,-3.4889,-3.3478,-3.3918,-3.3552,-3.2133,-3.3122,-3.3421,-3.2548,-3.3687,-3.4864,-3.5885,-3.5642,-3.5568,-3.5967,-3.6379,-3.675,-3.7081,-3.6798,-3.6701,-3.7005,-3.7194,-3.7281,-3.7305,-3.7368,-3.7389,-3.7353,-3.7013,-3.6786,-3.669,-3.6045,-3.5685,-3.6007,-3.5723,-3.559,-3.5871,-3.5546,-3.5251,-3.5011,-3.5192,-3.5541,-3.5866,-3.5853,-3.5505,-3.5119,-3.5376,-3.5465,-3.5319,-3.572,-3.5727,-3.5333,-3.5126,-3.4888,-3.4434,-3.3894,-3.3695,-3.4002,-3.3687,-3.3586,-3.3661,-3.3805,-3.3736,-3.3668,-3.365,-3.3847,-3.6043,-3.597,-3.6654,-3.6539,-3.5796,-3.5211,-3.4945,-3.4983,-3.4908,-3.487,-3.487,-3.4668,-3.4602,-3.4505,-3.3709,-3.3287,-3.311,-3.2455,-3.2061,-3.1974,-3.1853,-3.1733,-3.1579,-3.1431,-3.1267,-3.1078,-3.0368,-3.0354,-3.0814,-3.0438,-3.0549,-3.1188,-3.1146,-3.1121,-3.1121,-3.0374,-2.997,-2.9937,-3.0277,-3.1745,-3.4153,-3.3375,-3.3447,-3.4467,-3.4141,-3.4134,-3.4619,-3.3985,-3.3617,-3.3604,-3.3574,-3.3033,-3.1935,-3.2524,-3.2401,-3.1364,-3.254,-3.2908,-3.1844,-3.2493,-3.3477,-3.447,-3.4528,-3.4604,-3.4927,-3.5515,-3.612,-3.651,-3.6174,-3.6138,-3.6489,-3.6723,-3.688,-3.6881,-3.6939,-3.6882,-3.6939,-3.6443,-3.6043,-3.5969,-3.5418,-3.5039,-3.4983,-3.4964,-3.5002,-3.5022,-3.4869,-3.4728,-3.4561,-3.4564,-3.4813,-3.5032,-3.5175,-3.4895,-3.412,-3.45,-3.4833,-3.477,-3.5238,-3.5182,-3.4731,-3.4517,-3.4266,-3.3658,-3.3316,-3.3212,-3.3096,-3.3033,-3.2955,-3.2998,-3.3016,-3.2894,-3.2847,-3.2601,-3.2873,-3.5324,-3.5202,-3.5354,-3.5245,-3.5134,-3.5076,-3.5001,-3.4908,-3.502,-3.5001,-3.4889,-3.4607,-3.452,-3.4539,-3.412,-3.3894,-3.3863,-3.3184,-3.272,-3.2655,-3.2117,-3.1714,-3.1473,-3.0863,-3.0489,-3.0374,-2.9699,-2.9468,-2.9622,-2.9574,-2.993,-3.0674,-3.0624,-3.0561,-3.0535,-3.0337,-3.0249,-3.0239,-2.9614,-2.9643,-3.0376,-3.1011,-3.141,-3.1608,-3.1536,-3.1492,-3.1801,-3.1411,-3.131,-3.1235,-3.1391,-3.1338,-3.1166,-3.1417,-3.1517,-3.1352,-3.1755,-3.2008,-3.2123,-3.2161,-3.2614,-3.3487,-3.3431,-3.3772,-3.4737,-3.502,-3.5058,-3.5154,-3.5135,-3.5173,-3.5039,-3.523,-3.5437,-3.5529,-3.5524,-3.5422,-3.5589,-3.5449,-3.5356,-3.5308,-3.5162,-3.5089,-3.498,-3.5018,-3.5056,-3.4924,-3.4794,-3.4661,-3.4469,-3.4466,-3.44,-3.445,-3.4456,-3.4386,-3.4105,-3.4092,-3.4238,-3.4115,-3.4062,-3.4119,-3.4028,-3.389,-3.3632,-3.3658,-3.3452,-3.3334,-3.3135,-3.3024,-3.2979,-3.2916,-3.2916,-3.2884,-3.2795,-3.2389,-3.2524,-3.5339,-3.5289,-3.5239,-3.5203,-3.5133,-3.4658,-3.4702,-3.5051,-3.4541,-3.4562,-3.4832,-3.4221,-3.3934,-3.3918,-3.2772,-3.2241,-3.2208,-3.1297,-3.0921,-3.0945,-3.0549,-3.0395,-3.0318,-3.0041,-2.963,-2.9184,-2.8851,-2.8722,-2.8836,-2.9247,-2.9659,-3.0015,-2.9915,-2.9834,-2.9832,-2.9728,-2.964,-2.9576,-2.9263,-2.9245,-2.9586,-3.0241,-3.0901,-3.1372,-3.1359,-3.1352,-3.1371,-3.1232,-3.1154,-3.1137,-3.119,-3.099,-3.0472,-3.0631,-3.0557,-3.0235,-3.0423,-3.1072,-3.2185,-3.1826,-3.1957,-3.2843,-3.2841,-3.3237,-3.4146,-3.4312,-3.452,-3.498,-3.5111,-3.5092,-3.5038,-3.5091,-3.5124,-3.5157,-3.5193,-3.5207,-3.5296,-3.5293,-3.5124,-3.4649,-3.4868,-3.4912,-3.4594,-3.4805,-3.4826,-3.4503,-3.4277,-3.4091,-3.3563,-3.3412,-3.3355,-3.3178,-3.3139,-3.3484,-3.3863,-3.4099,-3.4012,-3.3979,-3.3972,-3.3947,-3.391,-3.3921,-3.3868,-3.3753,-3.3615,-3.3491,-3.3316,-3.3214,-3.3152,-3.3037,-3.3024,-3.3011,-3.2948,-3.2697,-3.2813,-3.5455,-3.5402,-3.5115,-3.4966,-3.4923,-3.404,-3.3995,-3.4404,-3.3805,-3.3834,-3.4203,-3.3336,-3.2958,-3.2806,-3.1713,-3.1222,-3.1091,-3.0282,-2.9907,-2.9907,-2.9624,-2.9492,-2.9513,-2.9512,-2.9212,-2.8726,-2.8689,-2.8559,-2.8465,-2.9139,-2.9495,-2.9345,-2.9419,-2.9474,-2.9472,-2.9375,-2.9314,-2.9251,-2.9251,-2.9202,-2.915,-2.9508,-3.0146,-3.0905,-3.0932,-3.0928,-3.0904,-3.079,-3.0742,-3.0693,-3.0699,-3.0442,-2.9916,-2.9982,-2.9749,-2.9172,-2.927,-2.9906,-3.1186,-3.0765,-3.0985,-3.1984,-3.2017,-3.2336,-3.3225,-3.341,-3.3694,-3.4339,-3.453,-3.4604,-3.516,-3.5193,-3.5209,-3.5226,-3.5051,-3.4932,-3.4975,-3.484,-3.4342,-3.3868,-3.4117,-3.4359,-3.3837,-3.4001,-3.4063,-3.3623,-3.3489,-3.3304,-3.2665,-3.2587,-3.2553,-3.2298,-3.2317,-3.2634,-3.3403,-3.3445,-3.3528,-3.3555,-3.3499,-3.3764,-3.3889,-3.392,-3.4074,-3.3868,-3.378,-3.3671,-3.3491,-3.3393,-3.3087,-3.2853,-3.2679,-3.2505,-3.2181,-3.2217,-3.2102,-3.5547,-3.5355,-3.4537,-3.4249,-3.4199,-3.3254,-3.2852,-3.2996,-3.2809,-3.2764,-3.2724,-3.1946,-3.1527,-3.1588,-3.1751,-3.1972,-3.186,-3.1054,-3.0697,-3.0622,-2.9927,-2.9589,-2.9608,-2.9532,-2.9474,-2.9269,-2.9195,-2.8952,-2.8407,-2.9251,-2.9288,-2.8666,-2.9343,-2.9682,-2.9683,-2.9664,-2.9645,-2.9569,-2.9551,-2.927,-2.8576,-2.8446,-2.8782,-2.9411,-2.9504,-2.9498,-2.9394,-2.9391,-2.9366,-2.9218,-2.9215,-2.9206,-2.9265,-2.9397,-2.9214,-2.8629,-2.857,-2.8608,-2.8794,-2.8879,-2.9531,-3.0852,-3.0709,-3.0874,-3.2438,-3.2355,-3.2428,-3.2825,-3.31,-3.3635,-3.477,-3.4885,-3.4993,-3.5055,-3.4549,-3.4213,-3.4211,-3.3634,-3.309,-3.2955,-3.3019,-3.3094,-3.2905,-3.2745,-3.287,-3.2772,-3.2749,-3.2603,-3.24,-3.2438,-3.2336,-3.2234,-3.2182,-3.2279,-3.2217,-3.2529,-3.2414,-3.2484,-3.2982,-3.3202,-3.339,-3.3555,-3.3759,-3.3843,-3.3556,-3.345,-3.3524,-3.3302,-3.2871,-3.2386,-3.1689,-3.1379,-3.1538,-3.042,-3.0435,-3.5589,-3.5483,-3.4597,-3.425,-3.4096,-3.273,-3.2385,-3.2755,-3.2349,-3.2383,-3.2516,-3.1947,-3.1565,-3.1363,-3.0972,-3.0812,-3.0776,-3.0423,-3.0258,-3.0222,-2.9886,-2.9699,-2.9662,-2.9682,-2.9399,-2.891,-2.8385,-2.799,-2.7913,-2.9078,-2.9641,-2.9432,-2.9657,-2.9808,-2.9792,-2.9808,-2.979,-2.9681,-2.9266,-2.8851,-2.8457,-2.797,-2.7768,-2.7996,-2.8408,-2.8329,-2.7786,-2.8207,-2.8442,-2.8405,-2.7911,-2.8157,-2.9245,-2.9533,-2.8986,-2.7911,-2.8225,-2.856,-2.8577,-2.8673,-2.9228,-3.0288,-3.0274,-3.0585,-3.1531,-3.1732,-3.1953,-3.256,-3.2781,-3.3144,-3.3451,-3.3661,-3.3661,-3.3652,-3.3489,-3.3344,-3.3333,-3.3071,-3.2711,-3.2261,-3.2146,-3.2282,-3.2588,-3.2742,-3.2507,-3.2038,-3.1923,-3.1679,-3.1221,-3.1073,-3.1119,-3.0982,-3.0912,-3.088,-3.0852,-3.1714,-3.2181,-3.2219,-3.2443,-3.2495,-3.2639,-3.2727,-3.2907,-3.2878,-3.2773,-3.2711,-3.2603,-3.2308,-3.1982,-3.1773,-3.1046,-3.073,-3.1011,-3.018,-3.0242,-3.4814,-3.4654,-3.3859,-3.3481,-3.3327,-3.1942,-3.1611,-3.2057,-3.1648,-3.1655,-3.1788,-3.118,-3.0751,-3.059,-3.0041,-2.9765,-2.9775,-2.9882,-2.9972,-2.9991,-2.9924,-2.9874,-2.9857,-2.9855,-2.9555,-2.8971,-2.8161,-2.7522,-2.7157,-2.8353,-2.8879,-2.8666,-2.9174,-2.9328,-2.9122,-2.9344,-2.9382,-2.9011,-2.8482,-2.8105,-2.7786,-2.7239,-2.677,-2.661,-2.7153,-2.7382,-2.6972,-2.7713,-2.7953,-2.7696,-2.7362,-2.7606,-2.8464,-2.9061,-2.8586,-2.7153,-2.7409,-2.7929,-2.819,-2.8335,-2.8903,-2.9988,-3.0161,-3.0472,-3.0949,-3.1087,-3.144,-3.1856,-3.2012,-3.2019,-3.2033,-3.2033,-3.2244,-3.2634,-3.2647,-3.2539,-3.2494,-3.2281,-3.1862,-3.1441,-3.1284,-3.1518,-3.1879,-3.1955,-3.1665,-3.115,-3.1083,-3.0796,-3.0357,-3.0204,-3.0185,-3.0157,-3.0223,-3.0247,-3.0316,-3.0945,-3.1239,-3.1297,-3.1751,-3.1808,-3.1864,-3.1938,-3.1992,-3.1942,-3.1853,-3.176,-3.1552,-3.1238,-3.1097,-3.0974,-3.0509,-3.0051,-3.0145,-3.0142,-2.9981,-3.3228,-3.3132,-3.2193,-3.198,-3.1912,-3.1032,-3.0548,-3.0683,-3.0614,-3.067,-3.0617,-2.9443,-2.9225,-2.9164,-2.9164,-2.9063,-2.9245,-2.9726,-3.0047,-3.0157,-3.0109,-3.0079,-3.0053,-3.0015,-2.9794,-2.9507,-2.8973,-2.7789,-2.6521,-2.7228,-2.7327,-2.6897,-2.8082,-2.837,-2.7502,-2.8305,-2.8309,-2.7752,-2.7555,-2.71,-2.6227,-2.6218,-2.5859,-2.5239,-2.5789,-2.6408,-2.6967,-2.7736,-2.7755,-2.7249,-2.7565,-2.7483,-2.7053,-2.7913,-2.7872,-2.6454,-2.6189,-2.6605,-2.7282,-2.759,-2.8427,-2.966,-3.0118,-3.0256,-3.0333,-3.0368,-3.0465,-3.0574,-3.0629,-3.0579,-3.0629,-3.0709,-3.1237,-3.2461,-3.2088,-3.1727,-3.1576,-3.102,-3.0528,-3.0577,-3.0595,-3.0447,-3.0452,-3.0648,-3.0606,-3.0477,-3.0379,-3.0352,-3.0237,-3.0218,-3.0204,-3.0185,-3.0171,-3.0138,-3.0138,-3.0161,-3.0141,-3.0212,-3.0812,-3.1159,-3.1165,-3.1242,-3.1355,-3.1332,-3.1213,-3.1107,-3.0965,-3.0687,-3.0392,-3.0222,-2.9697,-2.9425,-2.9448,-2.9428,-2.9109,-3.3184,-3.306,-3.2272,-3.1926,-3.182,-3.1009,-3.0651,-3.0623,-3.0578,-3.055,-3.0327,-2.9322,-2.8944,-2.8953,-2.8576,-2.8574,-2.9129,-2.9351,-2.9673,-3.0065,-3.018,-3.0133,-3.009,-3.0104,-2.9499,-2.8484,-2.8145,-2.7452,-2.6676,-2.7146,-2.7412,-2.7374,-2.7665,-2.779,-2.7495,-2.7804,-2.7752,-2.7533,-2.6944,-2.6507,-2.6208,-2.5715,-2.5291,-2.5107,-2.5245,-2.5451,-2.5688,-2.6349,-2.6601,-2.6424,-2.6572,-2.6578,-2.6559,-2.729,-2.7053,-2.572,-2.5961,-2.6303,-2.6664,-2.7252,-2.8036,-2.9117,-2.9808,-3.0174,-3.0207,-3.0209,-3.0259,-3.0328,-3.0455,-3.0509,-3.05,-3.054,-3.0742,-3.1191,-3.1069,-3.0963,-3.0934,-3.0674,-3.0519,-3.052,-3.0521,-3.0511,-3.0481,-3.043,-3.0417,-3.0336,-3.0299,-3.026,-3.0226,-3.0226,-3.0213,-3.0218,-3.0185,-3.0166,-3.0199,-3.0199,-3.0171,-3.0094,-3.0415,-3.0671,-3.0646,-3.0634,-3.0733,-3.0735,-3.062,-3.0504,-3.0348,-3.0174,-2.9922,-2.9647,-2.94,-2.9177,-2.8965,-2.8834,-2.8743,-3.2294,-3.218,-3.1378,-3.1022,-3.093,-3.0093,-2.9931,-3.0168,-3.004,-3.0034,-2.9823,-2.8298,-2.7845,-2.8097,-2.771,-2.7788,-2.829,-2.853,-2.8931,-2.9466,-3.0113,-3.0088,-2.9715,-2.9398,-2.8657,-2.752,-2.7301,-2.6849,-2.6041,-2.6446,-2.6713,-2.6732,-2.7033,-2.7001,-2.6817,-2.7033,-2.7077,-2.6708,-2.6174,-2.5888,-2.5806,-2.5399,-2.5101,-2.5107,-2.5069,-2.5043,-2.5088,-2.5492,-2.5721,-2.5778,-2.5968,-2.6072,-2.591,-2.6526,-2.6464,-2.5545,-2.5558,-2.5945,-2.63,-2.6835,-2.7542,-2.8363,-2.9002,-2.9302,-2.9327,-2.9379,-2.9473,-2.9513,-2.9564,-2.9669,-2.9611,-2.962,-2.9659,-2.9612,-3.0269,-3.052,-3.053,-3.053,-3.054,-3.0549,-3.0567,-3.0586,-3.0549,-3.0501,-3.0492,-3.0428,-3.0371,-3.0336,-3.0273,-3.0247,-3.0215,-3.0221,-3.024,-3.024,-3.0226,-3.0245,-3.0245,-3.0185,-3.02,-3.0255,-3.025,-3.0205,-3.0253,-3.0203,-3.0132,-3.0077,-2.9944,-2.9831,-2.962,-2.9351,-2.9228,-2.9181,-2.9093,-2.8975,-2.8881,-3.0791,-3.0611,-2.9799,-2.9537,-2.944,-2.8625,-2.8709,-2.9239,-2.905,-2.9101,-2.8776,-2.7009,-2.6238,-2.6688,-2.6788,-2.6812,-2.6895,-2.7589,-2.8045,-2.854,-2.9341,-2.9693,-2.9021,-2.8264,-2.7507,-2.6872,-2.6612,-2.614,-2.5495,-2.5485,-2.5262,-2.5552,-2.6132,-2.609,-2.5748,-2.6094,-2.609,-2.5543,-2.5305,-2.5275,-2.5279,-2.5233,-2.5184,-2.5118,-2.5134,-2.5138,-2.5157,-2.5244,-2.5279,-2.5316,-2.5882,-2.5888,-2.5495,-2.5882,-2.5876,-2.5165,-2.5114,-2.5526,-2.606,-2.6416,-2.6816,-2.7555,-2.7896,-2.7819,-2.8071,-2.8164,-2.8222,-2.8278,-2.8252,-2.8198,-2.8264,-2.833,-2.8342,-2.8431,-2.9489,-3.012,-3.0388,-3.0311,-3.0148,-3.0244,-3.0427,-3.0524,-3.043,-3.0432,-3.053,-3.0501,-3.0439,-3.0383,-3.0136,-3.0042,-3.0132,-3.0005,-2.9666,-2.959,-2.9366,-2.9353,-2.9334,-2.9321,-2.9467,-2.966,-2.9927,-2.9981,-2.9747,-2.9683,-2.9805,-2.9735,-2.9569,-2.9495,-2.9476,-2.9433,-2.9332,-2.933,-2.9095,-2.8813,-2.8517,-3.08,-3.0694,-2.9826,-2.9478,-2.9351,-2.8539,-2.8277,-2.8501,-2.8415,-2.8359,-2.8171,-2.7084,-2.6489,-2.6695,-2.6165,-2.6217,-2.6689,-2.6986,-2.7523,-2.8051,-2.8419,-2.8584,-2.8164,-2.741,-2.6887,-2.6594,-2.6107,-2.5657,-2.5459,-2.5422,-2.5418,-2.5365,-2.5562,-2.5543,-2.5329,-2.5472,-2.5472,-2.528,-2.5222,-2.5233,-2.5273,-2.5262,-2.5261,-2.5261,-2.5302,-2.5303,-2.5313,-2.5331,-2.562,-2.6041,-2.565,-2.5734,-2.5963,-2.5741,-2.5435,-2.5249,-2.5184,-2.5233,-2.5558,-2.6087,-2.655,-2.6822,-2.7358,-2.7853,-2.7855,-2.7556,-2.7666,-2.7854,-2.7787,-2.7667,-2.8016,-2.81,-2.8327,-2.8897,-2.8849,-2.8807,-2.8912,-2.8776,-2.876,-2.8799,-2.9358,-2.9656,-2.9811,-3.0141,-3.0444,-3.0421,-3.0327,-3.0141,-2.9685,-2.9437,-2.9363,-2.8706,-2.8349,-2.8387,-2.8375,-2.8375,-2.8356,-2.8298,-2.8523,-2.8945,-2.9431,-2.995,-2.9532,-2.9188,-2.9723,-2.9806,-2.9468,-2.9226,-2.9289,-2.94,-2.9342,-2.9209,-2.8582,-2.8154,-2.7735,-3.0591,-3.0172,-2.9335,-2.8748,-2.8364,-2.7515,-2.7348,-2.7527,-2.7288,-2.7367,-2.7376,-2.6679,-2.6298,-2.6248,-2.5818,-2.5857,-2.626,-2.6295,-2.6568,-2.6912,-2.7065,-2.7226,-2.7205,-2.6636,-2.6243,-2.6204,-2.577,-2.5582,-2.5549,-2.5543,-2.5525,-2.5492,-2.543,-2.5363,-2.5393,-2.533,-2.5321,-2.534,-2.5321,-2.533,-2.534,-2.5359,-2.535,-2.535,-2.5404,-2.5448,-2.544,-2.5445,-2.5636,-2.5831,-2.5538,-2.5488,-2.5883,-2.5516,-2.5217,-2.522,-2.5231,-2.5212,-2.5288,-2.5721,-2.5962,-2.6071,-2.6593,-2.6795,-2.682,-2.6637,-2.6727,-2.6871,-2.674,-2.6801,-2.6992,-2.7094,-2.7323,-2.7512,-2.7354,-2.7505,-2.8443,-2.839,-2.8151,-2.8228,-2.8507,-2.8863,-2.8863,-2.9363,-2.953,-2.952,-2.9337,-2.9108,-2.882,-2.8655,-2.8409,-2.786,-2.7646,-2.7819,-2.7896,-2.7896,-2.7788,-2.7692,-2.7651,-2.8088,-2.8568,-2.9289,-2.9197,-2.8966,-2.9526,-2.9723,-2.9252,-2.8992,-2.9191,-2.927,-2.9233,-2.8876,-2.8197,-2.765,-2.7216,-3.0131,-2.9413,-2.8483,-2.7663,-2.6973,-2.6112,-2.622,-2.6571,-2.6149,-2.6112,-2.6373,-2.5901,-2.5658,-2.5479,-2.5565,-2.5628,-2.5658,-2.5742,-2.5593,-2.5714,-2.5795,-2.6128,-2.631,-2.6032,-2.5765,-2.5687,-2.558,-2.5522,-2.5498,-2.5517,-2.5527,-2.554,-2.5517,-2.5525,-2.5499,-2.5485,-2.5452,-2.5422,-2.543,-2.5449,-2.5434,-2.5456,-2.5444,-2.543,-2.5471,-2.5524,-2.5505,-2.5511,-2.5515,-2.5341,-2.5303,-2.5351,-2.536,-2.5262,-2.5252,-2.5282,-2.5262,-2.5252,-2.5233,-2.536,-2.538,-2.5486,-2.5492,-2.5426,-2.5684,-2.5777,-2.5818,-2.5936,-2.5632,-2.5812,-2.5839,-2.5722,-2.5995,-2.6244,-2.5972,-2.6826,-2.8287,-2.8366,-2.7835,-2.7874,-2.7848,-2.7971,-2.799,-2.8068,-2.8185,-2.8786,-2.8594,-2.8396,-2.8092,-2.7835,-2.7605,-2.7268,-2.7268,-2.7468,-2.7468,-2.7468,-2.7353,-2.7227,-2.7052,-2.7201,-2.7381,-2.7937,-2.8374,-2.8622,-2.8677,-2.8764,-2.8749,-2.8723,-2.8827,-2.8776,-2.8516,-2.8221,-2.783,-2.7325,-2.6876,-2.9007,-2.9382,-2.7842,-2.7106,-2.6873,-2.6094,-2.58,-2.5913,-2.5765,-2.5405,-2.5161,-2.5431,-2.5269,-2.4736,-2.5314,-2.569,-2.5554,-2.5523,-2.5349,-2.4764,-2.543,-2.5291,-2.5252,-2.5359,-2.566,-2.5547,-2.4943,-2.5054,-2.5392,-2.5164,-2.5017,-2.555,-2.5498,-2.5543,-2.5466,-2.5286,-2.5432,-2.5446,-2.5394,-2.533,-2.5376,-2.5344,-2.535,-2.535,-2.542,-2.551,-2.5587,-2.5579,-2.5523,-2.5459,-2.539,-2.5301,-2.536,-2.5361,-2.5332,-2.5322,-2.5351,-2.537,-2.5361,-2.537,-2.5397,-2.5432,-2.5468,-2.5518,-2.5576,-2.559,-2.5619,-2.5656,-2.5687,-2.5681,-2.5671,-2.5696,-2.5927,-2.6211,-2.6032,-2.6123,-2.7011,-2.6719,-2.6354,-2.6376,-2.6804,-2.7154,-2.7193,-2.7737,-2.7886,-2.8042,-2.7905,-2.7721,-2.7408,-2.7036,-2.6799,-2.655,-2.6513,-2.6621,-2.6602,-2.6621,-2.6612,-2.6574,-2.6477,-2.6381,-2.6557,-2.6833,-2.7377,-2.7535,-2.7537,-2.7704,-2.8131,-2.7839,-2.7834,-2.7803,-2.7792,-2.7353,-2.7004,-2.6691,-2.6358,-2.8146,-2.8129,-2.7215,-2.6649,-2.6222,-2.5412,-2.5068,-2.5076,-2.5098,-2.4843,-2.4567,-2.4935,-2.4816,-2.444,-2.4835,-2.4895,-2.4661,-2.4919,-2.4861,-2.4549,-2.492,-2.5055,-2.5032,-2.5065,-2.5252,-2.5503,-2.5286,-2.5351,-2.5432,-2.523,-2.5297,-2.5538,-2.5266,-2.4977,-2.4876,-2.4572,-2.428,-2.4291,-2.4344,-2.4349,-2.4404,-2.4399,-2.4379,-2.4389,-2.4412,-2.4432,-2.4389,-2.4389,-2.4355,-2.4436,-2.4717,-2.5093,-2.5379,-2.544,-2.5412,-2.5401,-2.5432,-2.5459,-2.544,-2.5459,-2.5448,-2.5499,-2.5511,-2.555,-2.559,-2.5624,-2.5671,-2.5687,-2.5696,-2.5705,-2.5691,-2.5693,-2.6021,-2.6152,-2.5993,-2.5913,-2.6149,-2.5898,-2.5604,-2.5668,-2.6058,-2.6228,-2.6515,-2.7015,-2.6946,-2.6798,-2.6747,-2.6586,-2.6501,-2.6183,-2.6052,-2.5863,-2.5712,-2.5677,-2.5669,-2.5699,-2.5768,-2.579,-2.5821,-2.5764,-2.5832,-2.6126,-2.6469,-2.6651,-2.6905,-2.7361,-2.7642,-2.7258,-2.7024,-2.7305,-2.7204,-2.6591,-2.6226,-2.6216,-2.5721,-2.7176,-2.6403,-2.6403,-2.6022,-2.5342,-2.4635,-2.4388,-2.443,-2.4553,-2.4428,-2.4118,-2.4198,-2.4297,-2.4023,-2.4121,-2.373,-2.3535,-2.3768,-2.4041,-2.3767,-2.4061,-2.4297,-2.4492,-2.4374,-2.4489,-2.5287,-2.503,-2.509,-2.5071,-2.5164,-2.4629,-2.503,-2.4595,-2.4213,-2.4011,-2.3556,-2.3291,-2.3365,-2.3369,-2.3318,-2.3302,-2.3293,-2.3299,-2.3325,-2.3344,-2.3361,-2.3436,-2.3469,-2.3377,-2.3095,-2.3952,-2.463,-2.4994,-2.5473,-2.5517,-2.5499,-2.5498,-2.5517,-2.549,-2.5503,-2.5529,-2.5524,-2.557,-2.5604,-2.5639,-2.5655,-2.5696,-2.5707,-2.5693,-2.5698,-2.57,-2.57,-2.5699,-2.5756,-2.5715,-2.5693,-2.5685,-2.5654,-2.5629,-2.5644,-2.5757,-2.587,-2.5838,-2.6038,-2.5775,-2.5604,-2.5593,-2.5607,-2.5576,-2.557,-2.5596,-2.5596,-2.557,-2.555,-2.5531,-2.5536,-2.5503,-2.5456,-2.5451,-2.5406,-2.5388,-2.56,-2.5967,-2.6213,-2.651,-2.6842,-2.6828,-2.642,-2.6403,-2.6824,-2.6605,-2.5914,-2.5721,-2.5753,-2.5206,-2.5391,-2.462,-2.4632,-2.4574,-2.4506,-2.4335,-2.4218,-2.4514,-2.4893,-2.4124,-2.2607,-2.3685,-2.347,-2.2808,-2.3063,-2.3177,-2.3056,-2.321,-2.2997,-2.2662,-2.2956,-2.3314,-2.3083,-2.328,-2.3456,-2.3515,-2.3632,-2.3652,-2.3495,-2.2886,-2.3387,-2.3482,-2.3413,-2.3327,-2.3286,-2.3121,-2.2861,-2.2767,-2.2806,-2.2828,-2.284,-2.2842,-2.2849,-2.2836,-2.2799,-2.2857,-2.313,-2.3656,-2.3842,-2.3329,-2.4631,-2.4542,-2.4233,-2.4841,-2.5382,-2.5434,-2.5543,-2.5568,-2.5523,-2.5562,-2.5579,-2.5581,-2.56,-2.5629,-2.5668,-2.5703,-2.5691,-2.5697,-2.5699,-2.5701,-2.5702,-2.5702,-2.5702,-2.5702,-2.5702,-2.5702,-2.57,-2.568,-2.5677,-2.5661,-2.5673,-2.5665,-2.5652,-2.566,-2.5648,-2.5615,-2.5605,-2.5595,-2.559,-2.559,-2.5609,-2.5609,-2.5595,-2.5604,-2.5593,-2.5576,-2.5564,-2.5503,-2.5464,-2.5423,-2.5397,-2.5332,-2.5501,-2.5787,-2.5753,-2.5765,-2.5671,-2.5558,-2.5602,-2.5891,-2.5579,-2.5229,-2.53,-2.5355,-2.5186,-2.3788,-2.3423,-2.3485,-2.3547,-2.3494,-2.309,-2.2926,-2.2999,-2.3353,-2.2917,-2.2282,-2.2588,-2.2617,-2.2057,-2.2179,-2.2427,-2.2441,-2.2413,-2.2162,-2.1964,-2.2203,-2.258,-2.2294,-2.2509,-2.2431,-2.2471,-2.2454,-2.2694,-2.3027,-2.2771,-2.2612,-2.2862,-2.2697,-2.2422,-2.2285,-2.1925,-2.1884,-2.1832,-2.185,-2.1869,-2.1842,-2.1842,-2.1847,-2.1831,-2.1851,-2.1813,-2.1891,-2.2104,-2.2199,-2.2037,-2.2945,-2.3313,-2.3581,-2.4118,-2.4955,-2.5005,-2.5379,-2.564,-2.5582,-2.5601,-2.5605,-2.56,-2.5626,-2.5657,-2.5691,-2.5698,-2.5701,-2.5703,-2.5703,-2.5703,-2.5703,-2.5703,-2.5703,-2.5703,-2.5703,-2.5703,-2.5703,-2.5703,-2.5703,-2.57,-2.5697,-2.5691,-2.5698,-2.5687,-2.5675,-2.5644,-2.5609,-2.5604,-2.5619,-2.5619,-2.5624,-2.5619,-2.5619,-2.561,-2.562,-2.5609,-2.5613,-2.557,-2.551,-2.5472,-2.5412,-2.5369,-2.5322,-2.5417,-2.5261,-2.5231,-2.5222,-2.5359,-2.5189,-2.5044,-2.5101,-2.5099,-2.5029,-2.495,-2.4861,-2.2479,-2.2209,-2.2491,-2.2624,-2.2506,-2.1913,-2.1649,-2.1636,-2.1958,-2.1859,-2.1471,-2.1658,-2.1696,-2.153,-2.1504,-2.1543,-2.1535,-2.1523,-2.149,-2.1471,-2.15,-2.194,-2.2145,-2.2008,-2.1538,-2.1557,-2.1557,-2.1901,-2.2224,-2.2266,-2.2479,-2.2262,-2.1753,-2.1554,-2.1434,-2.1061,-2.0617,-2.0579,-2.0599,-2.0601,-2.0603,-2.0604,-2.0605,-2.0605,-2.0605,-2.0684,-2.082,-2.1152,-2.1035,-2.1093,-2.1638,-2.2298,-2.2673,-2.355,-2.4113,-2.4305,-2.5104,-2.5572,-2.567,-2.5646,-2.5625,-2.5633,-2.5689,-2.5696,-2.5701,-2.5703,-2.5703,-2.5701,-2.57,-2.57,-2.57,-2.5699,-2.57,-2.5701,-2.5702,-2.5703,-2.5702,-2.5702,-2.5701,-2.5703,-2.5703,-2.5703,-2.5698,-2.5693,-2.5685,-2.5681,-2.5651,-2.5642,-2.5639,-2.5648,-2.5648,-2.564,-2.5636,-2.5628,-2.5619,-2.5605,-2.5609,-2.5595,-2.5551,-2.5505,-2.5468,-2.5437,-2.5404,-2.535,-2.534,-2.5322,-2.5273,-2.5195,-2.5137,-2.5101,-2.5044,-2.5006,-2.498,-2.4972,-2.4931,-2.1703,-2.0488,-2.1336,-2.1674,-2.1656,-2.157,-2.1604,-2.1701,-2.2275,-2.1868,-2.0698,-2.1277,-2.123,-2.0818,-2.0716,-2.0672,-2.0653,-2.0724,-2.0811,-2.0826,-2.0815,-2.0869,-2.087,-2.0756,-2.0795,-2.0834,-2.0765,-2.0672,-2.1052,-2.1064,-2.0954,-2.0937,-2.1034,-2.0777,-2.0876,-2.0682,-2.0604,-2.0605,-2.0605,-2.0605,-2.0605,-2.0604,-2.0584,-2.0603,-2.0601,-2.0599,-2.0657,-2.101,-2.1126,-2.0719,-2.201,-2.2108,-2.1405,-2.2402,-2.3085,-2.3729,-2.4609,-2.5702,-2.5702,-2.5682,-2.5565,-2.5547,-2.5644,-2.5683,-2.5702,-2.5701,-2.57,-2.57,-2.5699,-2.5697,-2.5694,-2.5694,-2.5694,-2.5694,-2.5694,-2.5697,-2.5698,-2.5699,-2.5698,-2.5696,-2.5698,-2.5702,-2.5703,-2.5703,-2.5701,-2.5699,-2.5696,-2.567,-2.5664,-2.5676,-2.5668,-2.5662,-2.5655,-2.5668,-2.566,-2.5628,-2.5634,-2.5624,-2.5593,-2.5556,-2.5525,-2.5498,-2.5498,-2.5456,-2.5441,-2.5374,-2.5313,-2.5241,-2.5184,-2.5149,-2.513,-2.5069,-2.4993,-2.498,-2.4999,-2.0414,-1.9977,-2.0451,-2.0633,-2.067,-2.0734,-2.0776,-2.0874,-2.1186,-2.1003,-2.0495,-2.0752,-2.0731,-2.0418,-2.0439,-2.0439,-2.0415,-2.042,-2.043,-2.0454,-2.0439,-2.0434,-2.0472,-2.0437,-2.0441,-2.0445,-2.0445,-2.05,-2.0457,-2.0492,-2.0513,-2.0558,-2.0563,-2.0643,-2.0585,-2.0565,-2.0565,-2.0585,-2.0604,-2.0604,-2.0602,-2.0559,-2.0534,-2.0531,-2.0543,-2.0555,-2.065,-2.0787,-2.0937,-2.0628,-2.1399,-2.1596,-2.1555,-2.2381,-2.3127,-2.3254,-2.4707,-2.5593,-2.5694,-2.5658,-2.5422,-2.5226,-2.5364,-2.5698,-2.5696,-2.5694,-2.5693,-2.5691,-2.5691,-2.5689,-2.5705,-2.5703,-2.5701,-2.5701,-2.5705,-2.5705,-2.5689,-2.5693,-2.5693,-2.5689,-2.5687,-2.5693,-2.5696,-2.568,-2.5623,-2.5527,-2.5605,-2.5682,-2.5677,-2.5691,-2.5687,-2.5681,-2.5693,-2.5687,-2.5681,-2.5675,-2.5668,-2.5671,-2.5667,-2.563,-2.5587,-2.555,-2.5556,-2.5531,-2.549,-2.5426,-2.5359,-2.5322,-2.5274,-2.5233,-2.5201,-2.5134,-2.5082,-2.5063,-2.5051,-1.9427,-1.9625,-1.9855,-1.995,-1.992,-1.984,-1.9907,-2.0069,-1.9922,-2.003,-2.0231,-2.0345,-2.0289,-2.0166,-2.021,-2.0334,-2.0328,-2.0346,-2.0352,-2.0352,-2.0352,-2.0371,-2.0369,-2.0394,-2.0374,-2.0383,-2.0399,-2.041,-2.0434,-2.0465,-2.0503,-2.0582,-2.0551,-2.0572,-2.0552,-2.0534,-2.0537,-2.0599,-2.0601,-2.0598,-2.0575,-2.051,-2.0521,-2.0509,-2.051,-2.0515,-2.0508,-2.0546,-2.0523,-2.0562,-2.0593,-2.0915,-2.1324,-2.1799,-2.239,-2.2675,-2.3793,-2.4413,-2.4758,-2.496,-2.4943,-2.4849,-2.4854,-2.5258,-2.5334,-2.5469,-2.5703,-2.5698,-2.5698,-2.5696,-2.5693,-2.569,-2.5693,-2.5696,-2.5698,-2.5693,-2.569,-2.5698,-2.5681,-2.5696,-2.5693,-2.569,-2.5696,-2.5683,-2.557,-2.5418,-2.5482,-2.5643,-2.5586,-2.5507,-2.5524,-2.5483,-2.5636,-2.565,-2.5698,-2.5696,-2.569,-2.5704,-2.5701,-2.5691,-2.5643,-2.561,-2.561,-2.5579,-2.5544,-2.5538,-2.5512,-2.5456,-2.5385,-2.5313,-2.5233,-2.522,-2.5164,-2.5149,-2.5101,-1.9048,-1.9095,-1.96,-1.9809,-1.9764,-1.9153,-1.9306,-1.9857,-1.925,-1.9449,-1.9953,-2.015,-1.9788,-1.9427,-1.9765,-2.0096,-2.0195,-2.02,-2.0169,-2.0158,-2.0223,-2.0246,-2.0268,-2.0288,-2.0308,-2.0354,-2.0328,-2.0379,-2.0463,-2.0388,-2.0439,-2.0492,-2.05,-2.0514,-2.0519,-2.0519,-2.0523,-2.0568,-2.059,-2.0564,-2.0538,-2.0511,-2.0483,-2.048,-2.0488,-2.0504,-2.0511,-2.0478,-2.0493,-2.0483,-2.0473,-2.0487,-2.0822,-2.1133,-2.1565,-2.1904,-2.2474,-2.3052,-2.3412,-2.4062,-2.4397,-2.4427,-2.4453,-2.4559,-2.4734,-2.5359,-2.5612,-2.5687,-2.5687,-2.5687,-2.5687,-2.5687,-2.5681,-2.5681,-2.5681,-2.5675,-2.5675,-2.5681,-2.5684,-2.5697,-2.5687,-2.564,-2.5656,-2.5621,-2.5525,-2.5356,-2.5169,-2.5297,-2.5089,-2.5016,-2.5135,-2.5234,-2.5488,-2.5604,-2.5675,-2.5689,-2.5687,-2.5703,-2.5698,-2.5693,-2.5684,-2.5662,-2.5655,-2.5644,-2.5624,-2.5648,-2.5658,-2.5562,-2.5464,-2.535,-2.5293,-2.5253,-2.5209,-2.5172,-2.5137,-1.8533,-1.8608,-1.8941,-1.9261,-1.955,-1.942,-1.9533,-1.9775,-1.9541,-1.9284,-1.925,-1.9678,-1.9516,-1.904,-1.8945,-1.9447,-1.9711,-1.9345,-1.9583,-1.985,-1.9993,-2.005,-2.0087,-2.0105,-2.0105,-2.0186,-2.0195,-2.0184,-2.0235,-2.026,-2.0334,-2.0371,-2.0439,-2.0488,-2.0503,-2.049,-2.0494,-2.0494,-2.0516,-2.0533,-2.0506,-2.0469,-2.0437,-2.0443,-2.038,-2.0388,-2.0377,-2.0365,-2.0379,-2.0385,-2.0371,-2.0408,-2.0521,-2.0845,-2.1011,-2.1162,-2.1729,-2.2189,-2.2272,-2.2984,-2.3514,-2.3603,-2.3637,-2.3803,-2.4232,-2.5152,-2.5597,-2.5694,-2.5609,-2.5527,-2.5636,-2.5656,-2.5652,-2.5636,-2.5636,-2.5648,-2.5643,-2.5632,-2.5604,-2.5586,-2.5576,-2.5551,-2.556,-2.5554,-2.543,-2.5282,-2.5099,-2.4914,-2.4832,-2.4588,-2.4692,-2.4835,-2.5072,-2.5351,-2.5449,-2.5545,-2.566,-2.5696,-2.5693,-2.5689,-2.5687,-2.5685,-2.5681,-2.5696,-2.5687,-2.5697,-2.566,-2.563,-2.555,-2.5422,-2.5357,-2.5312,-2.5264,-2.5206,-2.5164,-1.8013,-1.8101,-1.8323,-1.8645,-1.9026,-1.8992,-1.9179,-1.9374,-1.8899,-1.859,-1.8192,-1.8885,-1.8998,-1.8591,-1.8775,-1.9063,-1.942,-1.9273,-1.9371,-1.959,-1.979,-1.9855,-1.9888,-1.9931,-1.9991,-2.002,-2.005,-2.006,-2.0087,-2.0133,-2.0195,-2.0258,-2.0321,-2.0396,-2.0473,-2.0463,-2.0428,-2.0409,-2.0433,-2.0476,-2.0448,-2.043,-2.0385,-2.0374,-2.0334,-2.0315,-2.0302,-2.0288,-2.0282,-2.0301,-2.0308,-2.0334,-2.0566,-2.0811,-2.0882,-2.1049,-2.1307,-2.1849,-2.1719,-2.2089,-2.2493,-2.2289,-2.2625,-2.312,-2.3918,-2.4775,-2.5176,-2.5586,-2.5406,-2.5265,-2.5371,-2.5362,-2.5415,-2.5396,-2.5586,-2.562,-2.5593,-2.5568,-2.5531,-2.5486,-2.546,-2.5447,-2.524,-2.5221,-2.5149,-2.4876,-2.4378,-2.4542,-2.5056,-2.4716,-2.4241,-2.4405,-2.4569,-2.4873,-2.5154,-2.5155,-2.5253,-2.5703,-2.5702,-2.5701,-2.57,-2.5699,-2.5694,-2.5707,-2.5701,-2.5693,-2.5681,-2.566,-2.5581,-2.5505,-2.5437,-2.5367,-2.5341,-2.5282,-2.522,-1.7492,-1.7641,-1.7808,-1.8011,-1.8143,-1.763,-1.7968,-1.8625,-1.7539,-1.7024,-1.7252,-1.7909,-1.8149,-1.8172,-1.8467,-1.8836,-1.9041,-1.9109,-1.9279,-1.9423,-1.9393,-1.9557,-1.9713,-1.9774,-1.9816,-1.9915,-1.9907,-1.9901,-1.9983,-2.0021,-2.006,-2.0097,-2.015,-2.0231,-2.0385,-2.0404,-2.0381,-2.0395,-2.04,-2.04,-2.0399,-2.0388,-2.0365,-2.0328,-2.0308,-2.0288,-2.0268,-2.0231,-2.0231,-2.025,-2.0227,-2.025,-2.0417,-2.0415,-2.0448,-2.0502,-2.045,-2.0501,-2.0443,-2.1316,-2.1401,-2.1148,-2.1658,-2.2347,-2.3028,-2.38,-2.4519,-2.4787,-2.46,-2.4652,-2.4794,-2.4845,-2.4878,-2.4917,-2.5046,-2.5059,-2.4949,-2.4916,-2.474,-2.4896,-2.5205,-2.531,-2.5023,-2.4838,-2.4793,-2.4457,-2.3786,-2.3975,-2.4691,-2.435,-2.3603,-2.3848,-2.4014,-2.4383,-2.4631,-2.4653,-2.4853,-2.5366,-2.5701,-2.5702,-2.5703,-2.5703,-2.5703,-2.5677,-2.5693,-2.5691,-2.5703,-2.569,-2.5636,-2.5565,-2.5471,-2.5404,-2.5388,-2.5274,-2.51,-1.6799,-1.6841,-1.7028,-1.7117,-1.7235,-1.787,-1.8269,-1.8466,-1.8092,-1.7712,-1.7529,-1.8086,-1.7745,-1.7329,-1.7293,-1.7776,-1.8075,-1.7016,-1.7164,-1.9139,-1.8923,-1.9115,-1.9351,-1.9526,-1.9609,-1.9668,-1.9656,-1.9663,-1.9726,-1.9811,-1.9881,-1.9907,-1.9982,-2.0105,-2.0246,-2.0308,-2.034,-2.0328,-2.0341,-2.0328,-2.0328,-2.0321,-2.0288,-2.0262,-2.0229,-2.0253,-2.0185,-2.0107,-2.0186,-2.0178,-2.0143,-2.0161,-2.0222,-2.0197,-2.023,-2.0281,-2.0254,-2.0289,-2.033,-2.0682,-2.0681,-2.0706,-2.1117,-2.1734,-2.2158,-2.2876,-2.3411,-2.3661,-2.355,-2.3562,-2.3504,-2.3533,-2.3552,-2.3565,-2.3623,-2.3601,-2.3539,-2.3559,-2.3562,-2.4042,-2.4428,-2.4455,-2.4301,-2.3906,-2.3802,-2.386,-2.3269,-2.3248,-2.3817,-2.3187,-2.2503,-2.3043,-2.3411,-2.384,-2.4131,-2.4235,-2.4403,-2.4825,-2.5338,-2.5694,-2.5696,-2.5481,-2.5447,-2.5293,-2.5507,-2.5681,-2.54,-2.5249,-2.5561,-2.5615,-2.5214,-2.5255,-2.541,-2.5108,-2.4697,-1.6231,-1.6316,-1.6459,-1.6538,-1.6696,-1.7546,-1.7862,-1.7778,-1.792,-1.7732,-1.7486,-1.7784,-1.7769,-1.7134,-1.7046,-1.7205,-1.7773,-1.7128,-1.6658,-1.8667,-1.8588,-1.866,-1.8871,-1.9161,-1.9338,-1.9387,-1.9383,-1.938,-1.9471,-1.9569,-1.9662,-1.9732,-1.9821,-1.9931,-2.006,-2.0159,-2.0215,-2.0227,-2.0219,-2.0219,-2.0219,-2.018,-2.0046,-1.9911,-1.9923,-2.006,-1.9892,-1.9915,-2.0108,-2.0069,-2.005,-2.0059,-2.0069,-2.0088,-2.0116,-2.0153,-2.019,-2.0225,-2.0277,-2.0296,-2.0337,-2.03,-2.092,-2.1288,-2.1499,-2.2095,-2.2524,-2.27,-2.2483,-2.2579,-2.2656,-2.2643,-2.2485,-2.2516,-2.2739,-2.2733,-2.2735,-2.2793,-2.3053,-2.3495,-2.3504,-2.3524,-2.3439,-2.3007,-2.2679,-2.2752,-2.2766,-2.2883,-2.3055,-2.2714,-2.2326,-2.2804,-2.3157,-2.3533,-2.3806,-2.3917,-2.4094,-2.4329,-2.467,-2.503,-2.4993,-2.4683,-2.479,-2.4797,-2.4607,-2.4512,-2.4643,-2.4709,-2.4698,-2.4641,-2.4436,-2.4669,-2.5265,-2.4869,-2.4223,-1.5769,-1.6067,-1.6163,-1.6313,-1.6528,-1.6783,-1.6711,-1.6447,-1.6754,-1.6884,-1.684,-1.6958,-1.7075,-1.7818,-1.7999,-1.7992,-1.7912,-1.7915,-1.7895,-1.7887,-1.7974,-1.8059,-1.8252,-1.8608,-1.8933,-1.9097,-1.915,-1.918,-1.9209,-1.9335,-1.9471,-1.9513,-1.9462,-1.9588,-1.9734,-1.9617,-1.9783,-1.9926,-2.0088,-2.0098,-2.0107,-2.0079,-1.9801,-1.9657,-1.9753,-1.9716,-1.9621,-1.9649,-1.9895,-1.9969,-1.9947,-1.9958,-1.9969,-1.999,-1.9981,-2.0001,-2.005,-2.0117,-2.0153,-2.015,-2.0134,-2.0117,-2.0257,-2.0716,-2.1065,-2.1309,-2.1569,-2.1742,-2.1665,-2.1972,-2.2192,-2.1933,-2.1692,-2.1952,-2.2278,-2.2317,-2.2307,-2.2469,-2.2736,-2.2887,-2.2715,-2.263,-2.2458,-2.2086,-2.1723,-2.1914,-2.2077,-2.2383,-2.2686,-2.3427,-2.3114,-2.3149,-2.3391,-2.334,-2.3469,-2.3401,-2.3363,-2.3431,-2.3517,-2.3778,-2.3786,-2.3913,-2.3949,-2.3825,-2.3407,-2.3377,-2.3789,-2.3727,-2.3449,-2.3417,-2.3556,-2.3852,-2.4358,-2.4038,-2.3671,-1.5536,-1.5682,-1.5841,-1.6039,-1.6246,-1.649,-1.6712,-1.6945,-1.71,-1.6965,-1.6576,-1.6657,-1.6404,-1.5632,-1.56,-1.6104,-1.604,-1.5871,-1.6378,-1.6675,-1.6951,-1.7156,-1.7561,-1.8081,-1.8461,-1.8821,-1.8966,-1.9,-1.9016,-1.9115,-1.9191,-1.9283,-1.8822,-1.8971,-1.891,-1.8522,-1.9058,-1.9547,-1.9796,-1.98,-1.9905,-1.9895,-1.9611,-1.9592,-1.9745,-1.9697,-1.9617,-1.9671,-1.9907,-1.9919,-1.9877,-1.9847,-1.9847,-1.9858,-1.9851,-1.9866,-1.9899,-1.996,-1.9931,-1.9991,-2.0,-1.9963,-1.9991,-2.0069,-2.0345,-2.0525,-2.0648,-2.079,-2.0836,-2.1037,-2.1135,-2.0946,-2.0842,-2.1032,-2.1261,-2.1232,-2.123,-2.1314,-2.1627,-2.1915,-2.1744,-2.1793,-2.1602,-2.1107,-2.0812,-2.1089,-2.1386,-2.1759,-2.2258,-2.2997,-2.3389,-2.334,-2.3086,-2.2894,-2.2733,-2.2636,-2.2557,-2.2522,-2.259,-2.2756,-2.3067,-2.3182,-2.3116,-2.2923,-2.2611,-2.2802,-2.32,-2.2949,-2.2538,-2.2691,-2.2855,-2.3124,-2.3283,-2.3012,-2.3024,-1.5209,-1.5329,-1.5536,-1.5741,-1.5924,-1.612,-1.6416,-1.6767,-1.6759,-1.6558,-1.6354,-1.6146,-1.5644,-1.5153,-1.5088,-1.5314,-1.5733,-1.5362,-1.5453,-1.5608,-1.5708,-1.6338,-1.6935,-1.7503,-1.8093,-1.8485,-1.8753,-1.8807,-1.8771,-1.8642,-1.8651,-1.9024,-1.8164,-1.8173,-1.8339,-1.8167,-1.8233,-1.8802,-1.9174,-1.9179,-1.9276,-1.9503,-1.9536,-1.9273,-1.9492,-1.9687,-1.9511,-1.9594,-1.9786,-1.9813,-1.9757,-1.9732,-1.9745,-1.977,-1.9782,-1.9811,-1.9804,-1.9828,-1.9839,-1.9885,-1.9847,-1.9818,-1.9842,-1.9884,-1.9896,-2.0017,-2.004,-2.0089,-2.0002,-1.9945,-1.9949,-1.9952,-1.9968,-2.0002,-1.9976,-1.9949,-1.9957,-1.9976,-2.0301,-2.0713,-2.0869,-2.0986,-2.072,-2.0196,-2.011,-2.069,-2.1051,-2.1248,-2.1787,-2.2462,-2.2812,-2.289,-2.2556,-2.2246,-2.2072,-2.1898,-2.1926,-2.1791,-2.159,-2.182,-2.2244,-2.2168,-2.1857,-2.1862,-2.1909,-2.2062,-2.2153,-2.2007,-2.1758,-2.1914,-2.1931,-2.194,-2.2088,-2.2157,-2.2322,-1.4842,-1.4982,-1.5208,-1.5389,-1.5594,-1.5606,-1.5834,-1.6111,-1.5842,-1.5798,-1.5814,-1.5397,-1.5093,-1.4724,-1.4749,-1.4975,-1.5136,-1.4922,-1.4691,-1.4795,-1.5158,-1.5661,-1.6167,-1.6782,-1.7223,-1.7946,-1.8404,-1.8374,-1.843,-1.8253,-1.8198,-1.8733,-1.7287,-1.6992,-1.7532,-1.7166,-1.7137,-1.7505,-1.79,-1.8024,-1.8327,-1.8718,-1.9061,-1.8215,-1.867,-1.931,-1.9025,-1.9158,-1.9594,-1.9543,-1.9614,-1.9601,-1.9447,-1.9641,-1.9681,-1.965,-1.9607,-1.9713,-1.9738,-1.9757,-1.9732,-1.9726,-1.9776,-1.9707,-1.9681,-1.9688,-1.9707,-1.9757,-1.9713,-1.9713,-1.9726,-1.9751,-1.977,-1.9732,-1.9695,-1.9695,-1.9726,-1.9726,-1.9857,-2.0195,-2.0363,-2.0443,-2.0308,-1.9851,-1.9926,-2.0486,-2.0632,-2.0752,-2.1072,-2.1706,-2.2068,-2.2209,-2.1778,-2.1398,-2.1291,-2.121,-2.132,-2.1178,-2.0894,-2.0927,-2.1411,-2.1066,-2.0507,-2.0837,-2.122,-2.0938,-2.0879,-2.0976,-2.1084,-2.0992,-2.0937,-2.0722,-2.0827,-2.1243,-2.1472,-1.4624,-1.4794,-1.4996,-1.5195,-1.5375,-1.5031,-1.5248,-1.5777,-1.4842,-1.4631,-1.4756,-1.4336,-1.3897,-1.3704,-1.3722,-1.3944,-1.4255,-1.421,-1.4136,-1.4126,-1.4418,-1.4848,-1.5174,-1.5644,-1.6133,-1.6658,-1.7201,-1.7799,-1.796,-1.7734,-1.7382,-1.7507,-1.6281,-1.5902,-1.6558,-1.604,-1.5724,-1.624,-1.6533,-1.7399,-1.8337,-1.8397,-1.8456,-1.826,-1.8726,-1.8709,-1.859,-1.8802,-1.875,-1.8604,-1.9193,-1.9058,-1.8536,-1.9118,-1.9091,-1.8855,-1.9207,-1.9401,-1.9494,-1.9521,-1.9582,-1.9555,-1.9546,-1.9471,-1.9438,-1.9472,-1.9513,-1.9518,-1.9555,-1.9541,-1.9555,-1.9582,-1.9582,-1.9536,-1.949,-1.9523,-1.9541,-1.955,-1.9572,-1.9724,-1.9894,-1.9876,-1.9782,-1.9813,-1.9895,-1.9939,-1.9932,-1.9994,-2.0108,-2.0534,-2.1016,-2.1114,-2.0758,-2.0468,-2.0469,-2.0566,-2.0709,-2.0677,-2.0458,-2.0515,-2.0648,-2.0527,-2.0365,-2.0415,-2.0545,-2.0476,-2.0488,-2.0565,-2.0586,-2.0501,-2.0516,-2.0524,-2.0527,-2.085,-2.0862,-1.4195,-1.4401,-1.4624,-1.4873,-1.5003,-1.4587,-1.4847,-1.5211,-1.4027,-1.3673,-1.4052,-1.3693,-1.3315,-1.2955,-1.288,-1.2908,-1.331,-1.3078,-1.3277,-1.3421,-1.3613,-1.3989,-1.4315,-1.471,-1.5347,-1.5883,-1.6338,-1.6844,-1.7246,-1.6621,-1.6133,-1.6325,-1.5347,-1.4803,-1.5395,-1.479,-1.4568,-1.5148,-1.5452,-1.6494,-1.7954,-1.7948,-1.7684,-1.7702,-1.8079,-1.813,-1.7969,-1.8148,-1.8259,-1.8294,-1.8822,-1.8979,-1.8619,-1.8596,-1.8462,-1.8361,-1.8548,-1.8886,-1.8963,-1.9147,-1.9331,-1.932,-1.9311,-1.923,-1.913,-1.9157,-1.9198,-1.9234,-1.9305,-1.9305,-1.938,-1.9409,-1.9427,-1.9398,-1.9361,-1.9357,-1.9394,-1.9413,-1.9438,-1.9513,-1.9648,-1.9625,-1.9577,-1.9569,-1.9643,-1.9657,-1.9592,-1.9578,-1.962,-1.9668,-2.0057,-2.027,-2.0054,-1.999,-2.0118,-2.0161,-2.0183,-2.0117,-2.0087,-2.0235,-2.04,-2.0357,-2.0321,-2.0365,-2.0394,-2.0434,-2.0449,-2.0472,-2.0465,-2.0445,-2.047,-2.0508,-2.0521,-2.0527,-2.0618,-1.3735,-1.3967,-1.4157,-1.4415,-1.4648,-1.4237,-1.4442,-1.479,-1.3516,-1.3159,-1.361,-1.3367,-1.3279,-1.3099,-1.2859,-1.2716,-1.2662,-1.2729,-1.2805,-1.2864,-1.2938,-1.3368,-1.3795,-1.4203,-1.4699,-1.511,-1.5545,-1.5808,-1.6105,-1.5451,-1.5157,-1.5279,-1.4693,-1.3902,-1.4383,-1.4554,-1.4501,-1.4621,-1.4948,-1.5487,-1.6285,-1.694,-1.6708,-1.6968,-1.7306,-1.7822,-1.7304,-1.7257,-1.7682,-1.7819,-1.8007,-1.7958,-1.794,-1.7632,-1.7498,-1.74,-1.7588,-1.7876,-1.8133,-1.8586,-1.8861,-1.9046,-1.9051,-1.9,-1.8877,-1.8859,-1.8927,-1.8961,-1.8998,-1.9099,-1.9162,-1.9209,-1.9212,-1.9214,-1.9175,-1.9172,-1.9212,-1.9248,-1.9292,-1.935,-1.9365,-1.9394,-1.9413,-1.942,-1.9402,-1.9402,-1.9383,-1.9387,-1.9402,-1.9471,-1.9685,-1.9865,-1.9832,-1.9801,-1.9854,-1.987,-1.9904,-1.9979,-2.0011,-2.0088,-2.0143,-2.0211,-2.0265,-2.0301,-2.0328,-2.0379,-2.0388,-2.0415,-2.0405,-2.04,-2.043,-2.0461,-2.0504,-2.052,-2.0527,-1.331,-1.3682,-1.3908,-1.4124,-1.4274,-1.391,-1.3981,-1.4227,-1.3901,-1.3727,-1.3374,-1.2922,-1.2573,-1.238,-1.2473,-1.2423,-1.2368,-1.2427,-1.2565,-1.2665,-1.2665,-1.2929,-1.319,-1.3425,-1.3889,-1.4262,-1.4582,-1.4889,-1.4893,-1.4521,-1.4316,-1.44,-1.3816,-1.3328,-1.3362,-1.3514,-1.365,-1.3785,-1.382,-1.411,-1.4315,-1.5015,-1.5841,-1.574,-1.5291,-1.5839,-1.6089,-1.6516,-1.656,-1.6601,-1.6816,-1.6764,-1.6692,-1.6707,-1.6561,-1.6594,-1.6747,-1.7223,-1.7637,-1.8104,-1.8446,-1.8877,-1.8878,-1.8807,-1.8698,-1.8605,-1.8625,-1.8586,-1.866,-1.8843,-1.8912,-1.8947,-1.8948,-1.8965,-1.8981,-1.8982,-1.9018,-1.9052,-1.9084,-1.9134,-1.9182,-1.923,-1.9295,-1.9314,-1.9314,-1.9295,-1.9246,-1.9248,-1.9295,-1.9338,-1.9365,-1.9456,-1.956,-1.9686,-1.9795,-1.9738,-1.9757,-1.9858,-1.9915,-1.9958,-2.004,-2.0162,-2.0195,-2.0211,-2.0265,-2.0308,-2.0341,-2.0365,-2.0369,-2.039,-2.0391,-2.0426,-2.0474,-2.0501,-2.0521]},{"header":{"parameterUnit":"m.s-1","parameterCategory":1,"la1":31.0,"la2":29.5877,"lo1":-88.7671,"lo2":-86.6584,"dy":0.0162,"dx":0.0185,"nx":115,"ny":88,"refTime":"2023-05-27T12:00:00:Z","depth":0,"parameterNumber":3,"parameterNumberName":"V-component_of_WINDS"},"data":[0.0,0.0,0.0,0.0,0.0,0.0,0.0,0.0,0.0,0.0,0.0,0.0,0.0,0.0,0.0,0.0,0.0,0.0,0.0,0.0,0.0,0.0,0.0,0.0,0.0,0.0,0.0,0.0,0.0,0.0,0.0,0.0,0.0,0.0,0.0,0.0,0.0,0.0,0.0,0.0,0.0,0.0,0.0,0.0,0.0,0.0,0.0,0.0,0.0,0.0,0.0,0.0,0.0,0.0,0.0,0.0,0.0,0.0,0.0,0.0,0.0,0.0,0.0,0.0,0.0,0.0,0.0,0.0,0.0,0.0,0.0,0.0,0.0,0.0,0.0,0.0,0.0,0.0,0.0,0.0,0.0,0.0,0.0,0.0,0.0,0.0,0.0,0.0,0.0,0.0,0.0,0.0,0.0,0.0,0.0,0.0,0.0,0.0,0.0,0.0,0.0,0.0,0.0,0.0,0.0,0.0,0.0,0.0,0.0,0.0,0.0,0.0,0.0,0.0,0.0,0.0,0.0,0.0,0.0,0.0,0.0,0.0,0.0,0.0,0.0,0.0,0.0,0.0,0.0,0.0,0.0,0.0,0.0,0.0,0.0,0.0,0.0,0.0,0.0,0.0,0.0,0.0,0.0,0.0,0.0,0.0,0.0,0.0,0.0,0.0,0.0,0.0,0.0,0.0,0.0,0.0,0.0,0.0,0.0,0.0,0.0,0.0,0.0,0.0,0.0,0.0,0.0,0.0,0.0,0.0,0.0,0.0,0.0,0.0,0.0,0.0,0.0,0.0,0.0,0.0,0.0,0.0,0.0,0.0,0.0,0.0,0.0,0.0,0.0,0.0,0.0,0.0,0.0,0.0,0.0,0.0,0.0,0.0,0.0,0.0,0.0,0.0,0.0,0.0,0.0,0.0,0.0,0.0,0.0,0.0,0.0,0.0,0.0,0.0,0.0,0.0,0.0,0.0,0.0,0.0,0.0,0.0,0.0,0.0,0.0,0.0,0.0,0.0,0.0,0.0,0.0,0.0,0.0,0.0,0.0,0.0,0.0,0.0,0.0,0.0,0.0,0.0,0.0,0.0,0.0,0.0,0.0,0.0,0.0,0.0,0.0,0.0,0.0,0.0,0.0,0.0,0.0,0.0,0.0,0.0,0.0,0.0,0.0,0.0,0.0,0.0,0.0,0.0,0.0,0.0,0.0,0.0,0.0,0.0,0.0,0.0,0.0,0.0,0.0,0.0,0.0,0.0,0.0,0.0,0.0,0.0,0.0,0.0,0.0,0.0,0.0,0.0,0.0,0.0,0.0,0.0,0.0,0.0,0.0,0.0,0.0,0.0,0.0,0.0,0.0,0.0,0.0,0.0,0.0,0.0,0.0,0.0,0.0,0.0,0.0,0.0,0.0,0.0,0.0,0.0,0.0,0.0,0.0,0.0,0.0,0.0,0.0,0.0,0.0,0.0,0.0,0.0,0.0,0.0,0.0,0.0,0.0,0.0,0.0,0.0,0.0,0.0,0.0,0.0,0.0,0.0,0.0,0.0,0.0,0.0,0.0,0.0,0.0,0.0,0.0,0.0,0.0,0.0,0.0,0.0,0.0,0.0,0.0,0.0,0.0,0.0,0.0,0.0,0.0,0.0,0.0,0.0,0.0,0.0,0.0,0.0,0.0,0.0,0.0,0.0,0.0,0.0,0.0,0.0,0.0,0.0,0.0,0.0,0.0,0.0,0.0,0.0,0.0,0.0,0.0,0.0,0.0,0.0,0.0,0.0,0.0,0.0,0.0,0.0,0.0,0.0,0.0,0.0,0.0,0.0,0.0,0.0,0.0,0.0,0.0,0.0,0.0,0.0,0.0,0.0,0.0,0.0,0.0,0.0,0.0,0.0,0.0,0.0,0.0,0.0,0.0,0.0,0.0,0.0,0.0,0.0,0.0,0.0,0.0,0.0,0.0,0.0,0.0,0.0,0.0,0.0,0.0,0.0,0.0,0.0,0.0,0.0,0.0,0.0,0.0,0.0,0.0,0.0,0.0,0.0,0.0,0.0,0.0,0.0,0.0,0.0,0.0,0.0,0.0,0.0,0.0,0.0,0.0,0.0,0.0,0.0,0.0,0.0,0.0,0.0,0.0,0.0,0.0,0.0,0.0,0.0,0.0,0.0,0.0,0.0,0.0,0.0,0.0,0.0,0.0,0.0,0.0,0.0,0.0,0.0,0.0,0.0,0.0,0.0,0.0,0.0,0.0,0.0,0.0,0.0,0.0,0.0,0.0,0.0,0.0,0.0,0.0,0.0,0.0,0.0,0.0,0.0,0.0,0.0,0.0,0.0,0.0,0.0,0.0,0.0,0.0,0.0,0.0,0.0,0.0,0.0,0.0,0.0,0.0,0.0,0.0,0.0,0.0,0.0,0.0,0.0,0.0,0.0,0.0,0.0,0.0,0.0,0.0,0.0,0.0,0.0,0.0,0.0,0.0,0.0,0.0,0.0,0.0,0.0,0.0,0.0,0.0,0.0,0.0,0.0,0.0,0.0,0.0,0.0,0.0,0.0,0.0,0.0,0.0,0.0,0.0,0.0,0.0,0.0,0.0,0.0,0.0,0.0,0.0,0.0,0.0,0.0,0.0,0.0,0.0,0.0,0.0,0.0,0.0,0.0,0.0,0.0,0.0,0.0,0.0,0.0,0.0,0.0,0.0,0.0,0.0,0.0,0.0,0.0,0.0,0.0,0.0,0.0,0.0,0.0,0.0,0.0,0.0,0.0,0.0,0.0,0.0,0.0,0.0,0.0,0.0,0.0,0.0,0.0,0.0,0.0,0.0,0.0,0.0,0.0,0.0,0.0,0.0,0.0,0.0,0.0,0.0,0.0,0.0,0.0,0.0,0.0,0.0,0.0,0.0,0.0,0.0,0.0,0.0,0.0,0.0,0.0,0.0,0.0,0.0,0.0,0.0,0.0,0.0,0.0,0.0,0.0,0.0,0.0,0.0,0.0,0.0,0.0,0.0,0.0,0.0,0.0,0.0,0.0,0.0,0.0,0.0,0.0,0.0,0.0,0.0,0.0,0.0,0.0,0.0,0.0,0.0,0.0,0.0,0.0,0.0,0.0,0.0,0.0,0.0,0.0,0.0,0.0,0.0,0.0,0.0,0.0,0.0,0.0,0.0,0.0,0.0,0.0,0.0,0.0,0.0,0.0,0.0,0.0,0.0,0.0,0.0,0.0,0.0,0.0,0.0,0.0,0.0,0.0,0.0,0.0,0.0,0.0,0.0,0.0,0.0,0.0,0.0,0.0,0.0,0.0,0.0,0.0,0.0,0.0,0.0,0.0,0.0,0.0,0.0,0.0,0.0,0.0,0.0,0.0,0.0,0.0,0.0,0.0,0.0,0.0,0.0,0.0,0.0,0.0,0.0,0.0,0.0,0.0,0.0,0.0,0.0,0.0,0.0,0.0,0.0,0.0,0.0,0.0,0.0,0.0,0.0,0.0,0.0,0.0,0.0,0.0,0.0,0.0,0.0,0.0,0.0,0.0,0.0,0.0,0.0,0.0,0.0,0.0,0.0,0.0,0.0,0.0,0.0,0.0,0.0,0.0,0.0,0.0,0.0,0.0,0.0,0.0,0.0,0.0,0.0,0.0,0.0,0.0,0.0,0.0,0.0,0.0,0.0,0.0,0.0,0.0,0.0,0.0,0.0,0.0,0.0,0.0,0.0,0.0,0.0,0.0,0.0,0.0,0.0,0.0,0.0,0.0,0.0,0.0,0.0,0.0,0.0,0.0,0.0,0.0,0.0,0.0,0.0,0.0,0.0,0.0,0.0,0.0,0.0,0.0,0.0,0.0,0.0,0.0,0.0,0.0,0.0,0.0,0.0,0.0,0.0,0.0,0.0,0.0,0.0,0.0,0.0,0.0,0.0,0.0,0.0,0.0,0.0,0.0,0.0,0.0,0.0,0.0,0.0,0.0,0.0,0.0,0.0,0.0,0.0,0.0,0.0,0.0,0.0,0.0,0.0,0.0,0.0,0.0,0.0,0.0,0.0,0.0,0.0,0.0,0.0,0.0,0.0,0.0,0.0,0.0,0.0,0.0,0.0,0.0,0.0,0.0,0.0,0.0,0.0,0.0,0.0,0.0,0.0,0.0,0.0,0.0,0.0,0.0,0.0,0.0,0.0,0.0,0.0,0.0,0.0,0.0,0.0,0.0,0.0,0.0,0.0,0.0,0.0,0.0,0.0,0.0,0.0,0.0,0.0,0.0,0.0,0.0,0.0,0.0,-1.8824,0.0,0.0,0.0,0.0,0.0,0.0,0.0,0.0,0.0,0.0,0.0,0.0,0.0,0.0,0.0,0.0,0.0,0.0,0.0,0.0,0.0,0.0,0.0,0.0,0.0,0.0,0.0,0.0,0.0,0.0,0.0,0.0,0.0,0.0,0.0,0.0,0.0,0.0,0.0,0.0,0.0,0.0,0.0,0.0,0.0,0.0,0.0,0.0,0.0,0.0,0.0,0.0,0.0,0.0,0.0,0.0,0.0,0.0,0.0,0.0,0.0,0.0,0.0,0.0,0.0,0.0,0.0,0.0,0.0,0.0,0.0,0.0,0.0,0.0,0.0,0.0,0.0,0.0,0.0,0.0,0.0,0.0,0.0,0.0,0.0,0.0,0.0,0.0,0.0,0.0,0.0,0.0,0.0,0.0,0.0,0.0,0.0,0.0,0.0,0.0,0.0,0.0,0.0,0.0,0.0,0.0,0.0,0.0,0.0,0.0,-1.3507,-1.4408,-1.5606,-1.6803,-1.7896,0.0,0.0,0.0,0.0,0.0,0.0,0.0,0.0,0.0,0.0,0.0,0.0,0.0,0.0,0.0,0.0,0.0,0.0,0.0,0.0,0.0,0.0,0.0,0.0,0.0,0.0,0.0,0.0,0.0,0.0,0.0,0.0,0.0,0.0,0.0,0.0,0.0,0.0,0.0,0.0,0.0,0.0,0.0,0.0,0.0,0.0,0.0,0.0,0.0,0.0,0.0,0.0,0.0,0.0,0.0,0.0,0.0,0.0,0.0,0.0,0.0,0.0,0.0,0.0,0.0,0.0,0.0,0.0,0.0,0.0,0.0,0.0,0.0,0.0,0.0,0.0,0.0,0.0,0.0,0.0,0.0,0.0,0.0,0.0,0.0,0.0,0.0,0.0,0.0,0.0,0.0,0.0,0.0,0.0,0.0,0.0,0.0,0.0,0.0,0.0,0.0,0.0,0.0,0.0,0.0,0.0,0.0,0.0,0.0,0.0,0.0,0.0,-1.3901,-1.5555,-1.7261,0.0,0.0,0.0,0.0,0.0,0.0,0.0,0.0,0.0,0.0,0.0,0.0,0.0,0.0,0.0,0.0,0.0,0.0,0.0,0.0,0.0,0.0,0.0,0.0,0.0,0.0,0.0,0.0,0.0,0.0,0.0,0.0,0.0,0.0,0.0,0.0,0.0,0.0,0.0,0.0,0.0,0.0,0.0,0.0,0.0,0.0,0.0,0.0,0.0,0.0,0.0,0.0,0.0,0.0,0.0,0.0,0.0,0.0,0.0,0.0,0.0,0.0,0.0,0.0,0.0,0.0,0.0,0.0,0.0,0.0,0.0,0.0,0.0,0.0,0.0,0.0,0.0,0.0,0.0,0.0,0.0,0.0,0.0,0.0,0.0,0.0,0.0,0.0,0.0,0.0,0.0,0.0,0.0,0.0,0.0,0.0,0.0,0.0,0.0,0.0,0.0,0.0,0.0,0.0,0.0,0.0,0.0,0.0,0.0,0.0,-0.8845,-1.014,-1.2072,0.0,-1.7194,0.0,0.0,0.0,0.0,0.0,0.0,0.0,0.0,0.0,0.0,0.0,0.0,0.0,0.0,0.0,0.0,0.0,0.0,0.0,0.0,0.0,0.0,0.0,0.0,0.0,0.0,0.0,0.0,0.0,0.0,0.0,0.0,0.0,0.0,0.0,0.0,0.0,0.0,0.0,0.0,0.0,0.0,0.0,0.0,0.0,0.0,0.0,0.0,0.0,0.0,0.0,0.0,0.0,0.0,0.0,0.0,0.0,0.0,0.0,0.0,0.0,0.0,0.0,0.0,0.0,0.0,0.0,0.0,0.0,0.0,0.0,0.0,0.0,0.0,0.0,0.0,0.0,0.0,0.0,0.0,0.0,0.0,0.0,0.0,0.0,0.0,0.0,0.0,0.0,0.0,0.0,0.0,0.0,0.0,0.0,0.0,0.0,0.0,0.0,0.0,0.0,0.0,0.0,0.0,0.0,0.0,0.0,0.0,0.0,0.0,-0.6376,-0.7862,-1.1244,-1.4137,0.0,0.0,0.0,0.0,0.0,0.0,0.0,0.0,0.0,0.0,0.0,0.0,0.0,0.0,0.0,0.0,0.0,0.0,0.0,0.0,0.0,0.0,0.0,0.0,0.0,0.0,0.0,0.0,0.0,0.0,0.0,0.0,0.0,0.0,0.0,0.0,0.0,0.0,0.0,0.0,0.0,0.0,0.0,0.0,0.0,0.0,0.0,0.0,0.0,0.0,0.0,0.0,0.0,0.0,0.0,0.0,0.0,0.0,0.0,0.0,0.0,0.0,0.0,0.0,0.0,0.0,0.0,0.0,0.0,0.0,0.0,0.0,0.0,0.0,0.0,0.0,0.0,0.0,0.0,0.0,0.0,0.0,0.0,0.0,0.0,0.0,0.0,0.0,0.0,0.0,0.0,0.0,0.0,0.0,0.0,0.0,0.0,0.0,0.0,0.0,0.0,0.0,0.0,0.0,0.0,0.0,0.0,0.0,0.0,0.0,-0.3033,-0.4513,-0.6751,-1.0478,-1.3366,-1.5193,0.0,0.0,0.0,0.0,0.0,0.0,0.0,0.0,0.0,0.0,0.0,0.0,0.0,0.0,0.0,0.0,0.0,0.0,0.0,0.0,0.0,0.0,0.0,0.0,0.0,0.0,0.0,0.0,0.0,0.0,0.0,0.0,0.0,0.0,0.0,0.0,0.0,0.0,0.0,0.0,0.0,0.0,0.0,0.0,0.0,0.0,0.0,0.0,0.0,0.0,0.0,0.0,0.0,0.0,0.0,0.0,0.0,0.0,0.0,0.0,0.0,0.0,0.0,0.0,0.0,0.0,0.0,0.0,0.0,0.0,0.0,0.0,0.0,0.0,0.0,0.0,0.0,0.0,0.0,0.0,0.0,0.0,0.0,0.0,0.0,0.0,0.0,0.0,0.0,0.0,0.0,0.0,0.0,0.0,0.0,0.0,0.0,0.0,0.0,0.0,0.0,0.0,0.0,0.0,0.0,0.0,0.0,0.0,-0.1109,-0.151,-0.3495,-0.7092,-0.9358,-1.1645,0.0,0.0,0.0,0.0,0.0,0.0,0.0,0.0,0.0,0.0,0.0,0.0,0.0,0.0,0.0,0.0,0.0,0.0,0.0,0.0,0.0,0.0,0.0,0.0,0.0,0.0,0.0,0.0,0.0,0.0,0.0,0.0,0.0,0.0,0.0,0.0,0.0,0.0,0.0,0.0,0.0,0.0,0.0,0.0,0.0,0.0,0.0,0.0,0.0,0.0,0.0,0.0,0.0,0.0,0.0,0.0,0.0,0.0,0.0,0.0,0.0,0.0,0.0,0.0,0.0,0.0,0.0,0.0,0.0,0.0,0.0,0.0,0.0,0.0,0.0,0.0,0.0,0.0,0.0,0.0,0.0,0.0,0.0,0.0,0.0,0.0,0.0,0.0,0.0,0.0,0.0,0.0,0.0,0.0,0.0,0.0,0.0,0.0,0.0,0.0,0.0,0.0,0.0,0.0,0.0,0.0,0.0,0.0,0.0,0.1265,-0.012,-0.2387,-0.54,-0.7713,-1.0011,0.0,0.0,0.0,0.0,0.0,0.0,0.0,0.0,0.0,0.0,0.0,0.0,0.0,0.0,0.0,0.0,0.0,0.0,0.0,0.0,0.0,0.0,0.0,0.0,0.0,0.0,0.0,0.0,0.0,0.0,0.0,0.0,0.0,0.0,0.0,0.0,0.0,0.0,0.0,0.0,0.0,0.0,0.0,0.0,0.0,0.0,0.0,0.0,0.0,0.0,0.0,0.0,0.0,0.0,0.0,0.0,0.0,0.0,0.0,0.0,0.0,0.0,0.0,0.0,0.0,0.0,0.0,0.0,0.0,0.0,0.0,0.0,0.0,0.0,0.0,0.0,0.0,0.0,0.0,0.0,0.0,0.0,0.0,0.0,0.0,0.0,0.0,0.0,0.0,0.0,0.0,0.0,0.0,0.0,0.0,0.0,0.0,0.0,0.0,0.0,0.0,0.0,0.0,0.0,0.0,0.0,0.0,0.0,0.0,0.3111,0.0,-0.0911,-0.3222,-0.584,-0.8385,0.0,0.0,0.0,0.0,0.0,0.0,0.0,0.0,0.0,0.0,0.0,0.0,0.0,0.0,0.0,0.0,0.0,0.0,0.0,0.0,0.0,0.0,0.0,0.0,0.0,0.0,0.0,0.0,0.0,0.0,0.0,0.0,0.0,0.0,0.0,0.0,0.0,0.0,0.0,0.0,0.0,0.0,0.0,0.0,0.0,0.0,0.0,0.0,0.0,0.0,0.0,0.0,0.0,0.0,0.0,0.0,0.0,0.0,0.0,0.0,0.0,0.0,0.0,0.0,0.0,0.0,0.0,0.0,0.0,0.0,0.0,0.0,0.0,0.0,0.0,0.0,0.0,0.0,0.0,0.0,0.0,0.0,0.0,0.0,0.0,0.0,0.0,0.0,0.0,0.0,0.0,0.0,0.0,0.0,0.0,0.0,0.0,0.0,0.0,0.0,0.0,0.0,0.0,0.0,0.0,0.0,0.0,0.0,0.3893,0.4287,0.2817,0.1072,-0.0671,-0.3966,-0.6783,0.0,0.0,0.0,0.0,0.0,0.0,0.0,0.0,0.0,0.0,0.0,0.0,0.0,0.0,0.0,0.0,0.0,0.0,0.0,0.0,0.0,0.0,0.0,0.0,0.0,0.0,0.0,0.0,0.0,0.0,0.0,0.0,0.0,0.0,0.0,0.0,0.0,0.0,0.0,0.0,0.0,0.0,0.0,0.0,0.0,0.0,0.0,0.0,0.0,0.0,0.0,0.0,0.0,0.0,0.0,0.0,0.0,0.0,0.0,0.0,0.0,0.0,0.0,0.0,0.0,0.0,0.0,0.0,0.0,0.0,0.0,0.0,0.0,0.0,0.0,0.0,0.0,0.0,0.0,0.0,0.0,0.0,0.0,0.0,0.0,0.0,0.0,0.0,0.0,0.0,0.0,0.0,0.0,0.0,0.0,0.0,0.0,0.0,0.0,0.0,0.0,0.0,0.0,0.0,0.0,0.0,0.0,0.0,0.0,0.5925,0.4292,0.2447,0.0566,-0.2545,-0.5489,0.0,0.0,0.0,0.0,0.0,0.0,0.0,0.0,0.0,0.0,0.0,0.0,0.0,0.0,0.0,0.0,0.0,0.0,0.0,0.0,0.0,0.0,0.0,0.0,0.0,0.0,0.0,0.0,0.0,0.0,0.0,0.0,0.0,0.0,0.0,0.0,0.0,0.0,0.0,0.0,0.0,0.0,0.0,0.0,0.0,0.0,0.0,0.0,0.0,0.0,0.0,0.0,0.0,0.0,0.0,0.0,0.0,0.0,0.0,0.0,0.0,0.0,0.0,0.0,0.0,0.0,0.0,0.0,0.0,0.0,0.0,0.0,0.0,0.0,0.0,0.0,0.0,0.0,0.0,0.0,0.0,0.0,0.0,0.0,0.0,0.0,0.0,0.0,0.0,0.0,0.0,0.0,0.0,0.0,0.0,0.0,0.0,0.0,0.0,0.0,0.0,0.0,0.0,0.0,0.0,0.0,0.0,0.0,0.0,0.5676,0.3909,0.1909,-0.0137,-0.3105,-0.5495,-0.7223,0.0,0.0,0.0,0.0,0.0,0.0,0.0,0.0,0.0,0.0,0.0,0.0,0.0,0.0,0.0,0.0,0.0,0.0,0.0,0.0,0.0,0.0,0.0,0.0,0.0,0.0,0.0,0.0,0.0,0.0,0.0,0.0,0.0,0.0,0.0,0.0,0.0,0.0,0.0,0.0,0.0,0.0,0.0,0.0,0.0,0.0,0.0,0.0,0.0,0.0,0.0,0.0,0.0,0.0,0.0,0.0,0.0,0.0,0.0,0.0,0.0,0.0,0.0,0.0,0.0,0.0,0.0,0.0,0.0,0.0,0.0,0.0,0.0,0.0,0.0,0.0,0.0,0.0,0.0,0.0,0.0,0.0,0.0,0.0,0.0,0.0,0.0,0.0,0.0,0.0,0.0,0.0,0.0,0.0,0.0,0.0,0.0,0.0,0.0,0.0,0.0,0.0,0.0,0.0,0.0,0.0,0.0,0.0,0.3888,0.168,-0.0538,-0.263,-0.5133,-0.6481,0.0,0.0,0.0,0.0,0.0,0.0,0.0,0.0,0.0,0.0,0.0,0.0,0.0,0.0,0.0,0.0,0.0,0.0,0.0,0.0,0.0,0.0,0.0,0.0,0.0,0.0,0.0,0.0,0.0,0.0,0.0,0.0,0.0,0.0,0.0,0.0,0.0,0.0,0.0,0.0,0.0,0.0,0.0,0.0,0.0,0.0,0.0,0.0,0.0,0.0,0.0,0.0,0.0,0.0,0.0,0.0,0.0,0.0,0.0,0.0,0.0,0.0,0.0,0.0,0.0,0.0,0.0,0.0,0.0,0.0,0.0,0.0,0.0,0.0,0.0,0.0,0.0,0.0,0.0,0.0,0.0,0.0,0.0,0.0,0.0,0.0,0.0,0.0,0.0,0.0,0.0,0.0,0.0,0.0,0.0,0.0,0.0,0.0,0.0,0.0,0.0,0.0,0.0,0.0,0.0,0.0,0.0,0.0,0.0,0.0,-0.3631,-0.5526,-0.5521,-0.5604,-0.6834,0.0,0.0,0.0,0.0,0.0,0.0,0.0,0.0,0.0,0.0,0.0,0.0,0.0,0.0,0.0,0.0,0.0,0.0,0.0,0.0,0.0,0.0,0.0,0.0,0.0,0.0,0.0,0.0,0.0,0.0,0.0,0.0,0.0,0.0,0.0,0.0,0.0,0.0,0.0,0.0,0.0,0.0,0.0,0.0,0.0,0.0,0.0,0.0,0.0,0.0,0.0,0.0,0.0,0.0,0.0,0.0,0.0,0.0,0.0,0.0,0.0,0.0,0.0,0.0,0.0,0.0,0.0,0.0,0.0,0.0,0.0,0.0,0.0,0.0,0.0,0.0,0.0,0.0,0.0,0.0,0.0,0.0,0.0,0.0,0.0,0.0,0.0,0.0,0.0,0.0,0.0,0.0,0.0,0.0,0.0,0.0,0.0,0.0,0.0,0.0,0.0,0.0,0.0,0.0,0.0,0.0,0.0,0.0,0.1065,-0.1185,-0.7011,-1.032,-1.0732,-0.816,-0.7806,0.0,0.0,0.0,0.0,0.0,0.0,0.0,0.0,0.0,0.0,0.0,0.0,0.0,0.0,0.0,0.0,0.0,0.0,0.0,0.0,0.0,0.0,0.0,0.0,0.0,0.0,0.0,0.0,0.0,0.0,0.0,0.0,0.0,0.0,0.0,0.0,0.0,0.0,0.0,0.0,0.0,0.0,0.0,0.0,0.0,0.0,0.0,0.0,0.0,0.0,0.0,0.0,0.0,0.0,0.0,0.0,0.0,0.0,0.0,0.0,0.0,0.0,0.0,0.0,0.0,0.0,0.0,0.0,0.0,0.0,0.0,0.0,0.0,0.0,0.0,0.0,0.0,0.0,0.0,0.0,0.0,0.0,0.0,0.0,0.0,0.0,0.0,0.0,0.0,0.0,0.0,0.0,0.0,0.0,0.0,0.0,0.0,0.0,0.0,0.0,0.0,0.0,0.0,0.0,0.0,0.0,0.0,0.0,-0.1271,-0.1302,-0.8999,-1.4274,-1.6275,-1.1374,-0.9076,0.0,0.0,0.0,0.0,0.0,0.0,0.0,0.0,0.0,0.0,0.0,0.0,0.0,0.0,0.0,0.0,0.0,0.0,0.0,0.0,0.0,0.0,0.0,0.0,0.0,0.0,0.0,0.0,0.0,0.0,0.0,0.0,0.0,0.0,0.0,0.0,0.0,0.0,0.0,0.0,0.0,0.0,0.0,0.0,0.0,0.0,0.0,0.0,0.0,0.0,0.0,0.0,0.0,0.0,0.0,0.0,0.0,0.0,0.0,0.0,0.0,0.0,0.0,0.0,0.0,0.0,0.0,0.0,0.0,0.0,0.0,0.0,0.0,0.0,0.0,0.0,0.0,0.0,0.0,0.0,0.0,0.0,0.0,0.0,0.0,0.0,0.0,0.0,0.0,0.0,0.0,0.0,0.0,0.0,0.0,0.0,0.0,0.0,0.0,0.0,0.0,0.0,0.0,0.0,0.0,0.0,0.0,0.0,-0.1964,-0.4905,-1.0529,-1.4555,-1.6699,-1.0763,-0.9204,0.0,0.0,0.0,0.0,0.0,0.0,0.0,0.0,0.0,0.0,0.0,0.0,0.0,0.0,0.0,0.0,0.0,0.0,0.0,0.0,0.0,0.0,0.0,0.0,0.0,0.0,0.0,0.0,0.0,0.0,0.0,0.0,0.0,0.0,0.0,0.0,0.0,0.0,0.0,0.0,0.0,0.0,0.0,0.0,0.0,0.0,0.0,0.0,-2.584,0.0,0.0,0.0,0.0,0.0,0.0,0.0,0.0,0.0,0.0,0.0,0.0,0.0,0.0,0.0,0.0,0.0,0.0,0.0,0.0,0.0,0.0,0.0,0.0,0.0,0.0,0.0,0.0,0.0,0.0,0.0,0.0,0.0,0.0,0.0,0.0,0.0,0.0,0.0,0.0,0.0,0.0,0.0,0.0,0.0,0.0,0.0,0.0,0.0,0.0,0.0,0.0,0.0,0.0,0.0,0.0,0.0,0.0,0.0,-0.2404,-0.5944,-1.0851,-1.4582,-1.6658,-1.2552,-1.1249,0.0,0.0,0.0,0.0,0.0,0.0,0.0,0.0,0.0,0.0,0.0,0.0,0.0,0.0,0.0,0.0,0.0,0.0,0.0,0.0,0.0,0.0,0.0,0.0,0.0,0.0,0.0,0.0,0.0,0.0,0.0,0.0,0.0,0.0,0.0,0.0,0.0,0.0,0.0,0.0,0.0,0.0,0.0,0.0,0.0,0.0,0.0,0.0,0.0,0.0,0.0,0.0,0.0,0.0,0.0,0.0,0.0,0.0,0.0,0.0,0.0,0.0,0.0,0.0,0.0,0.0,0.0,0.0,0.0,0.0,0.0,0.0,0.0,0.0,0.0,0.0,0.0,0.0,0.0,0.0,0.0,0.0,0.0,0.0,0.0,0.0,0.0,0.0,0.0,0.0,0.0,0.0,0.0,0.0,0.0,0.0,0.0,0.0,0.0,0.0,0.0,0.0,0.0,0.0,0.0,0.0,0.0,0.0409,-0.2848,-0.6793,-1.1144,-1.4584,-1.6971,-1.4847,-1.373,-1.3649,0.0,0.0,0.0,0.0,0.0,0.0,0.0,0.0,0.0,0.0,0.0,0.0,0.0,0.0,0.0,0.0,0.0,0.0,0.0,0.0,0.0,0.0,0.0,0.0,0.0,0.0,0.0,0.0,0.0,0.0,0.0,0.0,0.0,0.0,0.0,0.0,0.0,0.0,-1.4936,-1.5841,0.0,0.0,0.0,0.0,0.0,0.0,0.0,0.0,-2.5004,0.0,0.0,0.0,0.0,0.0,0.0,0.0,0.0,0.0,0.0,0.0,0.0,0.0,0.0,0.0,0.0,0.0,0.0,0.0,0.0,0.0,0.0,0.0,0.0,0.0,0.0,0.0,0.0,0.0,0.0,0.0,0.0,0.0,0.0,0.0,0.0,0.0,0.0,0.0,0.0,0.0,0.0,0.0,0.0,0.0,0.0,0.0,0.0,0.0,0.0,0.0,0.0,0.0,0.0,0.0,0.0,-0.0554,-0.107,-0.4336,-1.036,-1.3061,-1.5245,-1.6842,-1.5438,-1.4243,-1.3541,0.0,0.0,0.0,0.0,0.0,0.0,0.0,0.0,0.0,0.0,0.0,0.0,0.0,0.0,0.0,0.0,0.0,0.0,0.0,0.0,0.0,0.0,0.0,0.0,0.0,0.0,0.0,0.0,0.0,0.0,0.0,0.0,0.0,0.0,0.0,0.0,0.0,0.0,0.0,-1.4784,-1.5658,0.0,0.0,0.0,0.0,0.0,0.0,0.0,0.0,-2.588,0.0,0.0,0.0,0.0,0.0,0.0,0.0,0.0,0.0,0.0,0.0,0.0,0.0,0.0,0.0,0.0,0.0,0.0,0.0,0.0,0.0,0.0,0.0,0.0,0.0,0.0,0.0,0.0,0.0,0.0,0.0,0.0,0.0,0.0,0.0,0.0,0.0,0.0,0.0,0.0,0.0,0.0,0.0,0.0,0.0,0.0,0.0,0.0,0.0,0.0,0.0,0.0,0.0,0.0,0.0,-0.1481,-0.3048,-0.6392,-1.1817,-1.3722,-1.5651,-1.7675,-1.6173,-1.4918,0.0,0.0,0.0,0.0,0.0,0.0,0.0,0.0,0.0,0.0,0.0,0.0,0.0,0.0,0.0,0.0,0.0,0.0,0.0,0.0,0.0,0.0,0.0,0.0,0.0,0.0,0.0,0.0,0.0,0.0,0.0,0.0,0.0,0.0,0.0,0.0,0.0,0.0,0.0,0.0,-1.3237,-1.4412,-1.5511,0.0,0.0,0.0,0.0,0.0,0.0,-2.3576,-2.5013,0.0,0.0,0.0,0.0,0.0,0.0,0.0,0.0,0.0,0.0,0.0,0.0,0.0,0.0,0.0,0.0,0.0,0.0,0.0,0.0,0.0,0.0,0.0,0.0,0.0,0.0,0.0,0.0,0.0,0.0,0.0,0.0,0.0,0.0,0.0,0.0,0.0,0.0,0.0,0.0,0.0,0.0,0.0,0.0,0.0,0.0,0.0,0.0,0.0,0.0,0.0,0.0,0.0,0.0,0.0,-0.2208,-0.4964,-0.845,-1.2626,-1.4303,-1.622,-1.8384,-1.6088,-1.4649,0.0,0.0,0.0,0.0,0.0,0.0,0.0,0.0,0.0,0.0,0.0,0.0,0.0,0.0,0.0,0.0,0.0,0.0,0.0,0.0,0.0,0.0,0.0,0.0,0.0,0.0,0.0,0.0,0.0,0.0,0.0,0.0,0.0,0.0,0.0,0.0,0.0,0.0,0.0,0.0,0.0,-1.3602,-1.5089,-1.6035,0.0,0.0,0.0,0.0,-2.187,-2.3632,0.0,0.0,0.0,0.0,0.0,0.0,0.0,0.0,0.0,0.0,0.0,0.0,0.0,0.0,0.0,0.0,0.0,0.0,0.0,0.0,0.0,0.0,0.0,0.0,0.0,0.0,0.0,0.0,0.0,0.0,0.0,0.0,0.0,0.0,0.0,0.0,0.0,0.0,0.0,0.0,0.0,0.0,0.0,0.0,0.0,0.0,0.0,0.0,0.0,0.0,0.0,0.0,0.0,0.0,0.0,0.0,-0.3646,-0.6496,-0.9885,-1.3665,-1.5531,-1.7023,-1.828,-1.3799,-1.202,0.0,0.0,0.0,0.0,0.0,0.0,0.0,0.0,0.0,0.0,0.0,0.0,0.0,0.0,0.0,0.0,0.0,0.0,0.0,0.0,0.0,0.0,0.0,0.0,0.0,0.0,0.0,0.0,0.0,0.0,0.0,0.0,0.0,0.0,0.0,0.0,0.0,0.0,0.0,0.0,0.0,-1.3899,-1.4631,-1.6255,-1.7713,0.0,0.0,-2.199,-2.2553,-2.5351,0.0,0.0,0.0,0.0,0.0,0.0,0.0,0.0,0.0,0.0,0.0,0.0,0.0,0.0,0.0,0.0,0.0,0.0,0.0,0.0,0.0,0.0,0.0,0.0,0.0,0.0,0.0,0.0,0.0,0.0,0.0,0.0,0.0,0.0,0.0,0.0,0.0,0.0,0.0,0.0,0.0,0.0,0.0,0.0,0.0,0.0,0.0,0.0,0.0,0.0,0.0,0.0,0.0,0.0,0.0,-0.2874,-0.4669,-0.8645,-1.2016,-1.4922,-1.6209,-1.7591,-1.9155,-1.398,-1.1945,0.0,0.0,0.0,0.0,0.0,0.0,0.0,0.0,0.0,0.0,0.0,0.0,0.0,0.0,0.0,0.0,0.0,0.0,0.0,0.0,0.0,0.0,0.0,0.0,0.0,0.0,0.0,0.0,0.0,0.0,0.0,0.0,0.0,0.0,0.0,0.0,0.0,0.0,0.0,0.0,0.0,0.0,-1.5561,-1.6317,0.0,0.0,0.0,-2.1926,-2.2592,0.0,0.0,0.0,0.0,0.0,0.0,0.0,0.0,0.0,0.0,0.0,0.0,0.0,0.0,0.0,0.0,0.0,0.0,0.0,0.0,0.0,0.0,0.0,0.0,0.0,0.0,0.0,0.0,0.0,0.0,0.0,0.0,0.0,0.0,0.0,0.0,0.0,0.0,0.0,0.0,0.0,0.0,0.0,0.0,0.0,0.0,0.0,0.0,0.0,0.0,0.0,0.0,0.0,0.0,0.0,0.0,0.0,-0.5575,-1.0428,-1.3903,-1.5866,-1.6706,-1.8041,-1.9861,-1.5186,0.0,0.0,0.0,0.0,0.0,0.0,0.0,0.0,0.0,0.0,0.0,0.0,0.0,0.0,0.0,0.0,0.0,0.0,0.0,0.0,0.0,0.0,0.0,0.0,0.0,0.0,0.0,-1.2228,0.0,0.0,0.0,0.0,0.0,0.0,0.0,0.0,0.0,0.0,0.0,0.0,0.0,0.0,-1.409,-1.6349,-1.6701,-1.7657,0.0,0.0,-2.2149,-2.334,-2.5703,-2.712,0.0,0.0,0.0,0.0,0.0,0.0,0.0,0.0,0.0,0.0,0.0,0.0,0.0,0.0,0.0,0.0,0.0,0.0,0.0,0.0,0.0,0.0,0.0,0.0,0.0,0.0,0.0,0.0,0.0,0.0,0.0,0.0,0.0,0.0,0.0,0.0,0.0,0.0,0.0,0.0,0.0,0.0,0.0,0.0,0.0,0.0,0.0,0.0,0.0,0.0,0.0,0.0,0.0,0.0,0.0,-0.658,-1.1513,-1.4825,-1.6049,-1.7065,-1.8527,-2.0175,-1.7384,-1.5365,0.0,0.0,0.0,0.0,0.0,0.0,0.0,0.0,0.0,0.0,0.0,0.0,0.0,0.0,0.0,0.0,0.0,0.0,0.0,0.0,0.0,0.0,0.0,0.0,0.0,0.0,0.0,0.0,0.0,0.0,0.0,0.0,0.0,0.0,0.0,0.0,0.0,0.0,0.0,0.0,0.0,-1.5048,-1.6362,-1.7582,-1.9241,0.0,0.0,-2.3331,-2.5295,-2.7435,-2.8307,-2.6443,0.0,0.0,0.0,0.0,0.0,0.0,0.0,0.0,0.0,0.0,0.0,0.0,0.0,0.0,0.0,0.0,0.0,0.0,0.0,0.0,0.0,0.0,0.0,0.0,0.0,0.0,0.0,0.0,0.0,0.0,0.0,0.0,0.0,0.0,0.0,0.0,0.0,0.0,0.0,0.0,0.0,0.0,0.0,0.0,0.0,0.0,0.0,0.0,0.0,0.0,0.0,0.0,0.0,-0.6885,-0.7804,-1.2063,-1.5176,-1.7021,-1.7621,-1.8672,-2.0456,-1.8136,-1.6089,0.0,0.0,0.0,0.0,0.0,0.0,0.0,0.0,0.0,0.0,0.0,0.0,0.0,0.0,0.0,0.0,0.0,0.0,0.0,0.0,0.0,0.0,0.0,0.0,0.0,0.0,0.0,0.0,-1.245,-1.2864,-1.3224,0.0,0.0,0.0,0.0,0.0,0.0,0.0,0.0,0.0,0.0,-1.5641,-1.7325,-1.8448,0.0,0.0,-2.3091,-2.3971,-2.4341,-2.6297,-2.7132,-2.5305,-2.5663,0.0,0.0,0.0,0.0,0.0,0.0,0.0,0.0,0.0,0.0,0.0,0.0,0.0,0.0,0.0,0.0,0.0,0.0,0.0,0.0,0.0,0.0,0.0,0.0,0.0,0.0,0.0,0.0,0.0,0.0,0.0,0.0,0.0,0.0,0.0,0.0,0.0,0.0,0.0,0.0,0.0,0.0,0.0,0.0,0.0,0.0,0.0,0.0,0.0,0.0,0.0,0.0,-0.7567,-0.8516,-1.2331,-1.526,-1.7266,-1.7679,-1.8653,-2.0329,-1.902,-1.7499,0.0,0.0,0.0,0.0,0.0,0.0,0.0,0.0,0.0,0.0,0.0,0.0,0.0,0.0,0.0,0.0,0.0,0.0,0.0,0.0,0.0,0.0,0.0,0.0,0.0,0.0,0.0,0.0,-1.325,-1.3767,-1.3967,0.0,0.0,0.0,0.0,0.0,0.0,0.0,0.0,0.0,0.0,-1.6088,-1.7654,-1.8561,-1.9788,-2.1434,-2.2553,-2.3326,-2.3607,-2.4959,-2.5519,-2.423,0.0,0.0,0.0,0.0,0.0,0.0,0.0,0.0,0.0,0.0,0.0,0.0,0.0,0.0,0.0,0.0,0.0,0.0,0.0,0.0,0.0,0.0,0.0,0.0,0.0,0.0,0.0,0.0,0.0,0.0,-1.2872,0.0,0.0,0.0,0.0,0.0,0.0,0.0,0.0,0.0,0.0,0.0,0.0,0.0,0.0,0.0,0.0,0.0,0.0,0.0,0.0,0.0,0.0,-0.8111,-0.8434,-1.2428,-1.5137,-1.6316,-1.7014,-1.8297,-2.0035,-2.0543,-1.9904,-1.8152,0.0,0.0,0.0,0.0,0.0,0.0,0.0,0.0,0.0,0.0,0.0,0.0,0.0,0.0,0.0,0.0,0.0,0.0,0.0,0.0,0.0,0.0,0.0,0.0,0.0,0.0,-1.4008,-1.4134,-1.4268,0.0,0.0,0.0,0.0,0.0,0.0,0.0,0.0,0.0,0.0,-1.4783,-1.6321,-1.7226,-1.7735,-1.8968,-2.1286,-2.0783,-2.0964,-2.3458,-2.3862,-2.3682,0.0,0.0,0.0,0.0,0.0,0.0,0.0,0.0,0.0,0.0,0.0,0.0,0.0,0.0,0.0,0.0,0.0,0.0,0.0,0.0,0.0,0.0,0.0,0.0,0.0,0.0,0.0,-1.2768,-1.2818,0.0,0.0,0.0,0.0,0.0,0.0,0.0,0.0,0.0,0.0,0.0,-1.1684,-1.2,0.0,0.0,0.0,0.0,0.0,0.0,0.0,0.0,0.0,0.0,0.0,0.0,-0.8835,-0.9554,-1.2851,-1.5348,-1.6802,-1.7321,-1.8189,-1.9678,-2.0833,-2.0605,-1.8927,0.0,0.0,0.0,0.0,0.0,0.0,0.0,0.0,0.0,0.0,0.0,0.0,0.0,0.0,0.0,0.0,0.0,0.0,0.0,0.0,0.0,0.0,0.0,0.0,0.0,-1.4072,0.0,0.0,0.0,0.0,0.0,0.0,0.0,0.0,0.0,0.0,0.0,-1.291,-1.4133,-1.5082,-1.6321,-1.7857,-1.8303,-1.9342,0.0,0.0,0.0,0.0,0.0,0.0,0.0,0.0,0.0,0.0,0.0,0.0,0.0,0.0,-2.5006,-2.5569,-2.4951,-2.4526,-2.4906,0.0,0.0,0.0,0.0,0.0,0.0,0.0,0.0,0.0,0.0,0.0,0.0,0.0,0.0,-1.2791,0.0,-1.2936,0.0,0.0,0.0,0.0,0.0,0.0,0.0,0.0,-1.2627,-1.2763,-1.2605,-1.2846,-1.3007,0.0,-1.2988,-1.2315,0.0,0.0,0.0,0.0,0.0,0.0,0.0,0.0,-0.9591,-1.0074,-1.3271,-1.5599,-1.6768,-1.7275,-1.8079,-1.9303,-2.0865,-2.1296,-2.0508,-1.8284,-1.6652,0.0,0.0,0.0,0.0,0.0,0.0,0.0,0.0,0.0,0.0,0.0,0.0,0.0,0.0,0.0,0.0,0.0,0.0,0.0,0.0,0.0,0.0,0.0,-1.4657,0.0,0.0,0.0,0.0,0.0,0.0,0.0,0.0,0.0,-1.3277,-1.3035,-1.3435,-1.4898,-1.5692,-1.6523,-1.785,0.0,0.0,0.0,0.0,0.0,0.0,0.0,-2.1553,-2.1188,-2.2038,-2.3329,-2.4824,-2.5392,-2.5392,-2.4899,0.0,0.0,-2.5751,-2.5194,-2.4683,-2.4868,-2.4389,-2.3745,-2.3204,-2.3357,-2.3472,0.0,0.0,0.0,0.0,0.0,0.0,0.0,0.0,-1.3307,-1.3067,0.0,-1.3236,0.0,0.0,0.0,0.0,0.0,-1.2557,0.0,0.0,-1.3163,-1.3548,-1.3641,-1.33,-1.3464,-1.4028,-1.3659,-1.3884,-1.4597,-1.375,0.0,0.0,0.0,0.0,0.0,0.0,-1.0192,-1.0221,-1.3585,-1.5718,-1.6409,-1.7049,-1.7893,-1.9038,-2.0652,-2.1855,-2.2656,-2.0742,-1.9913,-2.0636,-1.6527,0.0,0.0,0.0,0.0,0.0,0.0,0.0,0.0,0.0,0.0,0.0,0.0,0.0,0.0,0.0,0.0,0.0,0.0,0.0,0.0,-1.4191,0.0,0.0,0.0,0.0,0.0,0.0,0.0,0.0,0.0,0.0,-1.4013,-1.397,-1.4354,-1.5432,0.0,0.0,0.0,0.0,-1.7949,-1.806,-1.829,-1.8575,-1.9332,-1.9968,-2.057,-2.0708,0.0,0.0,-2.5751,-2.5217,-2.466,-2.465,-2.4633,-2.4687,-2.4528,-2.4592,-2.4602,-2.4317,-2.4133,-2.3923,-2.3708,-2.3492,-2.3632,-1.369,0.0,0.0,0.0,0.0,-1.3682,-1.3592,-1.36,-1.3398,-1.3052,-1.2656,-1.2813,0.0,0.0,0.0,0.0,0.0,0.0,-1.3373,-1.3575,-1.3913,-1.4069,-1.3955,-1.4365,-1.4684,-1.5007,-1.5487,-1.6137,-1.7033,-1.7095,-1.5249,-1.1642,0.0,0.0,0.0,0.0,-1.1,-1.1782,-1.3906,-1.5502,-1.6386,-1.6814,-1.8026,-2.007,-2.0761,-2.1543,-2.2584,-2.22,-2.1342,-2.0003,-1.8592,0.0,0.0,0.0,0.0,0.0,0.0,0.0,0.0,0.0,0.0,0.0,0.0,0.0,0.0,0.0,0.0,0.0,0.0,0.0,-1.4498,-1.4424,-1.4714,0.0,0.0,0.0,0.0,0.0,0.0,0.0,0.0,0.0,-1.4706,-1.4616,-1.4892,0.0,0.0,-1.6445,-1.7134,-1.7161,-1.7535,-1.8855,-1.8425,0.0,0.0,-1.9873,-1.9941,-2.0516,-2.2416,-2.3748,-2.3653,-2.4107,-2.4413,-2.3862,-2.3767,-2.3683,-2.3484,-2.3784,-2.3977,-2.3919,-2.3338,-2.2811,-2.2621,-2.2531,-2.2541,-1.3123,-1.3792,-1.3775,-1.3568,-1.3294,-1.3297,-1.3407,-1.3548,-1.313,-1.2831,-1.2566,-1.2554,-1.2155,-1.1668,-1.2049,0.0,0.0,0.0,-1.3975,-1.4461,-1.4423,-1.4391,-1.4393,-1.4522,-1.4866,-1.5345,-1.6061,-1.6853,-1.78,-1.7567,-1.6126,-1.342,0.0,0.0,-1.0027,-1.1135,-1.1926,-1.2382,-1.4062,-1.5378,-1.6346,-1.7174,-1.847,-2.0141,-2.0562,-2.1335,-2.2513,-2.2639,-2.2275,-2.1196,-2.0032,-1.816,0.0,0.0,0.0,0.0,0.0,0.0,0.0,0.0,0.0,0.0,0.0,-1.2124,-1.1424,0.0,0.0,0.0,-1.2305,-1.3138,-1.4427,-1.4436,0.0,0.0,0.0,0.0,0.0,0.0,0.0,-1.4989,-1.425,-1.3981,-1.4661,-1.4757,-1.4897,-1.5764,-1.5891,-1.6196,-1.6588,0.0,-1.7329,-1.8433,-1.8156,-1.8267,-1.9334,-1.938,-1.9771,-2.0933,-2.1977,-2.2923,-2.3121,-2.354,-2.361,-2.314,-2.2834,-2.2631,-2.2188,-2.2418,-2.2839,-2.3081,-2.2716,-2.2195,-2.2008,-2.1919,-2.1919,-1.2693,-1.2715,-1.2985,-1.2966,-1.2705,-1.279,-1.3045,-1.3392,-1.2705,-1.2487,-1.2514,-1.2324,-1.2098,-1.1852,-1.2226,0.0,-1.3906,-1.387,-1.4292,-1.4913,-1.4629,-1.4574,-1.4721,-1.4115,-1.4287,-1.5072,-1.5658,-1.6434,-1.7311,-1.6357,-1.571,-1.5457,-1.5364,-1.4057,-1.1939,-1.2476,-1.2653,-1.2365,-1.3981,-1.5257,-1.6158,-1.7834,-1.8931,-1.9566,-2.0278,-2.1173,-2.2462,-2.239,-2.2666,-2.3221,-2.0938,-1.9081,-1.8059,0.0,0.0,0.0,0.0,0.0,0.0,0.0,0.0,0.0,0.0,0.0,0.0,0.0,0.0,0.0,-1.2423,0.0,-1.3519,-1.4186,0.0,0.0,0.0,-1.4703,-1.4105,-1.3986,-1.3889,-1.3765,0.0,0.0,-1.426,-1.4341,-1.4502,-1.4894,-1.5654,-1.6104,-1.5966,-1.6677,-1.7253,-1.7244,-1.7556,-1.793,-1.8348,-1.8761,-1.9628,-2.1052,-2.1414,-2.1922,-2.2899,-2.2924,-2.2418,-2.2116,-2.1761,-2.1453,-2.1025,-2.1025,-2.1105,-2.2017,-2.2051,-2.1919,-2.1741,-2.1606,-2.1578,-1.2346,-1.2279,-1.2991,-1.3222,-1.3052,-1.3307,-1.3561,-1.3568,-1.3045,-1.2577,-1.2093,-1.1929,-1.187,-1.187,-1.2351,-1.2771,-1.32,-1.3536,-1.3657,-1.362,-1.3559,-1.3684,-1.3843,-1.3859,-1.4216,-1.4817,-1.5597,-1.6174,-1.6554,-1.6632,-1.6109,-1.5088,-1.4521,-1.3263,-1.1368,-1.1341,-1.1678,-1.2421,-1.2562,-1.3796,-1.6102,-1.7689,-1.8754,-1.939,-2.0188,-2.0947,-2.1609,-2.165,-2.18,-2.197,-2.0576,-1.9061,-1.7301,-1.4698,0.0,0.0,0.0,0.0,0.0,0.0,0.0,0.0,0.0,-1.1276,-1.0857,0.0,-1.1775,0.0,-1.1695,-1.2203,-1.2969,-1.3103,0.0,0.0,-1.3976,-1.3915,-1.3787,-1.3253,-1.2979,-1.3297,-1.2859,-1.2763,-1.3414,-1.3531,-1.3612,-1.3902,-1.4874,-1.5827,-1.6105,-1.6361,-1.678,-1.7225,-1.7352,-1.7567,-1.804,-1.8691,-1.9354,-1.9717,-2.054,-2.0993,-2.0541,-2.0775,-2.0783,-2.0323,-2.0017,-1.9983,-2.0518,-2.0245,-2.0114,-2.081,-2.1132,-2.1275,-2.1472,-2.1139,-2.0934,-1.2254,-1.21,-1.2966,-1.3313,-1.3143,-1.3398,-1.3646,-1.3646,-1.3045,-1.2468,-1.2012,-1.1567,-1.1464,-1.1623,-1.2049,-1.2438,-1.2929,-1.3131,-1.3301,-1.3331,-1.3131,-1.3219,-1.3607,-1.3404,-1.3715,-1.4456,-1.5072,-1.5519,-1.5807,-1.6187,-1.5873,-1.4883,-1.456,-1.3453,-1.1571,-1.0778,-1.079,-1.148,-1.2211,-1.3775,-1.6223,-1.7644,-1.8158,-1.7688,-1.8181,-1.8327,-1.8002,-1.7916,-1.7989,-1.8133,-1.749,-1.6477,-1.4962,-1.3067,-1.1489,0.0,0.0,0.0,0.0,0.0,0.0,0.0,0.0,0.0,0.0,0.0,-1.1538,-1.1589,-1.1925,-1.249,-1.3399,-1.3306,-1.3364,-1.3568,-1.3411,-1.3044,-1.2466,-1.1971,-1.1693,-1.1887,-1.1513,-1.1497,-1.2371,-1.2569,-1.2817,-1.3405,-1.4259,-1.4921,-1.5325,-1.5691,-1.6116,-1.6621,-1.6864,-1.7062,-1.7493,-1.7908,-1.8351,-1.871,-1.9237,-1.9436,-1.9242,-1.9383,-1.9488,-1.9204,-1.9093,-1.9239,-1.9783,-1.9678,-1.9505,-1.9774,-2.0088,-2.0307,-2.0676,-2.0593,-2.053,-1.222,-1.2106,-1.3045,-1.3313,-1.3143,-1.3313,-1.3483,-1.3561,-1.276,-1.2169,-1.1752,-1.1179,-1.1027,-1.1283,-1.1563,-1.206,-1.2654,-1.2575,-1.2826,-1.3209,-1.2889,-1.2996,-1.3525,-1.2952,-1.3105,-1.4057,-1.4353,-1.4705,-1.507,-1.5373,-1.5219,-1.4577,-1.4629,-1.3715,-1.1781,-1.0532,-0.9985,-1.0145,-1.2251,-1.4202,-1.5959,-1.6983,-1.67,-1.5151,-1.5278,-1.4849,-1.3606,-1.3387,-1.3368,-1.3678,-1.3612,-1.3294,-1.2775,-1.1193,-1.0319,0.0,-0.8815,0.0,0.0,0.0,0.0,0.0,0.0,0.0,0.0,-1.0847,-1.1293,-1.1909,-1.2411,-1.3031,-1.3878,-1.3738,-1.3507,-1.3152,-1.2779,-1.2154,-1.1158,-1.0828,-1.0603,-1.04,-1.0188,-1.0453,-1.1402,-1.1526,-1.1999,-1.2992,-1.3373,-1.3658,-1.408,-1.4746,-1.5352,-1.5685,-1.6153,-1.6628,-1.6773,-1.6941,-1.7365,-1.7969,-1.808,-1.8008,-1.8673,-1.8571,-1.8468,-1.859,-1.8489,-1.8608,-1.8982,-1.9016,-1.8965,-1.9059,-1.9076,-1.9238,-1.9777,-1.9911,-2.0045,-1.1888,-1.21,-1.3045,-1.3313,-1.3143,-1.3137,-1.3137,-1.3124,-1.2398,-1.1498,-1.0686,-1.0773,-1.0874,-1.0967,-1.1141,-1.122,-1.1181,-1.1358,-1.1515,-1.1564,-1.1964,-1.2392,-1.2755,-1.2847,-1.3193,-1.3863,-1.3935,-1.4072,-1.4274,-1.4343,-1.3885,-1.2785,-1.2681,-1.1932,-1.0571,0.0,0.0,0.0,-1.1671,-1.2958,-1.3459,-1.2831,-1.2512,-1.2337,-1.2655,0.0,-1.2445,-1.2404,-1.2559,-1.2925,-1.2352,0.0,0.0,0.0,0.0,0.0,0.0,0.0,0.0,0.0,0.0,0.0,-0.9953,-1.0143,-1.0755,-1.14,-1.1689,-1.151,-1.2037,-1.2394,-1.2237,-1.2122,-1.2099,-1.2012,-1.1745,-1.1532,-1.1273,-1.1044,-1.0871,-1.0651,-1.0233,-1.0198,-1.0682,-1.0706,-1.1033,-1.206,-1.2145,-1.2316,-1.2904,-1.3831,-1.4766,-1.5555,-1.6038,-1.6351,-1.6477,-1.6602,-1.69,-1.7525,-1.7779,-1.7816,-1.7815,-1.8011,-1.7903,-1.7747,-1.744,-1.7456,-1.8046,-1.7901,-1.7781,-1.8338,-1.8286,-1.8516,-1.9356,-1.9234,-1.9129,-1.1324,0.0,-1.2565,-1.2808,0.0,-1.2769,-1.2529,-1.2153,-1.1987,-1.1193,-1.0205,-1.0357,-1.0483,-1.0554,-1.0802,-1.0962,-1.1111,-1.1117,-1.1186,-1.1409,-1.1632,-1.2003,-1.2599,-1.2599,-1.3053,-1.3783,-1.3618,-1.3769,-1.4042,-1.3754,-1.3388,-1.3032,-1.2732,-1.2358,-1.1842,-1.1607,-1.1323,-1.0941,-1.2043,-1.3225,-1.4494,-1.4131,-1.3507,-1.2872,0.0,0.0,0.0,0.0,0.0,0.0,0.0,0.0,0.0,0.0,0.0,-1.2035,-1.1007,-1.0674,-1.1272,-1.0533,-1.0218,-1.0893,-1.0343,-1.0093,-1.0395,-1.1033,-1.1345,-1.134,-1.1673,-1.1946,-1.202,-1.1946,-1.1785,-1.1699,-1.1435,-1.1251,-1.1165,-1.0732,-1.0494,-1.0379,-0.9952,-0.978,-1.0292,-1.0221,-1.0435,-1.12,-1.1546,-1.1758,-1.2171,-1.3028,-1.398,-1.4783,-1.513,-1.5269,-1.5168,-1.5416,-1.5679,-1.6017,-1.6307,-1.6431,-1.6464,-1.6648,-1.6782,-1.6612,-1.6534,-1.6645,-1.6979,-1.6963,-1.6932,-1.733,-1.7375,-1.7499,-1.8158,-1.8339,-1.8693,-1.0575,-1.1189,-1.1888,-1.211,-1.217,-1.217,-1.1694,-1.1072,0.0,0.0,0.0,-1.0155,-1.0212,-1.0148,-1.0663,-1.0962,-1.126,-1.1186,-1.126,-1.1558,-1.1484,-1.1855,-1.2519,-1.2398,-1.2743,-1.3541,-1.3223,-1.3271,-1.3652,-1.3045,-1.2982,-1.3309,-1.3085,-1.3114,-1.3259,-1.3411,-1.3149,-1.2551,-1.2472,-1.3446,-1.5419,-1.5363,-1.4619,-1.3437,-1.2964,-1.2046,-1.0657,-1.0403,-1.0218,-1.0305,-1.0398,-1.0463,-1.0492,-1.0573,-1.0746,-1.109,-1.0783,-1.1059,-1.1994,-1.0993,-1.0654,-1.1513,-1.0756,-1.0098,-0.9893,-1.0384,-1.0836,-1.1102,-1.1288,-1.1589,-1.2126,-1.19,-1.1651,-1.1395,-1.1123,-1.0942,-1.0781,-1.0293,-0.9922,-0.9903,-0.9567,-0.9366,-0.9816,-0.9862,-1.0014,-1.0525,-1.0922,-1.1461,-1.1674,-1.2435,-1.3245,-1.3671,-1.3928,-1.4008,-1.3874,-1.4069,-1.4275,-1.4669,-1.4931,-1.5056,-1.5248,-1.5405,-1.5535,-1.5723,-1.5726,-1.5871,-1.6117,-1.6177,-1.622,-1.643,-1.6522,-1.6598,-1.6809,-1.7398,-1.8047,-0.9938,-1.0264,-1.0963,-1.1207,-1.1173,-1.1173,-1.0712,-0.9943,-1.0515,-1.0218,-0.9443,-1.0159,-1.0293,-0.9997,-1.0738,-1.0887,-1.0669,-1.0962,-1.1031,-1.0962,-1.1409,-1.1935,-1.2365,-1.2332,-1.2501,-1.2629,-1.2331,-1.2067,-1.1895,-1.1792,-1.173,-1.1874,-1.2022,-1.2223,-1.2572,-1.2863,-1.3179,-1.3314,-1.2094,-1.1695,-1.2157,-1.088,-1.016,-0.9948,-1.0085,-0.9923,-0.9471,-0.9604,-0.9671,-0.9842,-0.9595,-1.0141,-1.1664,-1.1528,-1.205,-1.3388,-1.2743,-1.2309,-1.2506,-1.1272,-1.0486,-1.0282,-0.9887,-0.9652,-0.9756,-1.0141,-1.0529,-1.0729,-1.0871,-1.1184,-1.1386,-1.1083,-1.0685,-1.0331,-1.0075,-0.9906,-0.993,-0.9649,-0.9538,-0.9692,-0.9356,-0.9133,-0.9323,-0.9237,-0.9363,-0.9883,-1.01,-1.0242,-1.1065,-1.2141,-1.2728,-1.2679,-1.308,-1.3353,-1.3311,-1.3523,-1.388,-1.443,-1.4481,-1.4626,-1.493,-1.5063,-1.5103,-1.5381,-1.5192,-1.5281,-1.5631,-1.5646,-1.5747,-1.5994,-1.6127,-1.6287,-1.6346,-1.6505,-1.6826,-0.9077,-0.9487,-0.9847,-1.0079,-1.0115,-0.9833,-0.9481,-0.9087,-0.9535,-0.9484,-0.9094,-0.9841,-1.0067,-0.9981,-1.045,-1.0748,-1.0748,-1.0611,-1.0539,-1.0689,-1.0904,-1.1119,-1.1533,-1.155,-1.1706,-1.1895,-1.1607,-1.1485,-1.1478,-1.1141,-1.1141,-1.1498,-1.1715,-1.1915,-1.204,-1.223,-1.2419,-1.2709,-1.2283,-1.2439,-1.3222,-1.212,-1.1766,-1.2201,-1.1926,-1.192,-1.2049,-1.207,-1.215,-1.2241,-1.2157,-1.2355,-1.2851,-1.2681,-1.2712,-1.3064,-1.2632,-1.2164,-1.1766,-1.0783,-0.9997,-0.9531,-0.9301,-0.9199,-0.9135,-0.9493,-0.9847,-1.0196,-1.0119,-1.0178,-1.0611,-1.0227,-0.9902,-0.9735,-0.949,-0.9409,-0.9313,-0.9057,-0.8917,-0.9063,-0.8904,-0.8732,-0.8978,-0.8907,-0.8874,-0.9277,-0.9359,-0.9776,-1.0537,-1.1012,-1.1462,-1.1914,-1.2258,-1.2486,-1.2523,-1.2789,-1.3172,-1.3558,-1.3712,-1.3804,-1.4007,-1.4103,-1.4273,-1.4351,-1.4475,-1.4738,-1.4961,-1.4998,-1.5129,-1.534,-1.5495,-1.5553,-1.57,-1.5691,-1.6054,-0.8238,-0.8802,-0.88,-0.8941,-0.9174,-0.8698,-0.8551,-0.8479,-0.8703,-0.8775,-0.8856,-0.9614,-0.9922,-0.9976,-1.0386,-1.0816,-1.0918,-1.0467,-1.0417,-1.0621,-1.0426,-1.0541,-1.0873,-1.0823,-1.0996,-1.1235,-1.0903,-1.0824,-1.0988,-1.0406,-1.0444,-1.1044,-1.1336,-1.1404,-1.1404,-1.1508,-1.1579,-1.1717,-1.2079,-1.2826,-1.4059,-1.3484,-1.3514,-1.4013,-1.3621,-1.3532,-1.3899,-1.3903,-1.3925,-1.4005,-1.4079,-1.3852,-1.3391,-1.314,-1.2763,-1.2197,-1.1844,-1.1331,-1.0578,-1.0089,-0.952,-0.9075,-0.893,-0.8869,-0.8708,-0.8773,-0.9089,-0.9612,-0.9271,-0.9178,-0.9692,-0.9412,-0.911,-0.9025,-0.8868,-0.8685,-0.8613,-0.833,-0.8238,-0.8387,-0.834,-0.8331,-0.8479,-0.8556,-0.8565,-0.8651,-0.8937,-0.9468,-0.9992,-0.9911,-1.0312,-1.113,-1.1514,-1.1676,-1.1832,-1.2048,-1.2335,-1.257,-1.2826,-1.2979,-1.3072,-1.325,-1.3411,-1.3513,-1.3885,-1.4183,-1.4305,-1.4449,-1.4673,-1.4864,-1.4872,-1.4904,-1.5056,-1.5029,-1.5416,-0.7508,-0.7885,-0.7919,-0.8137,-0.8435,-0.8259,-0.8322,-0.8623,-0.8327,-0.8403,-0.878,-0.976,-1.0062,-1.0067,-1.084,-1.1095,-1.1003,-1.0942,-1.0789,-1.061,-1.0435,-1.0534,-1.076,-1.0552,-1.0498,-1.0533,-1.0154,-0.986,-0.9768,-0.9538,-0.9581,-0.9819,-1.0098,-1.0226,-1.0365,-1.052,-1.0712,-1.0857,-1.0632,-1.1009,-1.2042,-1.2294,-1.2294,-1.2054,-1.2185,-1.2246,-1.2367,-1.2452,-1.265,-1.2938,-1.2763,-1.2582,-1.2592,-1.206,-1.1627,-1.1567,-1.0779,-0.9939,-0.9211,-0.9222,-0.9198,-0.8973,-0.8802,-0.8655,-0.8661,-0.8408,-0.8417,-0.8846,-0.8679,-0.8688,-0.898,-0.8702,-0.8344,-0.8121,-0.7876,-0.761,-0.7484,-0.7293,-0.7354,-0.7585,-0.7795,-0.794,-0.8156,-0.8165,-0.8174,-0.8223,-0.8514,-0.8803,-0.9155,-0.9316,-0.9702,-1.0368,-1.0617,-1.0842,-1.1329,-1.149,-1.1789,-1.2081,-1.223,-1.2418,-1.2553,-1.2755,-1.2994,-1.3089,-1.3346,-1.3637,-1.4065,-1.4274,-1.4425,-1.4569,-1.4569,-1.4641,-1.4601,-1.4505,-1.4822,-0.6949,-0.7099,-0.7249,-0.7322,-0.7468,-0.7446,-0.7614,-0.7931,-0.7974,-0.8138,-0.8604,-0.925,-0.9411,-0.9247,-0.9708,-0.978,-0.9617,-0.9793,-0.9749,-0.9609,-0.9632,-0.9729,-0.9778,-0.9616,-0.9556,-0.9412,-0.9235,-0.9125,-0.9023,-0.9082,-0.9139,-0.9177,-0.9432,-0.9622,-0.9693,-0.9947,-1.0206,-1.0329,-1.0219,-1.0213,-1.0477,-1.1081,-1.1323,-1.1341,-1.1491,-1.1567,-1.1573,-1.1833,-1.2037,-1.2187,-1.2051,-1.1974,-1.185,-1.1376,-1.0896,-1.0337,-0.9446,-0.891,-0.8775,-0.8528,-0.8339,-0.8265,-0.8112,-0.8056,-0.8119,-0.7922,-0.789,-0.8156,-0.8106,-0.8102,-0.825,-0.8021,-0.7787,-0.7633,-0.7561,-0.7403,-0.7261,-0.718,-0.7226,-0.7207,-0.7491,-0.766,-0.7828,-0.7956,-0.804,-0.7966,-0.8071,-0.8263,-0.8446,-0.8486,-0.8782,-0.9357,-0.9424,-0.9918,-1.1003,-1.1409,-1.1545,-1.17,-1.1781,-1.1855,-1.1842,-1.1929,-1.2077,-1.2452,-1.282,-1.3193,-1.363,-1.3928,-1.4072,-1.4194,-1.4274,-1.4353,-1.4497,-1.4387,-1.4609,-0.6331,-0.6402,-0.6667,-0.6718,-0.663,-0.6771,-0.6994,-0.7234,-0.7417,-0.7734,-0.8132,-0.8389,-0.837,-0.8332,-0.8795,-0.8953,-0.8842,-0.8898,-0.8859,-0.8788,-0.8986,-0.9017,-0.8882,-0.8952,-0.8931,-0.8783,-0.8771,-0.8663,-0.8635,-0.877,-0.8737,-0.8623,-0.8854,-0.9011,-0.9081,-0.9262,-0.9454,-0.9646,-0.9646,-0.9418,-0.9261,-0.9802,-1.0233,-1.0491,-1.0651,-1.0725,-1.0792,-1.1055,-1.1189,-1.1323,-1.1249,-1.1155,-1.0889,-1.047,-0.9882,-0.9128,-0.8462,-0.8223,-0.8429,-0.7956,-0.7725,-0.7753,-0.7613,-0.754,-0.7594,-0.7483,-0.747,-0.7534,-0.7576,-0.7513,-0.7714,-0.7561,-0.7484,-0.7407,-0.7291,-0.7186,-0.6878,-0.6851,-0.6753,-0.6737,-0.6786,-0.7068,-0.727,-0.7616,-0.7786,-0.7608,-0.7578,-0.7689,-0.7842,-0.7748,-0.7891,-0.8654,-0.8584,-0.9127,-1.0452,-1.0706,-1.0894,-1.1065,-1.1046,-1.1052,-1.1175,-1.1267,-1.1484,-1.2077,-1.2378,-1.2673,-1.3193,-1.3492,-1.3621,-1.3777,-1.3787,-1.3798,-1.3909,-1.3925,-1.4042,-0.5789,-0.5996,-0.6245,-0.6193,-0.603,-0.6313,-0.6535,-0.6713,-0.675,-0.6964,-0.733,-0.7229,-0.7134,-0.722,-0.8508,-0.9243,-0.9136,-0.8758,-0.8585,-0.8564,-0.8581,-0.8554,-0.856,-0.8818,-0.8941,-0.8809,-0.8717,-0.8507,-0.8213,-0.8388,-0.8329,-0.8017,-0.8206,-0.8371,-0.8511,-0.8436,-0.8501,-0.8829,-0.8683,-0.8462,-0.8329,-0.8494,-0.8868,-0.9344,-0.9373,-0.9584,-0.9835,-0.9906,-1.004,-1.0347,-1.006,-0.9843,-0.9792,-0.9128,-0.8515,-0.8074,-0.7923,-0.7934,-0.7918,-0.7603,-0.75,-0.7692,-0.7373,-0.727,-0.7266,-0.7099,-0.7041,-0.7052,-0.6885,-0.6996,-0.7391,-0.7415,-0.7279,-0.6973,-0.6716,-0.6496,-0.6186,-0.6082,-0.5909,-0.5885,-0.5971,-0.6208,-0.6471,-0.696,-0.7212,-0.7115,-0.7036,-0.7153,-0.7257,-0.7266,-0.754,-0.7962,-0.8248,-0.8574,-0.9238,-0.9635,-0.9678,-0.9854,-1.0162,-1.0309,-1.0688,-1.1065,-1.1378,-1.1736,-1.1965,-1.2257,-1.2785,-1.3034,-1.3114,-1.3167,-1.2964,-1.2998,-1.3225,-1.2912,-1.3076,-0.5398,-0.5699,-0.579,-0.5732,-0.5706,-0.5698,-0.5856,-0.6219,-0.6361,-0.6588,-0.6911,-0.6863,-0.6781,-0.6881,-0.7364,-0.7611,-0.7673,-0.7797,-0.7966,-0.8027,-0.8148,-0.8236,-0.8296,-0.8371,-0.8222,-0.8085,-0.8005,-0.7894,-0.7807,-0.8064,-0.8081,-0.7955,-0.7947,-0.7987,-0.8122,-0.7987,-0.8052,-0.8231,-0.8116,-0.7933,-0.7892,-0.7822,-0.7962,-0.8226,-0.8821,-0.9136,-0.9162,-0.9506,-0.9724,-0.9711,-0.9407,-0.9285,-0.9221,-0.8678,-0.8175,-0.774,-0.7629,-0.7586,-0.7524,-0.7149,-0.7017,-0.7202,-0.692,-0.6781,-0.6846,-0.6745,-0.6646,-0.6698,-0.6595,-0.6668,-0.673,-0.6772,-0.6772,-0.6618,-0.6434,-0.6255,-0.6103,-0.5906,-0.5694,-0.5544,-0.5524,-0.5765,-0.6261,-0.6587,-0.6762,-0.681,-0.6786,-0.6806,-0.6707,-0.6747,-0.6899,-0.7153,-0.7279,-0.7414,-0.7692,-0.8646,-0.9152,-0.9162,-0.9303,-0.9472,-0.9745,-0.9927,-1.0139,-1.0683,-1.1125,-1.1423,-1.1786,-1.2079,-1.2277,-1.2276,-1.2151,-1.226,-1.2608,-1.2424,-1.2681,-0.4893,-0.5179,-0.5211,-0.5228,-0.5204,-0.5202,-0.529,-0.558,-0.5652,-0.5938,-0.6179,-0.6131,-0.6187,-0.6293,-0.6248,-0.6327,-0.6465,-0.6967,-0.7265,-0.7269,-0.7461,-0.7657,-0.7722,-0.7652,-0.7643,-0.756,-0.7414,-0.731,-0.7087,-0.7531,-0.7603,-0.7414,-0.7477,-0.7585,-0.7599,-0.7521,-0.753,-0.7638,-0.7499,-0.7399,-0.738,-0.7235,-0.7173,-0.7317,-0.7979,-0.8437,-0.8569,-0.9071,-0.9218,-0.8999,-0.8825,-0.8572,-0.8364,-0.8128,-0.7793,-0.7403,-0.728,-0.7223,-0.7225,-0.6803,-0.6606,-0.6854,-0.6618,-0.6477,-0.6578,-0.6395,-0.6325,-0.6337,-0.615,-0.6007,-0.5937,-0.5937,-0.5976,-0.6122,-0.6051,-0.5884,-0.5803,-0.5547,-0.5332,-0.5121,-0.5235,-0.5487,-0.5908,-0.6139,-0.6299,-0.6479,-0.6607,-0.6546,-0.6453,-0.642,-0.6416,-0.6548,-0.67,-0.6775,-0.6999,-0.7644,-0.8152,-0.824,-0.8508,-0.8672,-0.8837,-0.8932,-0.9174,-0.9689,-1.0043,-1.0396,-1.071,-1.1139,-1.1242,-1.135,-1.1256,-1.1311,-1.1723,-1.2102,-1.2342,-0.4227,-0.4362,-0.4453,-0.4566,-0.4627,-0.4707,-0.477,-0.4791,-0.4849,-0.4995,-0.5192,-0.4993,-0.5219,-0.5339,-0.5339,-0.5452,-0.5751,-0.6319,-0.6593,-0.6548,-0.6675,-0.6806,-0.7007,-0.6999,-0.7084,-0.7357,-0.7157,-0.6736,-0.6245,-0.6726,-0.6813,-0.6519,-0.6937,-0.7073,-0.6921,-0.6926,-0.6993,-0.7048,-0.687,-0.6757,-0.6783,-0.6659,-0.6567,-0.6469,-0.691,-0.7386,-0.7988,-0.8414,-0.8486,-0.8136,-0.81,-0.7751,-0.7249,-0.7284,-0.7208,-0.6841,-0.6773,-0.6881,-0.6992,-0.656,-0.6498,-0.6711,-0.6539,-0.6362,-0.6378,-0.6109,-0.5922,-0.5874,-0.547,-0.5186,-0.5125,-0.5001,-0.5157,-0.5651,-0.5514,-0.5309,-0.5142,-0.4913,-0.4767,-0.4706,-0.4846,-0.5027,-0.5233,-0.5473,-0.5811,-0.6062,-0.625,-0.6382,-0.6358,-0.6354,-0.642,-0.6416,-0.6482,-0.6544,-0.6544,-0.6618,-0.6889,-0.7184,-0.7611,-0.7913,-0.8278,-0.8444,-0.8769,-0.9207,-0.9468,-0.9808,-1.0061,-1.0342,-1.0539,-1.0554,-1.0516,-1.0637,-1.1083,-1.1518,-1.1687,-0.3415,-0.3475,-0.3677,-0.3779,-0.3837,-0.3876,-0.3899,-0.3964,-0.4298,-0.4498,-0.4532,-0.4644,-0.4779,-0.4845,-0.4846,-0.4974,-0.5202,-0.5506,-0.5902,-0.6322,-0.6346,-0.6474,-0.6671,-0.6605,-0.654,-0.6511,-0.624,-0.6023,-0.5914,-0.6142,-0.6203,-0.6194,-0.6324,-0.648,-0.6538,-0.6419,-0.6471,-0.6547,-0.6407,-0.6303,-0.6292,-0.6174,-0.6013,-0.6028,-0.6119,-0.6346,-0.6524,-0.7307,-0.7565,-0.7328,-0.7307,-0.706,-0.6745,-0.6804,-0.662,-0.6234,-0.6233,-0.6315,-0.6401,-0.6292,-0.628,-0.6455,-0.6404,-0.6276,-0.6214,-0.5804,-0.554,-0.5484,-0.5096,-0.4764,-0.4694,-0.4564,-0.4663,-0.508,-0.4851,-0.4766,-0.483,-0.4721,-0.4697,-0.4561,-0.4425,-0.4492,-0.4691,-0.4888,-0.509,-0.5554,-0.5752,-0.5951,-0.6218,-0.6218,-0.6284,-0.6354,-0.6416,-0.6412,-0.635,-0.635,-0.6482,-0.6741,-0.7092,-0.7364,-0.7712,-0.7994,-0.8307,-0.8596,-0.8925,-0.9181,-0.9423,-0.9586,-0.9794,-1.0064,-1.0123,-1.0404,-1.0758,-1.0996,-1.1178,-0.24,-0.2603,-0.2814,-0.3055,-0.3183,-0.3296,-0.3344,-0.3504,-0.3755,-0.3954,-0.4059,-0.4103,-0.4224,-0.4262,-0.4203,-0.4339,-0.4544,-0.4646,-0.4971,-0.5528,-0.5785,-0.5917,-0.6181,-0.5981,-0.57,-0.5412,-0.5307,-0.528,-0.5239,-0.5501,-0.5556,-0.556,-0.5746,-0.5801,-0.5822,-0.5746,-0.5817,-0.586,-0.5743,-0.568,-0.578,-0.5631,-0.5622,-0.5681,-0.5673,-0.5609,-0.5677,-0.6179,-0.6473,-0.6487,-0.6535,-0.644,-0.628,-0.6307,-0.6231,-0.5956,-0.5901,-0.6049,-0.6072,-0.6011,-0.598,-0.6158,-0.5966,-0.5762,-0.5634,-0.5246,-0.4932,-0.4807,-0.4484,-0.417,-0.4162,-0.4097,-0.4102,-0.4294,-0.4254,-0.4289,-0.4359,-0.4359,-0.4292,-0.4225,-0.4092,-0.4095,-0.4225,-0.4422,-0.4489,-0.5024,-0.5355,-0.5554,-0.5885,-0.6017,-0.6079,-0.6148,-0.6152,-0.6152,-0.6218,-0.6222,-0.6222,-0.6416,-0.6626,-0.6915,-0.7193,-0.7461,-0.7753,-0.8022,-0.8285,-0.8624,-0.887,-0.8978,-0.9197,-0.9466,-0.9779,-0.9977,-1.0231,-1.0618,-1.087,-0.1344,-0.1805,-0.1953,-0.2325,-0.277,-0.2882,-0.3017,-0.3202,-0.331,-0.338,-0.347,-0.3436,-0.3454,-0.3632,-0.3467,-0.3589,-0.384,-0.3816,-0.3941,-0.4202,-0.4647,-0.5036,-0.5248,-0.5047,-0.4727,-0.4376,-0.4394,-0.4374,-0.4324,-0.4608,-0.4739,-0.4678,-0.508,-0.519,-0.5005,-0.5072,-0.519,-0.5139,-0.5033,-0.5085,-0.5258,-0.5191,-0.5238,-0.5454,-0.5285,-0.5171,-0.5175,-0.5136,-0.5258,-0.5554,-0.5797,-0.5858,-0.5827,-0.5975,-0.5914,-0.5694,-0.574,-0.5776,-0.5897,-0.5735,-0.5639,-0.5731,-0.5422,-0.5093,-0.5013,-0.4587,-0.4218,-0.41,-0.3719,-0.3525,-0.347,-0.3416,-0.348,-0.3554,-0.3751,-0.3899,-0.3799,-0.3789,-0.3835,-0.3848,-0.3803,-0.3816,-0.3939,-0.4074,-0.4223,-0.4558,-0.4957,-0.5289,-0.545,-0.5636,-0.5789,-0.5832,-0.5834,-0.5819,-0.5841,-0.5905,-0.5901,-0.5965,-0.6129,-0.644,-0.6772,-0.706,-0.7279,-0.7538,-0.7847,-0.8107,-0.8339,-0.8458,-0.8801,-0.921,-0.946,-0.953,-0.9806,-1.0203,-1.045,-0.0202,-0.0737,-0.1042,-0.1416,-0.1924,-0.2058,-0.2163,-0.2306,-0.2611,-0.2793,-0.2899,-0.2966,-0.3018,-0.3101,-0.2923,-0.2987,-0.3159,-0.3134,-0.3258,-0.3444,-0.3489,-0.389,-0.4209,-0.4097,-0.3898,-0.3738,-0.3553,-0.3378,-0.3239,-0.3516,-0.3685,-0.3904,-0.4278,-0.4619,-0.4809,-0.4894,-0.4894,-0.4857,-0.4846,-0.4791,-0.4684,-0.4739,-0.4853,-0.4853,-0.4632,-0.4519,-0.4463,-0.4239,-0.4518,-0.5239,-0.5394,-0.547,-0.5519,-0.553,-0.5464,-0.5309,-0.5238,-0.5191,-0.5258,-0.5307,-0.5281,-0.5214,-0.5009,-0.4786,-0.4661,-0.418,-0.3827,-0.3605,-0.335,-0.303,-0.2883,-0.283,-0.2915,-0.3101,-0.3351,-0.3537,-0.3486,-0.347,-0.3595,-0.36,-0.354,-0.351,-0.3528,-0.3567,-0.3671,-0.4005,-0.4397,-0.4841,-0.4968,-0.5257,-0.5442,-0.545,-0.5446,-0.5454,-0.5516,-0.5516,-0.5512,-0.5501,-0.5674,-0.5955,-0.639,-0.6846,-0.709,-0.7345,-0.7618,-0.7917,-0.7896,-0.7968,-0.8468,-0.8918,-0.9041,-0.914,-0.9494,-0.9901,-1.0026,0.0935,0.0461,0.0192,-0.0314,-0.0929,-0.1141,-0.1373,-0.1684,-0.2028,-0.2274,-0.2395,-0.251,-0.259,-0.2701,-0.2486,-0.249,-0.2586,-0.2416,-0.2441,-0.2532,-0.2368,-0.2741,-0.328,-0.327,-0.3106,-0.3101,-0.2765,-0.2689,-0.2629,-0.2685,-0.2852,-0.313,-0.3461,-0.379,-0.3852,-0.4125,-0.4181,-0.4184,-0.4181,-0.4125,-0.4184,-0.4073,-0.4128,-0.4128,-0.391,-0.3747,-0.3802,-0.3633,-0.3946,-0.4671,-0.4964,-0.5012,-0.5031,-0.5075,-0.5073,-0.4959,-0.4904,-0.4901,-0.4916,-0.4941,-0.4929,-0.4773,-0.451,-0.4244,-0.3949,-0.3566,-0.3163,-0.2943,-0.2693,-0.2463,-0.2302,-0.2251,-0.233,-0.2407,-0.2634,-0.2891,-0.3115,-0.3235,-0.327,-0.3279,-0.3248,-0.3225,-0.3225,-0.3151,-0.3234,-0.3494,-0.3862,-0.4091,-0.4307,-0.4731,-0.5009,-0.4975,-0.5062,-0.5093,-0.5107,-0.5107,-0.515,-0.5132,-0.525,-0.546,-0.5942,-0.6493,-0.6808,-0.7021,-0.7362,-0.7618,-0.7565,-0.7633,-0.8095,-0.8393,-0.8521,-0.876,-0.9162,-0.9386,-0.9504,0.1975,0.1541,0.1368,0.0845,0.0059,-0.0285,-0.0744,-0.1276,-0.1485,-0.1769,-0.196,-0.1982,-0.2076,-0.2341,-0.2012,-0.1961,-0.2076,-0.1744,-0.1621,-0.1573,-0.1521,-0.1827,-0.2475,-0.2507,-0.2424,-0.2417,-0.2069,-0.2065,-0.2119,-0.212,-0.2233,-0.2516,-0.2738,-0.2852,-0.3074,-0.3186,-0.3294,-0.3516,-0.3461,-0.3463,-0.3574,-0.3408,-0.335,-0.3461,-0.3297,-0.319,-0.3188,-0.3132,-0.3416,-0.4298,-0.4405,-0.447,-0.4529,-0.4739,-0.4794,-0.4743,-0.4739,-0.4794,-0.4791,-0.4643,-0.4532,-0.4379,-0.3981,-0.363,-0.3324,-0.288,-0.2486,-0.2269,-0.1905,-0.1862,-0.175,-0.1742,-0.1761,-0.1835,-0.1816,-0.217,-0.2724,-0.2919,-0.2926,-0.293,-0.2988,-0.294,-0.2942,-0.295,-0.2962,-0.3216,-0.3511,-0.3675,-0.3886,-0.416,-0.4372,-0.438,-0.4502,-0.472,-0.472,-0.472,-0.47,-0.474,-0.4831,-0.5103,-0.5509,-0.6002,-0.629,-0.6608,-0.6885,-0.7105,-0.7168,-0.7428,-0.7724,-0.7913,-0.8042,-0.8292,-0.8641,-0.8813,-0.8928,0.2347,0.1733,0.1642,0.1124,0.0352,0.0057,-0.0225,-0.0509,-0.09,-0.1109,-0.1319,-0.1388,-0.149,-0.1567,-0.1382,-0.129,-0.1283,-0.1114,-0.1051,-0.1027,-0.0999,-0.1049,-0.1434,-0.1607,-0.1794,-0.173,-0.1689,-0.1478,-0.1386,-0.1594,-0.1749,-0.1955,-0.2343,-0.2685,-0.2845,-0.3049,-0.3292,-0.3181,-0.3287,-0.3166,-0.2947,-0.2888,-0.2832,-0.2832,-0.2728,-0.2625,-0.2633,-0.2519,-0.2683,-0.3239,-0.3738,-0.4064,-0.4187,-0.4301,-0.4353,-0.4408,-0.4356,-0.4359,-0.4301,-0.4245,-0.4079,-0.3858,-0.3466,-0.3077,-0.2745,-0.2408,-0.2073,-0.185,-0.1684,-0.1458,-0.1289,-0.1178,-0.1245,-0.1431,-0.1478,-0.1598,-0.2067,-0.2279,-0.2422,-0.2598,-0.264,-0.2674,-0.2678,-0.2732,-0.2808,-0.3009,-0.3179,-0.3404,-0.3548,-0.3679,-0.3826,-0.3909,-0.4022,-0.4216,-0.4213,-0.4216,-0.4274,-0.4387,-0.449,-0.4592,-0.5042,-0.5459,-0.5819,-0.6104,-0.6357,-0.6587,-0.6819,-0.6941,-0.7198,-0.732,-0.7512,-0.7779,-0.7999,-0.8224,-0.8437,0.2958,0.2523,0.2441,0.1922,0.1202,0.0943,0.0711,0.0328,0.0055,-0.0217,-0.0429,-0.0544,-0.065,-0.08,-0.065,-0.0598,-0.0592,-0.0381,-0.0325,-0.0321,-0.0326,-0.0437,-0.0601,-0.0821,-0.1047,-0.1113,-0.1159,-0.0996,-0.0944,-0.1102,-0.1326,-0.1562,-0.1822,-0.2021,-0.2286,-0.2583,-0.2552,-0.2446,-0.2505,-0.2452,-0.2296,-0.2135,-0.2133,-0.2027,-0.1975,-0.1976,-0.2027,-0.2027,-0.2184,-0.2568,-0.3035,-0.3471,-0.368,-0.3802,-0.3855,-0.3796,-0.3858,-0.3805,-0.3802,-0.3805,-0.3747,-0.3527,-0.3132,-0.2798,-0.2408,-0.2017,-0.1626,-0.1346,-0.1178,-0.0954,-0.0785,-0.0729,-0.0852,-0.1028,-0.1078,-0.1131,-0.1485,-0.1754,-0.2015,-0.2189,-0.2222,-0.2295,-0.2378,-0.2482,-0.2595,-0.2698,-0.2811,-0.3029,-0.3078,-0.3273,-0.3372,-0.3462,-0.3556,-0.3666,-0.3722,-0.3784,-0.3851,-0.3969,-0.4147,-0.4254,-0.4439,-0.4901,-0.5385,-0.5665,-0.5965,-0.6254,-0.6509,-0.6607,-0.6738,-0.7061,-0.7289,-0.7312,-0.7458,-0.7703,-0.7925,0.3517,0.3242,0.3242,0.2792,0.2106,0.1885,0.1492,0.1067,0.0911,0.0533,0.0368,0.0264,0.0,-0.0105,-0.0053,0.0052,0.0103,0.0259,0.0315,0.0311,0.0262,0.0106,-0.0107,-0.0213,-0.0374,-0.0552,-0.0655,-0.0602,-0.0602,-0.0769,-0.0968,-0.1202,-0.1289,-0.1481,-0.1574,-0.1647,-0.1782,-0.1839,-0.1788,-0.1682,-0.1629,-0.1476,-0.1374,-0.1273,-0.1274,-0.1327,-0.1382,-0.1487,-0.1686,-0.2021,-0.2306,-0.2589,-0.2848,-0.3128,-0.3246,-0.3074,-0.3244,-0.3246,-0.3299,-0.3357,-0.3304,-0.319,-0.28,-0.2465,-0.2074,-0.1569,-0.1178,-0.0898,-0.0729,-0.0505,-0.0393,-0.0393,-0.0449,-0.0562,-0.0617,-0.0729,-0.0953,-0.1232,-0.1343,-0.1737,-0.1801,-0.1866,-0.2033,-0.2221,-0.2312,-0.2465,-0.2577,-0.2635,-0.2745,-0.28,-0.2916,-0.2916,-0.297,-0.3137,-0.3135,-0.3249,-0.3357,-0.3691,-0.386,-0.4024,-0.4135,-0.4629,-0.5106,-0.5274,-0.5574,-0.5889,-0.6132,-0.616,-0.64,-0.6812,-0.6881,-0.6823,-0.7012,-0.7263,-0.7466,0.3456,0.3023,0.3079,0.2746,0.2252,0.1969,0.1693,0.1338,0.1196,0.0895,0.0691,0.0568,0.0563,0.0448,0.0403,0.0556,0.0704,0.076,0.0703,0.0791,0.0752,0.056,0.0353,0.0254,0.0154,-0.0103,-0.0206,-0.0155,-0.0256,-0.0449,-0.0715,-0.082,-0.1073,-0.1223,-0.1271,-0.1414,-0.1498,-0.1442,-0.1445,-0.1396,-0.1197,-0.1147,-0.0998,-0.0847,-0.0796,-0.0798,-0.0808,-0.0878,-0.1093,-0.1529,-0.1668,-0.1824,-0.2014,-0.2447,-0.2724,-0.2785,-0.2685,-0.2631,-0.2683,-0.2687,-0.2519,-0.2294,-0.2071,-0.168,-0.1345,-0.101,-0.0785,-0.0561,-0.0449,-0.0336,-0.0224,-0.0224,-0.0224,-0.028,-0.0224,-0.028,-0.0393,-0.0448,-0.056,-0.1064,-0.1233,-0.1401,-0.1625,-0.1794,-0.1962,-0.2128,-0.224,-0.2352,-0.2408,-0.2408,-0.241,-0.241,-0.2352,-0.2465,-0.2577,-0.2745,-0.2856,-0.3357,-0.3635,-0.3913,-0.4079,-0.4467,-0.4842,-0.5012,-0.5181,-0.5418,-0.5574,-0.5725,-0.597,-0.6276,-0.6318,-0.6349,-0.6543,-0.6794,-0.7044,0.3874,0.3553,0.3405,0.31,0.2729,0.2478,0.2359,0.2215,0.1992,0.1804,0.1656,0.1481,0.1334,0.1204,0.1114,0.1224,0.1323,0.1126,0.1065,0.1103,0.1018,0.0887,0.0681,0.0688,0.0685,0.0637,0.0539,0.0198,-0.01,-0.0348,-0.0493,-0.0649,-0.0892,-0.093,-0.0924,-0.1101,-0.1147,-0.1001,-0.105,-0.105,-0.0763,-0.0763,-0.062,-0.0476,-0.0429,-0.0381,-0.0382,-0.0482,-0.0581,-0.077,-0.1052,-0.112,-0.1236,-0.1422,-0.18,-0.1913,-0.1886,-0.1793,-0.1789,-0.179,-0.1734,-0.151,-0.1399,-0.1176,-0.0785,-0.0505,-0.0336,-0.0112,0.0,0.0056,0.0112,0.0112,0.0056,0.0,0.0056,0.0,-0.0056,0.0056,-0.0112,-0.0393,-0.0561,-0.0785,-0.1122,-0.1346,-0.157,-0.1737,-0.1959,-0.2015,-0.2073,-0.2073,-0.2017,-0.2073,-0.2073,-0.2184,-0.2298,-0.241,-0.2579,-0.297,-0.3302,-0.358,-0.3855,-0.4132,-0.4408,-0.4653,-0.4853,-0.4904,-0.5246,-0.5448,-0.5584,-0.5782,-0.5968,-0.6142,-0.6182,-0.6337,-0.6603,0.4319,0.4066,0.3814,0.3482,0.3213,0.308,0.2994,0.2945,0.2745,0.2587,0.2541,0.2276,0.2089,0.1978,0.1834,0.1837,0.1931,0.1599,0.1503,0.1501,0.1362,0.1198,0.1015,0.1009,0.1035,0.1035,0.1035,0.0765,0.0339,0.0,-0.0245,-0.0389,-0.0475,-0.0611,-0.0702,-0.0735,-0.0585,-0.0539,-0.0494,-0.045,-0.0315,-0.0225,-0.018,-0.009,-0.009,0.0,0.0045,-0.0046,-0.0046,-0.0138,-0.033,-0.0535,-0.0346,-0.0462,-0.0631,-0.0743,-0.0822,-0.0837,-0.084,-0.0952,-0.1007,-0.0783,-0.0841,-0.0617,-0.0336,-0.0056,0.0112,0.0336,0.0393,0.0393,0.0393,0.0449,0.0393,0.0336,0.0224,0.0168,0.0224,0.028,0.0336,0.0168,0.0112,-0.0168,-0.0505,-0.0729,-0.0953,-0.1065,-0.1288,-0.1456,-0.1512,-0.1681,-0.1681,-0.1793,-0.1849,-0.1961,-0.2073,-0.224,-0.241,-0.2747,-0.2968,-0.3188,-0.3466,-0.3688,-0.391,-0.4128,-0.4184,-0.4294,-0.4684,-0.5183,-0.5458,-0.5622,-0.5782,-0.5946,-0.6055,-0.6168,-0.6332,0.4613,0.4122,0.3954,0.3724,0.3478,0.3272,0.3036,0.2905,0.3032,0.283,0.2587,0.2518,0.2419,0.2234,0.2086,0.2127,0.2125,0.1996,0.1912,0.1959,0.1867,0.1688,0.1414,0.136,0.1363,0.1366,0.1225,0.1129,0.0965,0.0644,0.0366,0.0183,-0.0184,-0.0408,-0.0319,-0.0271,-0.027,-0.018,-0.0135,-0.0045,0.009,0.0225,0.0269,0.0315,0.0405,0.0494,0.0541,0.0504,0.0553,0.0407,0.0288,0.0193,0.0234,0.0049,0.0201,0.0259,0.0107,-0.028,-0.0224,-0.028,-0.0223,-0.0056,-0.0112,0.0056,0.0224,0.0336,0.0393,0.0393,0.0449,0.0561,0.0673,0.0673,0.0673,0.0673,0.0673,0.0561,0.0505,0.0449,0.0505,0.0617,0.0505,0.028,0.0,-0.0168,-0.0336,-0.0449,-0.0617,-0.084,-0.1008,-0.1177,-0.1345,-0.1457,-0.1569,-0.1682,-0.1794,-0.1961,-0.213,-0.2467,-0.2577,-0.2742,-0.3021,-0.3244,-0.3244,-0.3408,-0.3519,-0.3849,-0.4349,-0.4849,-0.5238,-0.5403,-0.5399,-0.5673,-0.6,-0.6055,-0.6059,0.5613,0.4888,0.4487,0.4292,0.4205,0.3983,0.3757,0.354,0.345,0.3233,0.2926,0.2778,0.2637,0.2462,0.2284,0.2284,0.2326,0.2281,0.2192,0.233,0.2284,0.2148,0.1971,0.1923,0.1878,0.1834,0.1834,0.1884,0.17,0.1208,0.0761,0.0583,0.0359,0.0225,0.018,0.0269,0.0269,0.0225,0.0225,0.027,0.036,0.0538,0.0717,0.0807,0.0987,0.1122,0.1173,0.118,0.1281,0.1217,0.1075,0.1037,0.1082,0.0977,0.0909,0.1117,0.0971,0.0782,0.0673,0.056,0.061,0.0661,0.0609,0.0505,0.0617,0.0673,0.0729,0.0785,0.0785,0.0841,0.0954,0.101,0.1066,0.1066,0.0954,0.0954,0.0841,0.0729,0.0729,0.0841,0.0897,0.0729,0.0617,0.0448,0.028,0.0167,-0.0056,-0.028,-0.056,-0.0785,-0.0897,-0.1065,-0.1234,-0.1346,-0.1458,-0.157,-0.1682,-0.1908,-0.1964,-0.2186,-0.2633,-0.2798,-0.2742,-0.2965,-0.3299,-0.363,-0.4073,-0.4294,-0.457,-0.4791,-0.4956,-0.5285,-0.5618,-0.5786,-0.5841,0.6689,0.5953,0.5135,0.4836,0.4874,0.4535,0.4322,0.422,0.3963,0.3712,0.3476,0.3268,0.2987,0.2744,0.2706,0.2812,0.2857,0.2724,0.2679,0.2679,0.2679,0.2682,0.2546,0.2504,0.2502,0.2593,0.246,0.237,0.2148,0.1835,0.1344,0.0989,0.0807,0.0763,0.0763,0.0717,0.0627,0.0494,0.045,0.0539,0.0674,0.0851,0.1031,0.1254,0.1524,0.1705,0.1794,0.1798,0.1841,0.1844,0.1711,0.16,0.1631,0.1572,0.1517,0.1635,0.1612,0.1707,0.1514,0.1417,0.1362,0.1302,0.1194,0.0882,0.094,0.1001,0.101,0.1122,0.1122,0.1178,0.1234,0.129,0.1234,0.1178,0.1122,0.1234,0.129,0.1122,0.1065,0.1178,0.1234,0.129,0.1178,0.1009,0.0893,0.0777,0.0556,0.0224,0.0,-0.0223,-0.039,-0.05,-0.0671,-0.084,-0.1122,-0.1178,-0.129,-0.1403,-0.1459,-0.1628,-0.2018,-0.2184,-0.2184,-0.2519,-0.2854,-0.291,-0.2963,-0.3408,-0.3907,-0.4349,-0.4791,-0.4959,-0.5234,-0.5403,-0.5622,0.7599,0.7426,0.5899,0.5308,0.525,0.4554,0.4502,0.4721,0.44,0.4223,0.4105,0.3917,0.3623,0.3425,0.353,0.3679,0.3788,0.3653,0.3602,0.3554,0.352,0.3388,0.3255,0.3123,0.299,0.2951,0.2993,0.2773,0.2422,0.2549,0.2103,0.1748,0.1389,0.1165,0.1075,0.1075,0.0986,0.0853,0.0809,0.0943,0.1076,0.121,0.1343,0.1657,0.1792,0.1839,0.1975,0.2107,0.2154,0.2243,0.2152,0.2018,0.2005,0.2035,0.2029,0.1965,0.2164,0.227,0.2203,0.1947,0.1653,0.1494,0.1389,0.1233,0.1242,0.1274,0.1286,0.1346,0.1346,0.1346,0.1346,0.1346,0.1458,0.1458,0.1458,0.157,0.157,0.1458,0.1402,0.1515,0.1684,0.1793,0.185,0.1792,0.1449,0.1329,0.1154,0.0883,0.0657,0.0437,0.0274,0.011,0.0,-0.0279,-0.0672,-0.0841,-0.0897,-0.101,-0.1122,-0.1234,-0.1402,-0.1457,-0.1569,-0.1737,-0.2017,-0.1962,-0.2076,-0.2687,-0.3352,-0.4128,-0.4574,-0.468,-0.5014,-0.5293,-0.5458,0.8642,0.848,0.7604,0.6868,0.6258,0.5614,0.528,0.5206,0.5099,0.4763,0.44,0.4453,0.4371,0.4265,0.4417,0.4669,0.4823,0.4422,0.4431,0.4492,0.4478,0.4308,0.4132,0.4045,0.4045,0.3832,0.3788,0.3741,0.3568,0.33,0.3084,0.2682,0.2103,0.1792,0.1614,0.1523,0.1478,0.1478,0.1435,0.1481,0.1569,0.1791,0.1923,0.2059,0.2457,0.2549,0.2637,0.2726,0.2773,0.2729,0.2682,0.2551,0.2429,0.2513,0.244,0.2318,0.2524,0.2626,0.2587,0.2365,0.2161,0.1806,0.1601,0.1456,0.1482,0.1483,0.1566,0.1572,0.1679,0.1729,0.1849,0.185,0.1906,0.1849,0.1849,0.1962,0.2018,0.1905,0.2015,0.2238,0.235,0.2404,0.2517,0.2573,0.2225,0.1879,0.17,0.1524,0.1247,0.102,0.0862,0.065,0.0547,0.0221,-0.0167,-0.0334,-0.0448,-0.0617,-0.0729,-0.0841,-0.0897,-0.0953,-0.1065,-0.1178,-0.1346,-0.1515,-0.1794,-0.2186,-0.2798,-0.3516,-0.3959,-0.4236,-0.4625,-0.5128,-0.5234,0.9679,0.9473,0.9036,0.835,0.7495,0.6866,0.651,0.6295,0.605,0.5595,0.5002,0.5282,0.5313,0.5243,0.5384,0.5511,0.5614,0.5345,0.5281,0.5295,0.5303,0.5135,0.5005,0.4831,0.4661,0.4622,0.4491,0.4355,0.4132,0.4005,0.3788,0.3435,0.3037,0.264,0.2152,0.2061,0.2012,0.201,0.1967,0.1927,0.2014,0.2192,0.2413,0.2502,0.2812,0.2946,0.3034,0.3123,0.3167,0.317,0.3126,0.3084,0.2982,0.2925,0.2842,0.2771,0.2758,0.2828,0.2763,0.2468,0.2364,0.2048,0.1781,0.1718,0.1777,0.1841,0.1981,0.2238,0.2279,0.2321,0.2443,0.233,0.2391,0.2389,0.2238,0.2298,0.2577,0.2631,0.2796,0.3016,0.307,0.3012,0.3099,0.3097,0.2699,0.2286,0.1919,0.1824,0.1752,0.1566,0.1323,0.1172,0.1019,0.0706,0.0329,0.022,0.0165,-0.0056,-0.0224,-0.0336,-0.0393,-0.0449,-0.0673,-0.0898,-0.1066,-0.1234,-0.1458,-0.1794,-0.2294,-0.285,-0.3405,-0.4018,-0.4298,-0.4743,-0.4959,1.0667,1.0495,0.9973,0.9476,0.9046,0.8315,0.8047,0.7858,0.7265,0.6663,0.6279,0.6474,0.6382,0.6257,0.6359,0.6486,0.6371,0.6163,0.6079,0.6077,0.5975,0.5839,0.5653,0.5437,0.5356,0.5058,0.5009,0.487,0.4522,0.453,0.4355,0.418,0.3917,0.3476,0.2729,0.2415,0.2277,0.2144,0.2099,0.2279,0.246,0.2549,0.2726,0.2857,0.299,0.3123,0.3255,0.3476,0.3476,0.348,0.3612,0.348,0.3188,0.3325,0.3239,0.3018,0.3102,0.3155,0.3146,0.2523,0.2297,0.2269,0.2085,0.2053,0.2319,0.2449,0.2523,0.2769,0.2857,0.2918,0.288,0.2776,0.2834,0.2839,0.2743,0.28,0.3063,0.317,0.3312,0.361,0.3655,0.3613,0.3684,0.3601,0.3209,0.2733,0.2186,0.2045,0.216,0.2023,0.1806,0.1668,0.1521,0.1225,0.0914,0.0861,0.0705,0.0498,0.0336,0.0224,0.0112,0.0056,-0.0168,-0.056,-0.0729,-0.0785,-0.101,-0.129,-0.1849,-0.2462,-0.3297,-0.391,-0.4135,-0.4343,-0.4652,1.1763,1.1737,1.1324,1.1116,1.0822,0.9154,0.847,0.8415,0.8008,0.761,0.7441,0.7677,0.7532,0.7311,0.7296,0.7408,0.7349,0.6575,0.646,0.6919,0.6654,0.6396,0.6241,0.6204,0.6136,0.6013,0.5916,0.5825,0.575,0.5448,0.5188,0.5009,0.4613,0.4045,0.3388,0.299,0.2768,0.2857,0.2904,0.2993,0.2993,0.3037,0.3123,0.3164,0.3249,0.3344,0.3514,0.3727,0.3832,0.3877,0.4052,0.3965,0.3748,0.388,0.3704,0.353,0.3571,0.3486,0.3357,0.2999,0.2723,0.268,0.2546,0.2476,0.2721,0.2961,0.3082,0.3273,0.3362,0.3416,0.3408,0.3203,0.3205,0.3259,0.3267,0.3422,0.357,0.3573,0.3679,0.4131,0.4307,0.4147,0.4121,0.4,0.3663,0.3406,0.296,0.2649,0.2661,0.2488,0.2266,0.2168,0.1997,0.1772,0.1529,0.1429,0.1226,0.0975,0.0829,0.0673,0.0617,0.0612,0.0333,0.0,-0.0167,-0.0336,-0.0721,-0.1102,-0.1507,-0.2128,-0.2817,-0.3437,-0.3741,-0.4033,-0.4355,1.2567,1.252,1.2234,1.2126,1.1909,1.0387,0.9548,0.9205,0.8837,0.8553,0.8434,0.8626,0.8523,0.8265,0.8268,0.8207,0.8193,0.7581,0.6943,0.7447,0.7275,0.6977,0.6915,0.6974,0.6943,0.6865,0.6816,0.6768,0.6562,0.6264,0.5964,0.5658,0.5265,0.4831,0.4264,0.3873,0.3565,0.3612,0.3656,0.3656,0.3656,0.3649,0.3625,0.3601,0.3648,0.3763,0.3912,0.4097,0.432,0.4403,0.4491,0.4539,0.4403,0.4316,0.4184,0.41,0.4016,0.384,0.3667,0.3442,0.3312,0.3534,0.3127,0.3039,0.3213,0.345,0.3618,0.3748,0.3863,0.388,0.3893,0.3738,0.3612,0.3667,0.3754,0.3906,0.4009,0.4019,0.4117,0.462,0.4675,0.4573,0.4503,0.4368,0.4101,0.391,0.3708,0.3471,0.324,0.299,0.2791,0.2749,0.2587,0.237,0.2187,0.204,0.179,0.1488,0.1347,0.1202,0.1146,0.1078,0.0866,0.0595,0.0322,0.0,-0.0538,-0.0917,-0.1186,-0.1507,-0.1923,-0.2593,-0.3214,-0.3661,-0.3999,1.3173,1.2838,1.2685,1.2461,1.2174,1.1752,1.1166,1.0278,0.977,0.9504,0.9383,0.9208,0.9031,0.9128,0.9072,0.8824,0.8448,0.8211,0.7874,0.7547,0.7491,0.7388,0.7328,0.733,0.741,0.7474,0.7447,0.7314,0.7182,0.6894,0.6562,0.6246,0.595,0.5663,0.5288,0.48,0.4431,0.4326,0.4316,0.4272,0.4228,0.4268,0.4164,0.4089,0.4109,0.4191,0.435,0.4581,0.473,0.484,0.4927,0.4884,0.484,0.4753,0.4705,0.4618,0.4491,0.4276,0.41,0.3917,0.4096,0.4276,0.3663,0.3653,0.3809,0.4094,0.4193,0.4325,0.4408,0.447,0.4465,0.4263,0.4069,0.4168,0.423,0.4338,0.4488,0.4571,0.4729,0.4865,0.4828,0.4759,0.4722,0.4594,0.442,0.4359,0.4241,0.4199,0.3949,0.3658,0.3506,0.3408,0.3235,0.3021,0.2778,0.2511,0.2301,0.1998,0.1902,0.1819,0.1715,0.1567,0.1307,0.104,0.0715,0.0306,-0.0104,-0.0414,-0.0614,-0.0971,-0.1338,-0.1877,-0.256,-0.3111,-0.3485,1.3446,1.3276,1.3116,1.2873,1.2579,1.2258,1.1648,1.0952,1.0634,1.0294,0.9764,0.9665,0.9281,0.8621,0.8558,0.8653,0.8439,0.813,0.7988,0.7775,0.7547,0.7371,0.7364,0.7489,0.7694,0.7844,0.7904,0.7821,0.7731,0.7482,0.7175,0.6923,0.6527,0.6394,0.6144,0.5619,0.5241,0.4919,0.489,0.4708,0.4687,0.473,0.4573,0.4478,0.4513,0.4547,0.48,0.4905,0.5009,0.5198,0.528,0.5318,0.5318,0.5275,0.5226,0.5091,0.4961,0.4792,0.4831,0.4661,0.4709,0.5024,0.4661,0.4495,0.4604,0.4691,0.4767,0.4848,0.4906,0.4905,0.4831,0.4692,0.462,0.4663,0.4713,0.4756,0.4853,0.4921,0.5043,0.5009,0.497,0.4931,0.4888,0.4776,0.4662,0.4675,0.4692,0.4724,0.463,0.4314,0.4124,0.4063,0.3811,0.3524,0.3144,0.283,0.267,0.2467,0.2374,0.2291,0.212,0.1926,0.1769,0.1452,0.1086,0.0697,0.0354,0.005,-0.0246,-0.0446,-0.0848,-0.1364,-0.1884,-0.2469,-0.3031,1.3815,1.3682,1.3506,1.3267,1.2953,1.2708,1.2259,1.174,1.1198,1.065,1.0169,0.9798,0.9307,0.8793,0.8711,0.8709,0.8721,0.8341,0.8045,0.774,0.7535,0.7619,0.7629,0.7747,0.8103,0.8278,0.8349,0.8275,0.8162,0.7817,0.7488,0.7446,0.7018,0.6885,0.672,0.6389,0.6012,0.5704,0.5408,0.5094,0.503,0.5089,0.4962,0.4805,0.4815,0.5,0.5137,0.5204,0.5394,0.5588,0.5712,0.5798,0.5755,0.5669,0.5626,0.5448,0.5399,0.5313,0.527,0.5096,0.5318,0.5496,0.541,0.5328,0.5285,0.5363,0.5276,0.5242,0.5266,0.5251,0.5159,0.5067,0.5164,0.5266,0.5213,0.5159,0.5208,0.5213,0.5203,0.5164,0.5107,0.5038,0.4974,0.4895,0.4921,0.5015,0.5102,0.5199,0.513,0.498,0.4745,0.4657,0.4333,0.3973,0.3595,0.3322,0.313,0.2966,0.2699,0.2583,0.2485,0.2281,0.2056,0.1769,0.1388,0.1108,0.0822,0.0432,0.0095,-0.0096,-0.0335,-0.0766,-0.1351,-0.1987,-0.2494,1.4208,1.4032,1.3874,1.3615,1.3319,1.3153,1.2879,1.2531,1.1457,1.0807,1.0467,0.9856,0.9386,0.8979,0.8862,0.8865,0.8783,0.8529,0.8143,0.7743,0.7723,0.7766,0.7842,0.814,0.8169,0.856,0.8778,0.8568,0.8399,0.8127,0.7913,0.7903,0.716,0.6952,0.7128,0.6675,0.6365,0.6328,0.5902,0.5511,0.5385,0.5367,0.5376,0.5137,0.5178,0.5355,0.55,0.5675,0.5851,0.6021,0.6184,0.6227,0.6132,0.6099,0.597,0.5867,0.5808,0.5793,0.5707,0.5572,0.5658,0.575,0.5717,0.5884,0.597,0.5879,0.5744,0.5712,0.5793,0.5793,0.575,0.5663,0.5669,0.5798,0.5787,0.5787,0.575,0.575,0.5647,0.5601,0.5504,0.543,0.5252,0.5226,0.5246,0.5346,0.548,0.5561,0.5499,0.5462,0.5298,0.5127,0.4728,0.4353,0.4187,0.3883,0.3711,0.3497,0.3169,0.2941,0.2866,0.2633,0.2382,0.2052,0.1717,0.1556,0.1277,0.0916,0.0644,0.0412,0.0183,-0.0181,-0.0727,-0.1392,-0.1973,1.4433,1.4287,1.4046,1.3802,1.3483,1.2895,1.2851,1.2948,1.1806,1.1025,1.0525,0.9899,0.933,0.8985,0.8742,0.8755,0.8994,0.8623,0.8327,0.8033,0.7869,0.7812,0.7648,0.7843,0.8,0.826,0.8529,0.8729,0.8711,0.8459,0.8244,0.8163,0.7463,0.7163,0.7372,0.685,0.6594,0.6727,0.6471,0.6333,0.6494,0.62,0.6086,0.5933,0.5949,0.5809,0.5861,0.5838,0.6002,0.6135,0.6469,0.6562,0.6518,0.6629,0.6527,0.6309,0.6241,0.621,0.624,0.6155,0.6221,0.6307,0.6398,0.6562,0.6598,0.6374,0.6246,0.6295,0.6307,0.6349,0.6307,0.6221,0.6221,0.6301,0.638,0.6343,0.6349,0.6258,0.6124,0.603,0.594,0.5793,0.5626,0.5588,0.5658,0.5717,0.581,0.5875,0.5766,0.5694,0.5631,0.5411,0.4983,0.4678,0.4585,0.4418,0.4213,0.3972,0.3653,0.3433,0.3224,0.2976,0.2726,0.2326,0.2024,0.1927,0.1792,0.1573,0.1259,0.103,0.0672,0.0358,-0.0045,-0.0637,-0.123,1.4828,1.4655,1.4433,1.4176,1.3808,1.3134,1.3078,1.3165,1.1875,1.1171,1.0978,1.0225,0.9585,0.9114,0.8811,0.8666,0.8978,0.8656,0.8458,0.8265,0.8099,0.8036,0.7894,0.7821,0.8203,0.8445,0.846,0.8629,0.8787,0.8378,0.8044,0.8184,0.7652,0.734,0.7509,0.7055,0.6793,0.6983,0.688,0.7129,0.7437,0.698,0.6349,0.6182,0.6225,0.6198,0.6187,0.6205,0.6421,0.6613,0.699,0.7238,0.7194,0.7092,0.6949,0.6774,0.6659,0.6641,0.6715,0.678,0.6846,0.6937,0.7076,0.7238,0.7391,0.721,0.6987,0.7001,0.6979,0.6979,0.6768,0.6683,0.6689,0.6774,0.6761,0.6713,0.6725,0.6732,0.6598,0.6435,0.6337,0.6282,0.6173,0.6264,0.6288,0.6245,0.6319,0.6361,0.6233,0.6013,0.5941,0.5765,0.5374,0.5077,0.4969,0.4794,0.4613,0.4368,0.4132,0.3888,0.3643,0.3315,0.3037,0.2726,0.2504,0.2328,0.2194,0.1971,0.1835,0.1609,0.1252,0.0895,0.0493,0.009,-0.054,1.5255,1.5043,1.4918,1.4669,1.4269,1.357,1.3409,1.3376,1.1958,1.1388,1.1522,1.068,1.019,0.9649,0.9215,0.8945,0.8784,0.8789,0.8678,0.8555,0.8442,0.8313,0.8289,0.8366,0.8486,0.8593,0.8617,0.8583,0.8608,0.8259,0.8144,0.8167,0.7854,0.747,0.7688,0.7698,0.7548,0.7571,0.7575,0.7764,0.7594,0.7278,0.6666,0.6428,0.6471,0.6708,0.6642,0.6711,0.6965,0.7199,0.7413,0.753,0.7523,0.7348,0.7159,0.6986,0.6884,0.6951,0.7097,0.7228,0.7382,0.7551,0.7697,0.7821,0.8013,0.7957,0.7743,0.7709,0.7724,0.7523,0.7308,0.7182,0.7231,0.728,0.7217,0.7168,0.7231,0.7245,0.707,0.6852,0.681,0.6725,0.6732,0.6829,0.6823,0.6823,0.6816,0.6865,0.6823,0.6562,0.6349,0.6168,0.5874,0.5631,0.5366,0.5231,0.5101,0.4797,0.4574,0.4316,0.4052,0.37,0.3391,0.317,0.2993,0.2773,0.2549,0.2326,0.2235,0.2099,0.1787,0.1386,0.0985,0.0537,0.0045,1.5653,1.5329,1.5178,1.4949,1.4589,1.3849,1.3442,1.3209,1.2407,1.1985,1.1677,1.1332,1.0691,0.9629,0.9314,0.9151,0.9193,0.9112,0.8921,0.8745,0.8745,0.8598,0.8484,0.8553,0.8511,0.8612,0.8762,0.8858,0.8773,0.8596,0.8559,0.861,0.8138,0.789,0.791,0.7921,0.792,0.7959,0.7899,0.7942,0.7772,0.7486,0.7345,0.7049,0.6808,0.6969,0.708,0.7224,0.7416,0.7609,0.7842,0.7862,0.7784,0.7658,0.746,0.7388,0.7282,0.7311,0.7486,0.7685,0.783,0.7964,0.8111,0.8324,0.8472,0.8626,0.8537,0.8667,0.8553,0.8144,0.7931,0.7848,0.7897,0.7855,0.7765,0.7814,0.7829,0.7746,0.7614,0.7489,0.7363,0.7238,0.7118,0.7125,0.7125,0.7118,0.7196,0.7245,0.7118,0.6943,0.681,0.6605,0.6355,0.6019,0.5723,0.5707,0.5572,0.5275,0.5058,0.4884,0.4535,0.4056,0.3788,0.37,0.3391,0.3126,0.2904,0.2726,0.2546,0.2368,0.2188,0.1832,0.1477,0.103,0.0493]}]]